<?xml version="1.0" encoding="UTF-8" standalone="no" ?>
<gpx xmlns="http://www.topografix.com/GPX/1/1" xmlns:xsi="http://www.w3.org/2001/XMLSchema-instance" xsi:schemaLocation="http://www.topografix.com/GPX/1/1 http://www.topografix.com/GPX/1/1/gpx.xsd" version="1.1" creator="VisuGPX - https://www.visugpx.com">
  <metadata>
    <name>ST MARTIN DE CASSELVI TARN</name>
    <desc><![CDATA[Se garer église de St Martin  pour une rando de 21 km sur les  crêtes de Briatexte et le circuit de Gaudelius St Gauzens ]]></desc>
  </metadata>
  <trk>
    <name><![CDATA[2020-02-16 15:45:54]]></name>
    <trkseg>
      <trkpt lat="43.72928" lon="1.90793">
        <ele>257.29</ele>
        <time>2020-02-16T08:08:09Z</time>
      </trkpt>
      <trkpt lat="43.72928" lon="1.90794">
        <ele>257.29</ele>
        <time>2020-02-16T08:08:10Z</time>
      </trkpt>
      <trkpt lat="43.72929" lon="1.90798">
        <ele>235.66</ele>
        <time>2020-02-16T08:08:13Z</time>
      </trkpt>
      <trkpt lat="43.7293" lon="1.908">
        <ele>235.66</ele>
        <time>2020-02-16T08:08:14Z</time>
      </trkpt>
      <trkpt lat="43.72936" lon="1.90817">
        <ele>235.18</ele>
        <time>2020-02-16T08:08:26Z</time>
      </trkpt>
      <trkpt lat="43.72947" lon="1.90855">
        <ele>233.74</ele>
        <time>2020-02-16T08:08:49Z</time>
      </trkpt>
      <trkpt lat="43.72957" lon="1.90888">
        <ele>233.26</ele>
        <time>2020-02-16T08:09:10Z</time>
      </trkpt>
      <trkpt lat="43.72962" lon="1.90899">
        <ele>234.7</ele>
        <time>2020-02-16T08:09:17Z</time>
      </trkpt>
      <trkpt lat="43.72965" lon="1.90906">
        <ele>233.74</ele>
        <time>2020-02-16T08:09:22Z</time>
      </trkpt>
      <trkpt lat="43.72968" lon="1.90916">
        <ele>235.18</ele>
        <time>2020-02-16T08:09:29Z</time>
      </trkpt>
      <trkpt lat="43.72974" lon="1.90941">
        <ele>237.1</ele>
        <time>2020-02-16T08:09:48Z</time>
      </trkpt>
      <trkpt lat="43.7298" lon="1.90946">
        <ele>236.62</ele>
        <time>2020-02-16T08:09:58Z</time>
      </trkpt>
      <trkpt lat="43.72985" lon="1.90977">
        <ele>235.66</ele>
        <time>2020-02-16T08:10:19Z</time>
      </trkpt>
      <trkpt lat="43.72989" lon="1.91005">
        <ele>232.3</ele>
        <time>2020-02-16T08:10:37Z</time>
      </trkpt>
      <trkpt lat="43.72997" lon="1.91012">
        <ele>231.81</ele>
        <time>2020-02-16T08:10:52Z</time>
      </trkpt>
      <trkpt lat="43.72997" lon="1.91009">
        <ele>231.81</ele>
        <time>2020-02-16T08:10:55Z</time>
      </trkpt>
      <trkpt lat="43.72997" lon="1.90999">
        <ele>233.26</ele>
        <time>2020-02-16T08:11:03Z</time>
      </trkpt>
      <trkpt lat="43.72989" lon="1.90974">
        <ele>237.1</ele>
        <time>2020-02-16T08:11:16Z</time>
      </trkpt>
      <trkpt lat="43.72986" lon="1.90963">
        <ele>237.58</ele>
        <time>2020-02-16T08:11:23Z</time>
      </trkpt>
      <trkpt lat="43.72974" lon="1.90929">
        <ele>237.1</ele>
        <time>2020-02-16T08:11:38Z</time>
      </trkpt>
      <trkpt lat="43.72971" lon="1.90913">
        <ele>235.66</ele>
        <time>2020-02-16T08:11:44Z</time>
      </trkpt>
      <trkpt lat="43.7297" lon="1.9091">
        <ele>235.66</ele>
        <time>2020-02-16T08:11:45Z</time>
      </trkpt>
      <trkpt lat="43.72969" lon="1.90908">
        <ele>235.66</ele>
        <time>2020-02-16T08:11:46Z</time>
      </trkpt>
      <trkpt lat="43.72968" lon="1.90905">
        <ele>235.18</ele>
        <time>2020-02-16T08:11:47Z</time>
      </trkpt>
      <trkpt lat="43.72968" lon="1.90903">
        <ele>235.18</ele>
        <time>2020-02-16T08:11:48Z</time>
      </trkpt>
      <trkpt lat="43.72967" lon="1.909">
        <ele>234.7</ele>
        <time>2020-02-16T08:11:49Z</time>
      </trkpt>
      <trkpt lat="43.72957" lon="1.90871">
        <ele>234.22</ele>
        <time>2020-02-16T08:12:03Z</time>
      </trkpt>
      <trkpt lat="43.72952" lon="1.90854">
        <ele>230.85</ele>
        <time>2020-02-16T08:12:13Z</time>
      </trkpt>
      <trkpt lat="43.72952" lon="1.90854">
        <ele>237.1</ele>
        <time>2020-02-16T08:12:14Z</time>
      </trkpt>
      <trkpt lat="43.72952" lon="1.90856">
        <ele>233.74</ele>
        <time>2020-02-16T08:12:15Z</time>
      </trkpt>
      <trkpt lat="43.72962" lon="1.90889">
        <ele>233.26</ele>
        <time>2020-02-16T08:12:30Z</time>
      </trkpt>
      <trkpt lat="43.72965" lon="1.90901">
        <ele>234.7</ele>
        <time>2020-02-16T08:12:36Z</time>
      </trkpt>
      <trkpt lat="43.72977" lon="1.90934">
        <ele>236.62</ele>
        <time>2020-02-16T08:12:51Z</time>
      </trkpt>
      <trkpt lat="43.72984" lon="1.90967">
        <ele>236.62</ele>
        <time>2020-02-16T08:13:08Z</time>
      </trkpt>
      <trkpt lat="43.7299" lon="1.90992">
        <ele>233.74</ele>
        <time>2020-02-16T08:13:22Z</time>
      </trkpt>
      <trkpt lat="43.72996" lon="1.91016">
        <ele>230.37</ele>
        <time>2020-02-16T08:13:38Z</time>
      </trkpt>
      <trkpt lat="43.73" lon="1.91047">
        <ele>227.49</ele>
        <time>2020-02-16T08:13:56Z</time>
      </trkpt>
      <trkpt lat="43.73001" lon="1.91049">
        <ele>226.05</ele>
        <time>2020-02-16T08:13:58Z</time>
      </trkpt>
      <trkpt lat="43.73002" lon="1.91052">
        <ele>227.49</ele>
        <time>2020-02-16T08:14:00Z</time>
      </trkpt>
      <trkpt lat="43.73017" lon="1.91083">
        <ele>227.97</ele>
        <time>2020-02-16T08:14:21Z</time>
      </trkpt>
      <trkpt lat="43.73038" lon="1.91112">
        <ele>230.37</ele>
        <time>2020-02-16T08:14:45Z</time>
      </trkpt>
      <trkpt lat="43.73044" lon="1.9112">
        <ele>232.78</ele>
        <time>2020-02-16T08:14:52Z</time>
      </trkpt>
      <trkpt lat="43.73057" lon="1.91133">
        <ele>234.22</ele>
        <time>2020-02-16T08:15:05Z</time>
      </trkpt>
      <trkpt lat="43.73069" lon="1.91156">
        <ele>236.62</ele>
        <time>2020-02-16T08:15:25Z</time>
      </trkpt>
      <trkpt lat="43.73085" lon="1.91182">
        <ele>239.51</ele>
        <time>2020-02-16T08:15:46Z</time>
      </trkpt>
      <trkpt lat="43.73093" lon="1.91197">
        <ele>240.47</ele>
        <time>2020-02-16T08:16:05Z</time>
      </trkpt>
      <trkpt lat="43.73107" lon="1.91222">
        <ele>242.39</ele>
        <time>2020-02-16T08:16:26Z</time>
      </trkpt>
      <trkpt lat="43.73122" lon="1.91253">
        <ele>243.83</ele>
        <time>2020-02-16T08:16:49Z</time>
      </trkpt>
      <trkpt lat="43.73128" lon="1.91272">
        <ele>243.83</ele>
        <time>2020-02-16T08:17:09Z</time>
      </trkpt>
      <trkpt lat="43.73128" lon="1.91272">
        <ele>243.83</ele>
        <time>2020-02-16T08:17:32Z</time>
      </trkpt>
      <trkpt lat="43.73126" lon="1.91276">
        <ele>243.83</ele>
        <time>2020-02-16T08:17:37Z</time>
      </trkpt>
      <trkpt lat="43.73119" lon="1.91285">
        <ele>242.87</ele>
        <time>2020-02-16T08:17:51Z</time>
      </trkpt>
      <trkpt lat="43.73103" lon="1.91299">
        <ele>242.87</ele>
        <time>2020-02-16T08:18:08Z</time>
      </trkpt>
      <trkpt lat="43.73078" lon="1.91328">
        <ele>243.83</ele>
        <time>2020-02-16T08:18:33Z</time>
      </trkpt>
      <trkpt lat="43.73058" lon="1.91359">
        <ele>244.31</ele>
        <time>2020-02-16T08:18:57Z</time>
      </trkpt>
      <trkpt lat="43.73053" lon="1.91366">
        <ele>244.79</ele>
        <time>2020-02-16T08:19:13Z</time>
      </trkpt>
      <trkpt lat="43.73048" lon="1.91378">
        <ele>243.35</ele>
        <time>2020-02-16T08:19:23Z</time>
      </trkpt>
      <trkpt lat="43.73045" lon="1.91389">
        <ele>242.87</ele>
        <time>2020-02-16T08:19:40Z</time>
      </trkpt>
      <trkpt lat="43.73043" lon="1.91405">
        <ele>241.91</ele>
        <time>2020-02-16T08:19:56Z</time>
      </trkpt>
      <trkpt lat="43.73039" lon="1.91433">
        <ele>239.02</ele>
        <time>2020-02-16T08:20:14Z</time>
      </trkpt>
      <trkpt lat="43.73041" lon="1.91469">
        <ele>236.14</ele>
        <time>2020-02-16T08:20:36Z</time>
      </trkpt>
      <trkpt lat="43.73047" lon="1.91503">
        <ele>234.22</ele>
        <time>2020-02-16T08:20:57Z</time>
      </trkpt>
      <trkpt lat="43.73044" lon="1.91527">
        <ele>233.26</ele>
        <time>2020-02-16T08:21:16Z</time>
      </trkpt>
      <trkpt lat="43.73033" lon="1.91552">
        <ele>231.33</ele>
        <time>2020-02-16T08:21:34Z</time>
      </trkpt>
      <trkpt lat="43.73024" lon="1.9158">
        <ele>230.85</ele>
        <time>2020-02-16T08:21:50Z</time>
      </trkpt>
      <trkpt lat="43.73024" lon="1.91588">
        <ele>230.37</ele>
        <time>2020-02-16T08:21:54Z</time>
      </trkpt>
      <trkpt lat="43.73015" lon="1.91607">
        <ele>229.89</ele>
        <time>2020-02-16T08:22:06Z</time>
      </trkpt>
      <trkpt lat="43.73006" lon="1.91627">
        <ele>229.41</ele>
        <time>2020-02-16T08:22:19Z</time>
      </trkpt>
      <trkpt lat="43.73004" lon="1.91639">
        <ele>229.41</ele>
        <time>2020-02-16T08:22:26Z</time>
      </trkpt>
      <trkpt lat="43.72997" lon="1.91661">
        <ele>227.97</ele>
        <time>2020-02-16T08:22:40Z</time>
      </trkpt>
      <trkpt lat="43.72993" lon="1.91673">
        <ele>227.97</ele>
        <time>2020-02-16T08:22:46Z</time>
      </trkpt>
      <trkpt lat="43.72993" lon="1.9168">
        <ele>227.97</ele>
        <time>2020-02-16T08:22:50Z</time>
      </trkpt>
      <trkpt lat="43.72991" lon="1.91689">
        <ele>227.97</ele>
        <time>2020-02-16T08:22:55Z</time>
      </trkpt>
      <trkpt lat="43.72989" lon="1.917">
        <ele>227.49</ele>
        <time>2020-02-16T08:23:00Z</time>
      </trkpt>
      <trkpt lat="43.72983" lon="1.91716">
        <ele>227.49</ele>
        <time>2020-02-16T08:23:08Z</time>
      </trkpt>
      <trkpt lat="43.72982" lon="1.91718">
        <ele>227.01</ele>
        <time>2020-02-16T08:23:09Z</time>
      </trkpt>
      <trkpt lat="43.72977" lon="1.91734">
        <ele>226.53</ele>
        <time>2020-02-16T08:23:18Z</time>
      </trkpt>
      <trkpt lat="43.7297" lon="1.9175">
        <ele>225.09</ele>
        <time>2020-02-16T08:23:28Z</time>
      </trkpt>
      <trkpt lat="43.72969" lon="1.91756">
        <ele>225.09</ele>
        <time>2020-02-16T08:23:31Z</time>
      </trkpt>
      <trkpt lat="43.72967" lon="1.91761">
        <ele>225.09</ele>
        <time>2020-02-16T08:23:34Z</time>
      </trkpt>
      <trkpt lat="43.72966" lon="1.91767">
        <ele>225.09</ele>
        <time>2020-02-16T08:23:38Z</time>
      </trkpt>
      <trkpt lat="43.72961" lon="1.91788">
        <ele>224.61</ele>
        <time>2020-02-16T08:23:49Z</time>
      </trkpt>
      <trkpt lat="43.72961" lon="1.91789">
        <ele>224.61</ele>
        <time>2020-02-16T08:23:50Z</time>
      </trkpt>
      <trkpt lat="43.7298" lon="1.91817">
        <ele>223.16</ele>
        <time>2020-02-16T08:24:06Z</time>
      </trkpt>
      <trkpt lat="43.72991" lon="1.91844">
        <ele>222.68</ele>
        <time>2020-02-16T08:24:22Z</time>
      </trkpt>
      <trkpt lat="43.73" lon="1.91869">
        <ele>221.72</ele>
        <time>2020-02-16T08:24:39Z</time>
      </trkpt>
      <trkpt lat="43.73009" lon="1.91893">
        <ele>221.24</ele>
        <time>2020-02-16T08:24:55Z</time>
      </trkpt>
      <trkpt lat="43.73011" lon="1.91896">
        <ele>222.2</ele>
        <time>2020-02-16T08:24:59Z</time>
      </trkpt>
      <trkpt lat="43.73012" lon="1.91899">
        <ele>220.76</ele>
        <time>2020-02-16T08:25:04Z</time>
      </trkpt>
      <trkpt lat="43.73014" lon="1.91902">
        <ele>219.8</ele>
        <time>2020-02-16T08:25:19Z</time>
      </trkpt>
      <trkpt lat="43.73016" lon="1.9191">
        <ele>221.24</ele>
        <time>2020-02-16T08:25:25Z</time>
      </trkpt>
      <trkpt lat="43.7302" lon="1.91918">
        <ele>221.72</ele>
        <time>2020-02-16T08:25:32Z</time>
      </trkpt>
      <trkpt lat="43.73027" lon="1.91943">
        <ele>221.24</ele>
        <time>2020-02-16T08:25:49Z</time>
      </trkpt>
      <trkpt lat="43.73035" lon="1.91978">
        <ele>221.24</ele>
        <time>2020-02-16T08:26:11Z</time>
      </trkpt>
      <trkpt lat="43.73038" lon="1.91993">
        <ele>223.64</ele>
        <time>2020-02-16T08:26:20Z</time>
      </trkpt>
      <trkpt lat="43.73039" lon="1.92017">
        <ele>223.64</ele>
        <time>2020-02-16T08:26:35Z</time>
      </trkpt>
      <trkpt lat="43.7304" lon="1.9205">
        <ele>223.64</ele>
        <time>2020-02-16T08:26:54Z</time>
      </trkpt>
      <trkpt lat="43.7304" lon="1.92082">
        <ele>225.09</ele>
        <time>2020-02-16T08:27:12Z</time>
      </trkpt>
      <trkpt lat="43.7304" lon="1.92115">
        <ele>225.57</ele>
        <time>2020-02-16T08:27:31Z</time>
      </trkpt>
      <trkpt lat="43.7304" lon="1.92144">
        <ele>227.49</ele>
        <time>2020-02-16T08:27:48Z</time>
      </trkpt>
      <trkpt lat="43.73039" lon="1.9217">
        <ele>228.45</ele>
        <time>2020-02-16T08:28:05Z</time>
      </trkpt>
      <trkpt lat="43.73038" lon="1.92201">
        <ele>229.41</ele>
        <time>2020-02-16T08:28:23Z</time>
      </trkpt>
      <trkpt lat="43.73037" lon="1.9223">
        <ele>230.37</ele>
        <time>2020-02-16T08:28:41Z</time>
      </trkpt>
      <trkpt lat="43.73038" lon="1.9226">
        <ele>233.26</ele>
        <time>2020-02-16T08:29:00Z</time>
      </trkpt>
      <trkpt lat="43.73037" lon="1.92293">
        <ele>234.7</ele>
        <time>2020-02-16T08:29:22Z</time>
      </trkpt>
      <trkpt lat="43.73038" lon="1.92323">
        <ele>237.1</ele>
        <time>2020-02-16T08:29:42Z</time>
      </trkpt>
      <trkpt lat="43.73039" lon="1.92347">
        <ele>239.02</ele>
        <time>2020-02-16T08:30:00Z</time>
      </trkpt>
      <trkpt lat="43.73042" lon="1.92374">
        <ele>241.91</ele>
        <time>2020-02-16T08:30:19Z</time>
      </trkpt>
      <trkpt lat="43.73043" lon="1.92398">
        <ele>244.79</ele>
        <time>2020-02-16T08:30:37Z</time>
      </trkpt>
      <trkpt lat="43.73045" lon="1.92418">
        <ele>246.23</ele>
        <time>2020-02-16T08:30:53Z</time>
      </trkpt>
      <trkpt lat="43.73045" lon="1.92442">
        <ele>248.64</ele>
        <time>2020-02-16T08:31:11Z</time>
      </trkpt>
      <trkpt lat="43.73045" lon="1.92443">
        <ele>248.64</ele>
        <time>2020-02-16T08:31:12Z</time>
      </trkpt>
      <trkpt lat="43.73046" lon="1.92464">
        <ele>251.04</ele>
        <time>2020-02-16T08:31:29Z</time>
      </trkpt>
      <trkpt lat="43.73045" lon="1.92493">
        <ele>253.44</ele>
        <time>2020-02-16T08:31:47Z</time>
      </trkpt>
      <trkpt lat="43.73043" lon="1.92517">
        <ele>256.33</ele>
        <time>2020-02-16T08:32:02Z</time>
      </trkpt>
      <trkpt lat="43.7304" lon="1.92537">
        <ele>258.25</ele>
        <time>2020-02-16T08:32:18Z</time>
      </trkpt>
      <trkpt lat="43.73033" lon="1.92563">
        <ele>260.17</ele>
        <time>2020-02-16T08:32:35Z</time>
      </trkpt>
      <trkpt lat="43.73026" lon="1.9258">
        <ele>261.62</ele>
        <time>2020-02-16T08:32:49Z</time>
      </trkpt>
      <trkpt lat="43.73026" lon="1.92581">
        <ele>261.62</ele>
        <time>2020-02-16T08:32:50Z</time>
      </trkpt>
      <trkpt lat="43.73015" lon="1.92607">
        <ele>264.5</ele>
        <time>2020-02-16T08:33:11Z</time>
      </trkpt>
      <trkpt lat="43.73011" lon="1.92631">
        <ele>266.42</ele>
        <time>2020-02-16T08:33:28Z</time>
      </trkpt>
      <trkpt lat="43.73005" lon="1.9265">
        <ele>266.9</ele>
        <time>2020-02-16T08:33:42Z</time>
      </trkpt>
      <trkpt lat="43.73003" lon="1.92651">
        <ele>266.9</ele>
        <time>2020-02-16T08:33:58Z</time>
      </trkpt>
      <trkpt lat="43.73005" lon="1.92655">
        <ele>266.9</ele>
        <time>2020-02-16T08:34:19Z</time>
      </trkpt>
      <trkpt lat="43.73004" lon="1.92659">
        <ele>266.9</ele>
        <time>2020-02-16T08:34:39Z</time>
      </trkpt>
      <trkpt lat="43.73002" lon="1.92661">
        <ele>266.9</ele>
        <time>2020-02-16T08:35:00Z</time>
      </trkpt>
      <trkpt lat="43.73001" lon="1.92662">
        <ele>266.9</ele>
        <time>2020-02-16T08:35:20Z</time>
      </trkpt>
      <trkpt lat="43.73002" lon="1.92659">
        <ele>265.94</ele>
        <time>2020-02-16T08:35:45Z</time>
      </trkpt>
      <trkpt lat="43.73002" lon="1.92656">
        <ele>265.46</ele>
        <time>2020-02-16T08:36:03Z</time>
      </trkpt>
      <trkpt lat="43.73003" lon="1.92658">
        <ele>266.9</ele>
        <time>2020-02-16T08:36:16Z</time>
      </trkpt>
      <trkpt lat="43.73005" lon="1.92654">
        <ele>266.9</ele>
        <time>2020-02-16T08:36:40Z</time>
      </trkpt>
      <trkpt lat="43.73001" lon="1.92657">
        <ele>266.9</ele>
        <time>2020-02-16T08:37:08Z</time>
      </trkpt>
      <trkpt lat="43.73002" lon="1.92655">
        <ele>266.9</ele>
        <time>2020-02-16T08:37:37Z</time>
      </trkpt>
      <trkpt lat="43.73004" lon="1.92661">
        <ele>266.9</ele>
        <time>2020-02-16T08:37:56Z</time>
      </trkpt>
      <trkpt lat="43.73003" lon="1.92661">
        <ele>267.38</ele>
        <time>2020-02-16T08:38:24Z</time>
      </trkpt>
      <trkpt lat="43.73004" lon="1.92661">
        <ele>266.42</ele>
        <time>2020-02-16T08:38:43Z</time>
      </trkpt>
      <trkpt lat="43.73004" lon="1.9266">
        <ele>266.42</ele>
        <time>2020-02-16T08:38:59Z</time>
      </trkpt>
      <trkpt lat="43.7301" lon="1.92663">
        <ele>267.86</ele>
        <time>2020-02-16T08:39:13Z</time>
      </trkpt>
      <trkpt lat="43.73017" lon="1.92664">
        <ele>267.86</ele>
        <time>2020-02-16T08:39:29Z</time>
      </trkpt>
      <trkpt lat="43.73025" lon="1.92674">
        <ele>269.79</ele>
        <time>2020-02-16T08:39:43Z</time>
      </trkpt>
      <trkpt lat="43.73026" lon="1.92676">
        <ele>270.27</ele>
        <time>2020-02-16T08:39:45Z</time>
      </trkpt>
      <trkpt lat="43.73036" lon="1.92691">
        <ele>271.71</ele>
        <time>2020-02-16T08:40:01Z</time>
      </trkpt>
      <trkpt lat="43.73046" lon="1.92706">
        <ele>273.15</ele>
        <time>2020-02-16T08:40:14Z</time>
      </trkpt>
      <trkpt lat="43.73057" lon="1.92728">
        <ele>273.63</ele>
        <time>2020-02-16T08:40:33Z</time>
      </trkpt>
      <trkpt lat="43.73069" lon="1.9275">
        <ele>274.11</ele>
        <time>2020-02-16T08:40:51Z</time>
      </trkpt>
      <trkpt lat="43.73082" lon="1.9276">
        <ele>275.07</ele>
        <time>2020-02-16T08:41:07Z</time>
      </trkpt>
      <trkpt lat="43.73085" lon="1.92763">
        <ele>275.56</ele>
        <time>2020-02-16T08:41:10Z</time>
      </trkpt>
      <trkpt lat="43.73091" lon="1.92774">
        <ele>276.52</ele>
        <time>2020-02-16T08:41:23Z</time>
      </trkpt>
      <trkpt lat="43.73092" lon="1.92797">
        <ele>276.52</ele>
        <time>2020-02-16T08:41:39Z</time>
      </trkpt>
      <trkpt lat="43.73095" lon="1.92817">
        <ele>276.52</ele>
        <time>2020-02-16T08:41:55Z</time>
      </trkpt>
      <trkpt lat="43.73109" lon="1.92833">
        <ele>276.52</ele>
        <time>2020-02-16T08:42:12Z</time>
      </trkpt>
      <trkpt lat="43.73112" lon="1.92834">
        <ele>275.07</ele>
        <time>2020-02-16T08:42:14Z</time>
      </trkpt>
      <trkpt lat="43.73128" lon="1.92831">
        <ele>276.04</ele>
        <time>2020-02-16T08:42:30Z</time>
      </trkpt>
      <trkpt lat="43.73132" lon="1.92828">
        <ele>276.04</ele>
        <time>2020-02-16T08:42:34Z</time>
      </trkpt>
      <trkpt lat="43.73149" lon="1.9282">
        <ele>276.04</ele>
        <time>2020-02-16T08:42:50Z</time>
      </trkpt>
      <trkpt lat="43.73156" lon="1.92814">
        <ele>276.04</ele>
        <time>2020-02-16T08:43:03Z</time>
      </trkpt>
      <trkpt lat="43.73174" lon="1.92806">
        <ele>276.04</ele>
        <time>2020-02-16T08:43:21Z</time>
      </trkpt>
      <trkpt lat="43.73196" lon="1.92803">
        <ele>276.04</ele>
        <time>2020-02-16T08:43:40Z</time>
      </trkpt>
      <trkpt lat="43.732" lon="1.92804">
        <ele>276.04</ele>
        <time>2020-02-16T08:43:45Z</time>
      </trkpt>
      <trkpt lat="43.73205" lon="1.92805">
        <ele>276.04</ele>
        <time>2020-02-16T08:43:49Z</time>
      </trkpt>
      <trkpt lat="43.73222" lon="1.92816">
        <ele>276.52</ele>
        <time>2020-02-16T08:44:07Z</time>
      </trkpt>
      <trkpt lat="43.73224" lon="1.92816">
        <ele>277.48</ele>
        <time>2020-02-16T08:44:26Z</time>
      </trkpt>
      <trkpt lat="43.73222" lon="1.92812">
        <ele>277.48</ele>
        <time>2020-02-16T08:44:41Z</time>
      </trkpt>
      <trkpt lat="43.73222" lon="1.92812">
        <ele>276.04</ele>
        <time>2020-02-16T08:44:52Z</time>
      </trkpt>
      <trkpt lat="43.73223" lon="1.92811">
        <ele>277.48</ele>
        <time>2020-02-16T08:45:04Z</time>
      </trkpt>
      <trkpt lat="43.73225" lon="1.92811">
        <ele>276.52</ele>
        <time>2020-02-16T08:45:15Z</time>
      </trkpt>
      <trkpt lat="43.73226" lon="1.92812">
        <ele>276.04</ele>
        <time>2020-02-16T08:45:32Z</time>
      </trkpt>
      <trkpt lat="43.73224" lon="1.92809">
        <ele>276.52</ele>
        <time>2020-02-16T08:46:00Z</time>
      </trkpt>
      <trkpt lat="43.73228" lon="1.92806">
        <ele>276.52</ele>
        <time>2020-02-16T08:46:17Z</time>
      </trkpt>
      <trkpt lat="43.73232" lon="1.92804">
        <ele>277.48</ele>
        <time>2020-02-16T08:46:21Z</time>
      </trkpt>
      <trkpt lat="43.73243" lon="1.92796">
        <ele>277.96</ele>
        <time>2020-02-16T08:46:35Z</time>
      </trkpt>
      <trkpt lat="43.73249" lon="1.92794">
        <ele>277.96</ele>
        <time>2020-02-16T08:46:47Z</time>
      </trkpt>
      <trkpt lat="43.73253" lon="1.92799">
        <ele>277.96</ele>
        <time>2020-02-16T08:46:53Z</time>
      </trkpt>
      <trkpt lat="43.73256" lon="1.92804">
        <ele>277.96</ele>
        <time>2020-02-16T08:46:59Z</time>
      </trkpt>
      <trkpt lat="43.73259" lon="1.92808">
        <ele>277.96</ele>
        <time>2020-02-16T08:47:03Z</time>
      </trkpt>
      <trkpt lat="43.73276" lon="1.9283">
        <ele>278.44</ele>
        <time>2020-02-16T08:47:23Z</time>
      </trkpt>
      <trkpt lat="43.73292" lon="1.92852">
        <ele>278.44</ele>
        <time>2020-02-16T08:47:43Z</time>
      </trkpt>
      <trkpt lat="43.73305" lon="1.92873">
        <ele>278.44</ele>
        <time>2020-02-16T08:48:00Z</time>
      </trkpt>
      <trkpt lat="43.7331" lon="1.92882">
        <ele>277.48</ele>
        <time>2020-02-16T08:48:07Z</time>
      </trkpt>
      <trkpt lat="43.73328" lon="1.9291">
        <ele>277</ele>
        <time>2020-02-16T08:48:28Z</time>
      </trkpt>
      <trkpt lat="43.73343" lon="1.92932">
        <ele>276.04</ele>
        <time>2020-02-16T08:48:46Z</time>
      </trkpt>
      <trkpt lat="43.73362" lon="1.92955">
        <ele>275.56</ele>
        <time>2020-02-16T08:49:06Z</time>
      </trkpt>
      <trkpt lat="43.73385" lon="1.92968">
        <ele>275.56</ele>
        <time>2020-02-16T08:49:26Z</time>
      </trkpt>
      <trkpt lat="43.73412" lon="1.92973">
        <ele>275.56</ele>
        <time>2020-02-16T08:49:49Z</time>
      </trkpt>
      <trkpt lat="43.7342" lon="1.92974">
        <ele>277</ele>
        <time>2020-02-16T08:49:56Z</time>
      </trkpt>
      <trkpt lat="43.73442" lon="1.92978">
        <ele>277.48</ele>
        <time>2020-02-16T08:50:17Z</time>
      </trkpt>
      <trkpt lat="43.73465" lon="1.92982">
        <ele>277.48</ele>
        <time>2020-02-16T08:50:35Z</time>
      </trkpt>
      <trkpt lat="43.73485" lon="1.92987">
        <ele>277</ele>
        <time>2020-02-16T08:50:52Z</time>
      </trkpt>
      <trkpt lat="43.73494" lon="1.92992">
        <ele>277</ele>
        <time>2020-02-16T08:51:02Z</time>
      </trkpt>
      <trkpt lat="43.73501" lon="1.92994">
        <ele>277.96</ele>
        <time>2020-02-16T08:51:09Z</time>
      </trkpt>
      <trkpt lat="43.73514" lon="1.93001">
        <ele>277.96</ele>
        <time>2020-02-16T08:51:24Z</time>
      </trkpt>
      <trkpt lat="43.73522" lon="1.93004">
        <ele>277</ele>
        <time>2020-02-16T08:51:30Z</time>
      </trkpt>
      <trkpt lat="43.73547" lon="1.93009">
        <ele>276.52</ele>
        <time>2020-02-16T08:51:50Z</time>
      </trkpt>
      <trkpt lat="43.73572" lon="1.93008">
        <ele>276.52</ele>
        <time>2020-02-16T08:52:10Z</time>
      </trkpt>
      <trkpt lat="43.73594" lon="1.93006">
        <ele>276.04</ele>
        <time>2020-02-16T08:52:27Z</time>
      </trkpt>
      <trkpt lat="43.73616" lon="1.93007">
        <ele>275.56</ele>
        <time>2020-02-16T08:52:45Z</time>
      </trkpt>
      <trkpt lat="43.73639" lon="1.93006">
        <ele>275.56</ele>
        <time>2020-02-16T08:53:04Z</time>
      </trkpt>
      <trkpt lat="43.73662" lon="1.93004">
        <ele>275.56</ele>
        <time>2020-02-16T08:53:23Z</time>
      </trkpt>
      <trkpt lat="43.73678" lon="1.93004">
        <ele>275.56</ele>
        <time>2020-02-16T08:53:38Z</time>
      </trkpt>
      <trkpt lat="43.73696" lon="1.93004">
        <ele>275.56</ele>
        <time>2020-02-16T08:53:54Z</time>
      </trkpt>
      <trkpt lat="43.73712" lon="1.92999">
        <ele>275.56</ele>
        <time>2020-02-16T08:54:07Z</time>
      </trkpt>
      <trkpt lat="43.73728" lon="1.92994">
        <ele>275.56</ele>
        <time>2020-02-16T08:54:21Z</time>
      </trkpt>
      <trkpt lat="43.7375" lon="1.92993">
        <ele>275.07</ele>
        <time>2020-02-16T08:54:39Z</time>
      </trkpt>
      <trkpt lat="43.73764" lon="1.92989">
        <ele>275.07</ele>
        <time>2020-02-16T08:54:52Z</time>
      </trkpt>
      <trkpt lat="43.73783" lon="1.92977">
        <ele>274.59</ele>
        <time>2020-02-16T08:55:09Z</time>
      </trkpt>
      <trkpt lat="43.7379" lon="1.92973">
        <ele>274.59</ele>
        <time>2020-02-16T08:55:16Z</time>
      </trkpt>
      <trkpt lat="43.73796" lon="1.92971">
        <ele>274.11</ele>
        <time>2020-02-16T08:55:21Z</time>
      </trkpt>
      <trkpt lat="43.73817" lon="1.92965">
        <ele>273.15</ele>
        <time>2020-02-16T08:55:38Z</time>
      </trkpt>
      <trkpt lat="43.73837" lon="1.9296">
        <ele>272.19</ele>
        <time>2020-02-16T08:55:56Z</time>
      </trkpt>
      <trkpt lat="43.73855" lon="1.92954">
        <ele>270.75</ele>
        <time>2020-02-16T08:56:12Z</time>
      </trkpt>
      <trkpt lat="43.73879" lon="1.92943">
        <ele>269.79</ele>
        <time>2020-02-16T08:56:30Z</time>
      </trkpt>
      <trkpt lat="43.73896" lon="1.92937">
        <ele>268.83</ele>
        <time>2020-02-16T08:56:46Z</time>
      </trkpt>
      <trkpt lat="43.73914" lon="1.92927">
        <ele>266.42</ele>
        <time>2020-02-16T08:57:04Z</time>
      </trkpt>
      <trkpt lat="43.73924" lon="1.9292">
        <ele>265.94</ele>
        <time>2020-02-16T08:57:13Z</time>
      </trkpt>
      <trkpt lat="43.73928" lon="1.92916">
        <ele>265.46</ele>
        <time>2020-02-16T08:57:17Z</time>
      </trkpt>
      <trkpt lat="43.73944" lon="1.92907">
        <ele>264.02</ele>
        <time>2020-02-16T08:57:33Z</time>
      </trkpt>
      <trkpt lat="43.7396" lon="1.929">
        <ele>261.62</ele>
        <time>2020-02-16T08:57:49Z</time>
      </trkpt>
      <trkpt lat="43.73979" lon="1.92893">
        <ele>260.17</ele>
        <time>2020-02-16T08:58:05Z</time>
      </trkpt>
      <trkpt lat="43.73998" lon="1.9289">
        <ele>259.21</ele>
        <time>2020-02-16T08:58:20Z</time>
      </trkpt>
      <trkpt lat="43.74015" lon="1.92887">
        <ele>257.29</ele>
        <time>2020-02-16T08:58:34Z</time>
      </trkpt>
      <trkpt lat="43.74034" lon="1.92882">
        <ele>255.85</ele>
        <time>2020-02-16T08:58:50Z</time>
      </trkpt>
      <trkpt lat="43.74044" lon="1.9288">
        <ele>254.89</ele>
        <time>2020-02-16T08:58:59Z</time>
      </trkpt>
      <trkpt lat="43.74049" lon="1.92879">
        <ele>254.89</ele>
        <time>2020-02-16T08:59:03Z</time>
      </trkpt>
      <trkpt lat="43.74065" lon="1.92873">
        <ele>252.48</ele>
        <time>2020-02-16T08:59:19Z</time>
      </trkpt>
      <trkpt lat="43.74085" lon="1.92867">
        <ele>250.56</ele>
        <time>2020-02-16T08:59:35Z</time>
      </trkpt>
      <trkpt lat="43.74107" lon="1.92859">
        <ele>249.12</ele>
        <time>2020-02-16T08:59:53Z</time>
      </trkpt>
      <trkpt lat="43.74129" lon="1.9285">
        <ele>248.16</ele>
        <time>2020-02-16T09:00:12Z</time>
      </trkpt>
      <trkpt lat="43.74146" lon="1.92847">
        <ele>247.68</ele>
        <time>2020-02-16T09:00:30Z</time>
      </trkpt>
      <trkpt lat="43.7417" lon="1.92849">
        <ele>247.2</ele>
        <time>2020-02-16T09:00:49Z</time>
      </trkpt>
      <trkpt lat="43.74189" lon="1.92853">
        <ele>245.75</ele>
        <time>2020-02-16T09:01:05Z</time>
      </trkpt>
      <trkpt lat="43.74206" lon="1.92865">
        <ele>244.79</ele>
        <time>2020-02-16T09:01:22Z</time>
      </trkpt>
      <trkpt lat="43.7422" lon="1.92879">
        <ele>243.83</ele>
        <time>2020-02-16T09:01:37Z</time>
      </trkpt>
      <trkpt lat="43.74226" lon="1.92887">
        <ele>243.35</ele>
        <time>2020-02-16T09:01:45Z</time>
      </trkpt>
      <trkpt lat="43.74243" lon="1.92907">
        <ele>242.39</ele>
        <time>2020-02-16T09:02:03Z</time>
      </trkpt>
      <trkpt lat="43.74255" lon="1.92922">
        <ele>241.43</ele>
        <time>2020-02-16T09:02:17Z</time>
      </trkpt>
      <trkpt lat="43.74262" lon="1.9293">
        <ele>240.95</ele>
        <time>2020-02-16T09:02:25Z</time>
      </trkpt>
      <trkpt lat="43.74278" lon="1.92949">
        <ele>239.99</ele>
        <time>2020-02-16T09:02:42Z</time>
      </trkpt>
      <trkpt lat="43.74293" lon="1.92964">
        <ele>238.06</ele>
        <time>2020-02-16T09:02:58Z</time>
      </trkpt>
      <trkpt lat="43.74303" lon="1.92974">
        <ele>238.54</ele>
        <time>2020-02-16T09:03:09Z</time>
      </trkpt>
      <trkpt lat="43.74319" lon="1.92992">
        <ele>237.1</ele>
        <time>2020-02-16T09:03:25Z</time>
      </trkpt>
      <trkpt lat="43.74337" lon="1.93008">
        <ele>236.14</ele>
        <time>2020-02-16T09:03:43Z</time>
      </trkpt>
      <trkpt lat="43.74349" lon="1.93019">
        <ele>234.7</ele>
        <time>2020-02-16T09:03:57Z</time>
      </trkpt>
      <trkpt lat="43.74366" lon="1.9303">
        <ele>232.3</ele>
        <time>2020-02-16T09:04:13Z</time>
      </trkpt>
      <trkpt lat="43.74376" lon="1.93042">
        <ele>230.85</ele>
        <time>2020-02-16T09:04:27Z</time>
      </trkpt>
      <trkpt lat="43.74391" lon="1.93054">
        <ele>228.93</ele>
        <time>2020-02-16T09:04:42Z</time>
      </trkpt>
      <trkpt lat="43.74408" lon="1.93072">
        <ele>227.97</ele>
        <time>2020-02-16T09:05:00Z</time>
      </trkpt>
      <trkpt lat="43.74424" lon="1.9309">
        <ele>226.53</ele>
        <time>2020-02-16T09:05:20Z</time>
      </trkpt>
      <trkpt lat="43.74445" lon="1.93103">
        <ele>223.64</ele>
        <time>2020-02-16T09:05:38Z</time>
      </trkpt>
      <trkpt lat="43.74462" lon="1.93116">
        <ele>221.24</ele>
        <time>2020-02-16T09:05:56Z</time>
      </trkpt>
      <trkpt lat="43.74478" lon="1.93125">
        <ele>218.84</ele>
        <time>2020-02-16T09:06:12Z</time>
      </trkpt>
      <trkpt lat="43.74489" lon="1.93129">
        <ele>217.88</ele>
        <time>2020-02-16T09:06:19Z</time>
      </trkpt>
      <trkpt lat="43.74491" lon="1.9313">
        <ele>217.88</ele>
        <time>2020-02-16T09:06:21Z</time>
      </trkpt>
      <trkpt lat="43.74503" lon="1.93135">
        <ele>216.43</ele>
        <time>2020-02-16T09:06:36Z</time>
      </trkpt>
      <trkpt lat="43.7451" lon="1.93137">
        <ele>215.95</ele>
        <time>2020-02-16T09:06:52Z</time>
      </trkpt>
      <trkpt lat="43.74513" lon="1.93137">
        <ele>215.95</ele>
        <time>2020-02-16T09:07:10Z</time>
      </trkpt>
      <trkpt lat="43.74516" lon="1.93138">
        <ele>215.95</ele>
        <time>2020-02-16T09:07:30Z</time>
      </trkpt>
      <trkpt lat="43.74516" lon="1.9314">
        <ele>215.95</ele>
        <time>2020-02-16T09:07:58Z</time>
      </trkpt>
      <trkpt lat="43.74526" lon="1.9314">
        <ele>215.95</ele>
        <time>2020-02-16T09:08:27Z</time>
      </trkpt>
      <trkpt lat="43.74517" lon="1.93142">
        <ele>216.43</ele>
        <time>2020-02-16T09:08:49Z</time>
      </trkpt>
      <trkpt lat="43.74523" lon="1.93141">
        <ele>216.43</ele>
        <time>2020-02-16T09:09:13Z</time>
      </trkpt>
      <trkpt lat="43.74532" lon="1.93152">
        <ele>215.95</ele>
        <time>2020-02-16T09:09:28Z</time>
      </trkpt>
      <trkpt lat="43.74545" lon="1.93166">
        <ele>215.47</ele>
        <time>2020-02-16T09:09:44Z</time>
      </trkpt>
      <trkpt lat="43.74563" lon="1.93186">
        <ele>215.47</ele>
        <time>2020-02-16T09:10:03Z</time>
      </trkpt>
      <trkpt lat="43.74573" lon="1.93199">
        <ele>214.99</ele>
        <time>2020-02-16T09:10:20Z</time>
      </trkpt>
      <trkpt lat="43.74586" lon="1.93213">
        <ele>214.51</ele>
        <time>2020-02-16T09:10:36Z</time>
      </trkpt>
      <trkpt lat="43.74597" lon="1.93225">
        <ele>214.51</ele>
        <time>2020-02-16T09:10:51Z</time>
      </trkpt>
      <trkpt lat="43.74611" lon="1.93242">
        <ele>213.55</ele>
        <time>2020-02-16T09:11:09Z</time>
      </trkpt>
      <trkpt lat="43.74626" lon="1.93259">
        <ele>212.11</ele>
        <time>2020-02-16T09:11:25Z</time>
      </trkpt>
      <trkpt lat="43.74637" lon="1.93273">
        <ele>211.63</ele>
        <time>2020-02-16T09:11:38Z</time>
      </trkpt>
      <trkpt lat="43.74642" lon="1.93282">
        <ele>211.15</ele>
        <time>2020-02-16T09:11:43Z</time>
      </trkpt>
      <trkpt lat="43.74654" lon="1.93301">
        <ele>210.19</ele>
        <time>2020-02-16T09:12:00Z</time>
      </trkpt>
      <trkpt lat="43.74663" lon="1.93315">
        <ele>209.7</ele>
        <time>2020-02-16T09:12:14Z</time>
      </trkpt>
      <trkpt lat="43.74679" lon="1.93331">
        <ele>208.74</ele>
        <time>2020-02-16T09:12:31Z</time>
      </trkpt>
      <trkpt lat="43.74689" lon="1.93342">
        <ele>208.26</ele>
        <time>2020-02-16T09:12:45Z</time>
      </trkpt>
      <trkpt lat="43.747" lon="1.93354">
        <ele>208.26</ele>
        <time>2020-02-16T09:13:00Z</time>
      </trkpt>
      <trkpt lat="43.74709" lon="1.93356">
        <ele>207.78</ele>
        <time>2020-02-16T09:13:09Z</time>
      </trkpt>
      <trkpt lat="43.74726" lon="1.93345">
        <ele>207.3</ele>
        <time>2020-02-16T09:13:25Z</time>
      </trkpt>
      <trkpt lat="43.74739" lon="1.93322">
        <ele>207.3</ele>
        <time>2020-02-16T09:13:43Z</time>
      </trkpt>
      <trkpt lat="43.74751" lon="1.93295">
        <ele>206.82</ele>
        <time>2020-02-16T09:14:00Z</time>
      </trkpt>
      <trkpt lat="43.74756" lon="1.93288">
        <ele>206.34</ele>
        <time>2020-02-16T09:14:06Z</time>
      </trkpt>
      <trkpt lat="43.74776" lon="1.93281">
        <ele>203.46</ele>
        <time>2020-02-16T09:14:27Z</time>
      </trkpt>
      <trkpt lat="43.74795" lon="1.93276">
        <ele>201.53</ele>
        <time>2020-02-16T09:14:41Z</time>
      </trkpt>
      <trkpt lat="43.74814" lon="1.93268">
        <ele>200.09</ele>
        <time>2020-02-16T09:14:58Z</time>
      </trkpt>
      <trkpt lat="43.74828" lon="1.93246">
        <ele>198.65</ele>
        <time>2020-02-16T09:15:13Z</time>
      </trkpt>
      <trkpt lat="43.7483" lon="1.93219">
        <ele>198.17</ele>
        <time>2020-02-16T09:15:27Z</time>
      </trkpt>
      <trkpt lat="43.74827" lon="1.93189">
        <ele>198.17</ele>
        <time>2020-02-16T09:15:46Z</time>
      </trkpt>
      <trkpt lat="43.74827" lon="1.93155">
        <ele>198.17</ele>
        <time>2020-02-16T09:16:07Z</time>
      </trkpt>
      <trkpt lat="43.74826" lon="1.93152">
        <ele>198.17</ele>
        <time>2020-02-16T09:16:22Z</time>
      </trkpt>
      <trkpt lat="43.74826" lon="1.93152">
        <ele>198.17</ele>
        <time>2020-02-16T09:16:23Z</time>
      </trkpt>
      <trkpt lat="43.74838" lon="1.93133">
        <ele>197.21</ele>
        <time>2020-02-16T09:16:40Z</time>
      </trkpt>
      <trkpt lat="43.74845" lon="1.93114">
        <ele>197.21</ele>
        <time>2020-02-16T09:16:54Z</time>
      </trkpt>
      <trkpt lat="43.74855" lon="1.93094">
        <ele>196.73</ele>
        <time>2020-02-16T09:17:12Z</time>
      </trkpt>
      <trkpt lat="43.74869" lon="1.93084">
        <ele>195.28</ele>
        <time>2020-02-16T09:17:27Z</time>
      </trkpt>
      <trkpt lat="43.74886" lon="1.93072">
        <ele>194.8</ele>
        <time>2020-02-16T09:17:43Z</time>
      </trkpt>
      <trkpt lat="43.74892" lon="1.93063">
        <ele>194.32</ele>
        <time>2020-02-16T09:17:59Z</time>
      </trkpt>
      <trkpt lat="43.74904" lon="1.93056">
        <ele>193.84</ele>
        <time>2020-02-16T09:18:14Z</time>
      </trkpt>
      <trkpt lat="43.74916" lon="1.93048">
        <ele>192.88</ele>
        <time>2020-02-16T09:18:28Z</time>
      </trkpt>
      <trkpt lat="43.74918" lon="1.93046">
        <ele>192.88</ele>
        <time>2020-02-16T09:18:30Z</time>
      </trkpt>
      <trkpt lat="43.74934" lon="1.93044">
        <ele>190.48</ele>
        <time>2020-02-16T09:18:48Z</time>
      </trkpt>
      <trkpt lat="43.74949" lon="1.93048">
        <ele>189.52</ele>
        <time>2020-02-16T09:19:03Z</time>
      </trkpt>
      <trkpt lat="43.74957" lon="1.93056">
        <ele>187.11</ele>
        <time>2020-02-16T09:19:17Z</time>
      </trkpt>
      <trkpt lat="43.74973" lon="1.93073">
        <ele>184.71</ele>
        <time>2020-02-16T09:19:32Z</time>
      </trkpt>
      <trkpt lat="43.74989" lon="1.93083">
        <ele>182.31</ele>
        <time>2020-02-16T09:19:48Z</time>
      </trkpt>
      <trkpt lat="43.75003" lon="1.9309">
        <ele>180.87</ele>
        <time>2020-02-16T09:20:04Z</time>
      </trkpt>
      <trkpt lat="43.75015" lon="1.93093">
        <ele>179.9</ele>
        <time>2020-02-16T09:20:19Z</time>
      </trkpt>
      <trkpt lat="43.75026" lon="1.93097">
        <ele>177.98</ele>
        <time>2020-02-16T09:20:30Z</time>
      </trkpt>
      <trkpt lat="43.75041" lon="1.93095">
        <ele>176.06</ele>
        <time>2020-02-16T09:20:45Z</time>
      </trkpt>
      <trkpt lat="43.75058" lon="1.93091">
        <ele>175.1</ele>
        <time>2020-02-16T09:21:02Z</time>
      </trkpt>
      <trkpt lat="43.75075" lon="1.93082">
        <ele>173.17</ele>
        <time>2020-02-16T09:21:19Z</time>
      </trkpt>
      <trkpt lat="43.75094" lon="1.93075">
        <ele>171.73</ele>
        <time>2020-02-16T09:21:36Z</time>
      </trkpt>
      <trkpt lat="43.75106" lon="1.93066">
        <ele>171.25</ele>
        <time>2020-02-16T09:21:52Z</time>
      </trkpt>
      <trkpt lat="43.75106" lon="1.93065">
        <ele>171.25</ele>
        <time>2020-02-16T09:21:53Z</time>
      </trkpt>
      <trkpt lat="43.75115" lon="1.9306">
        <ele>170.77</ele>
        <time>2020-02-16T09:22:08Z</time>
      </trkpt>
      <trkpt lat="43.75129" lon="1.93057">
        <ele>169.33</ele>
        <time>2020-02-16T09:22:24Z</time>
      </trkpt>
      <trkpt lat="43.75142" lon="1.93048">
        <ele>168.37</ele>
        <time>2020-02-16T09:22:40Z</time>
      </trkpt>
      <trkpt lat="43.75165" lon="1.93043">
        <ele>166.93</ele>
        <time>2020-02-16T09:22:58Z</time>
      </trkpt>
      <trkpt lat="43.75182" lon="1.93034">
        <ele>165</ele>
        <time>2020-02-16T09:23:13Z</time>
      </trkpt>
      <trkpt lat="43.75201" lon="1.93021">
        <ele>164.52</ele>
        <time>2020-02-16T09:23:31Z</time>
      </trkpt>
      <trkpt lat="43.75208" lon="1.93015">
        <ele>163.56</ele>
        <time>2020-02-16T09:23:48Z</time>
      </trkpt>
      <trkpt lat="43.75211" lon="1.93009">
        <ele>163.08</ele>
        <time>2020-02-16T09:24:08Z</time>
      </trkpt>
      <trkpt lat="43.75223" lon="1.93008">
        <ele>162.6</ele>
        <time>2020-02-16T09:24:27Z</time>
      </trkpt>
      <trkpt lat="43.75219" lon="1.92993">
        <ele>162.6</ele>
        <time>2020-02-16T09:24:44Z</time>
      </trkpt>
      <trkpt lat="43.75235" lon="1.92994">
        <ele>161.64</ele>
        <time>2020-02-16T09:25:00Z</time>
      </trkpt>
      <trkpt lat="43.75236" lon="1.92994">
        <ele>161.64</ele>
        <time>2020-02-16T09:25:13Z</time>
      </trkpt>
      <trkpt lat="43.75239" lon="1.92996">
        <ele>161.64</ele>
        <time>2020-02-16T09:25:27Z</time>
      </trkpt>
      <trkpt lat="43.75246" lon="1.92994">
        <ele>161.64</ele>
        <time>2020-02-16T09:25:53Z</time>
      </trkpt>
      <trkpt lat="43.75246" lon="1.93">
        <ele>161.16</ele>
        <time>2020-02-16T09:26:10Z</time>
      </trkpt>
      <trkpt lat="43.75247" lon="1.93008">
        <ele>161.16</ele>
        <time>2020-02-16T09:26:17Z</time>
      </trkpt>
      <trkpt lat="43.7525" lon="1.9302">
        <ele>160.68</ele>
        <time>2020-02-16T09:26:25Z</time>
      </trkpt>
      <trkpt lat="43.7525" lon="1.93034">
        <ele>160.68</ele>
        <time>2020-02-16T09:26:35Z</time>
      </trkpt>
      <trkpt lat="43.75252" lon="1.93058">
        <ele>160.68</ele>
        <time>2020-02-16T09:26:50Z</time>
      </trkpt>
      <trkpt lat="43.75248" lon="1.9308">
        <ele>160.68</ele>
        <time>2020-02-16T09:27:05Z</time>
      </trkpt>
      <trkpt lat="43.75244" lon="1.93107">
        <ele>160.68</ele>
        <time>2020-02-16T09:27:21Z</time>
      </trkpt>
      <trkpt lat="43.75242" lon="1.9313">
        <ele>160.68</ele>
        <time>2020-02-16T09:27:38Z</time>
      </trkpt>
      <trkpt lat="43.75245" lon="1.93141">
        <ele>160.68</ele>
        <time>2020-02-16T09:27:51Z</time>
      </trkpt>
      <trkpt lat="43.75247" lon="1.93146">
        <ele>161.64</ele>
        <time>2020-02-16T09:27:55Z</time>
      </trkpt>
      <trkpt lat="43.75243" lon="1.93166">
        <ele>162.12</ele>
        <time>2020-02-16T09:28:09Z</time>
      </trkpt>
      <trkpt lat="43.75245" lon="1.93178">
        <ele>162.12</ele>
        <time>2020-02-16T09:28:24Z</time>
      </trkpt>
      <trkpt lat="43.75243" lon="1.93184">
        <ele>162.12</ele>
        <time>2020-02-16T09:28:34Z</time>
      </trkpt>
      <trkpt lat="43.7524" lon="1.93187">
        <ele>162.12</ele>
        <time>2020-02-16T09:28:36Z</time>
      </trkpt>
      <trkpt lat="43.75236" lon="1.93197">
        <ele>162.6</ele>
        <time>2020-02-16T09:28:49Z</time>
      </trkpt>
      <trkpt lat="43.75233" lon="1.93222">
        <ele>163.56</ele>
        <time>2020-02-16T09:29:07Z</time>
      </trkpt>
      <trkpt lat="43.75234" lon="1.93243">
        <ele>163.56</ele>
        <time>2020-02-16T09:29:20Z</time>
      </trkpt>
      <trkpt lat="43.75237" lon="1.93263">
        <ele>164.04</ele>
        <time>2020-02-16T09:29:34Z</time>
      </trkpt>
      <trkpt lat="43.75238" lon="1.93267">
        <ele>164.04</ele>
        <time>2020-02-16T09:29:36Z</time>
      </trkpt>
      <trkpt lat="43.75237" lon="1.93296">
        <ele>164.52</ele>
        <time>2020-02-16T09:29:53Z</time>
      </trkpt>
      <trkpt lat="43.75236" lon="1.93313">
        <ele>165</ele>
        <time>2020-02-16T09:30:06Z</time>
      </trkpt>
      <trkpt lat="43.75234" lon="1.93328">
        <ele>165</ele>
        <time>2020-02-16T09:30:20Z</time>
      </trkpt>
      <trkpt lat="43.7523" lon="1.9334">
        <ele>165.48</ele>
        <time>2020-02-16T09:30:27Z</time>
      </trkpt>
      <trkpt lat="43.75221" lon="1.93358">
        <ele>166.45</ele>
        <time>2020-02-16T09:30:41Z</time>
      </trkpt>
      <trkpt lat="43.75206" lon="1.93374">
        <ele>167.41</ele>
        <time>2020-02-16T09:30:58Z</time>
      </trkpt>
      <trkpt lat="43.75191" lon="1.93391">
        <ele>167.89</ele>
        <time>2020-02-16T09:31:15Z</time>
      </trkpt>
      <trkpt lat="43.75175" lon="1.93407">
        <ele>168.85</ele>
        <time>2020-02-16T09:31:31Z</time>
      </trkpt>
      <trkpt lat="43.75159" lon="1.93422">
        <ele>169.81</ele>
        <time>2020-02-16T09:31:49Z</time>
      </trkpt>
      <trkpt lat="43.75152" lon="1.9343">
        <ele>169.81</ele>
        <time>2020-02-16T09:31:58Z</time>
      </trkpt>
      <trkpt lat="43.7515" lon="1.93432">
        <ele>170.29</ele>
        <time>2020-02-16T09:32:00Z</time>
      </trkpt>
      <trkpt lat="43.75142" lon="1.9344">
        <ele>170.29</ele>
        <time>2020-02-16T09:32:08Z</time>
      </trkpt>
      <trkpt lat="43.75121" lon="1.93453">
        <ele>171.25</ele>
        <time>2020-02-16T09:32:27Z</time>
      </trkpt>
      <trkpt lat="43.75103" lon="1.93468">
        <ele>172.21</ele>
        <time>2020-02-16T09:32:44Z</time>
      </trkpt>
      <trkpt lat="43.7509" lon="1.93481">
        <ele>173.17</ele>
        <time>2020-02-16T09:32:59Z</time>
      </trkpt>
      <trkpt lat="43.75072" lon="1.93495">
        <ele>173.17</ele>
        <time>2020-02-16T09:33:17Z</time>
      </trkpt>
      <trkpt lat="43.75068" lon="1.93499">
        <ele>173.17</ele>
        <time>2020-02-16T09:33:22Z</time>
      </trkpt>
      <trkpt lat="43.7506" lon="1.93507">
        <ele>171.73</ele>
        <time>2020-02-16T09:33:32Z</time>
      </trkpt>
      <trkpt lat="43.75052" lon="1.93512">
        <ele>171.73</ele>
        <time>2020-02-16T09:33:42Z</time>
      </trkpt>
      <trkpt lat="43.75049" lon="1.93515">
        <ele>171.25</ele>
        <time>2020-02-16T09:33:45Z</time>
      </trkpt>
      <trkpt lat="43.75039" lon="1.93526">
        <ele>169.81</ele>
        <time>2020-02-16T09:34:01Z</time>
      </trkpt>
      <trkpt lat="43.75031" lon="1.93537">
        <ele>168.85</ele>
        <time>2020-02-16T09:34:16Z</time>
      </trkpt>
      <trkpt lat="43.75031" lon="1.9355">
        <ele>167.89</ele>
        <time>2020-02-16T09:34:32Z</time>
      </trkpt>
      <trkpt lat="43.75031" lon="1.93557">
        <ele>167.89</ele>
        <time>2020-02-16T09:34:57Z</time>
      </trkpt>
      <trkpt lat="43.7504" lon="1.93553">
        <ele>167.89</ele>
        <time>2020-02-16T09:35:17Z</time>
      </trkpt>
      <trkpt lat="43.75055" lon="1.93559">
        <ele>170.29</ele>
        <time>2020-02-16T09:35:33Z</time>
      </trkpt>
      <trkpt lat="43.75058" lon="1.9357">
        <ele>172.21</ele>
        <time>2020-02-16T09:35:49Z</time>
      </trkpt>
      <trkpt lat="43.75052" lon="1.93578">
        <ele>174.62</ele>
        <time>2020-02-16T09:36:02Z</time>
      </trkpt>
      <trkpt lat="43.75041" lon="1.93595">
        <ele>176.54</ele>
        <time>2020-02-16T09:36:17Z</time>
      </trkpt>
      <trkpt lat="43.75037" lon="1.93601">
        <ele>177.02</ele>
        <time>2020-02-16T09:36:24Z</time>
      </trkpt>
      <trkpt lat="43.75031" lon="1.93618">
        <ele>178.94</ele>
        <time>2020-02-16T09:36:38Z</time>
      </trkpt>
      <trkpt lat="43.75022" lon="1.93631">
        <ele>180.38</ele>
        <time>2020-02-16T09:36:55Z</time>
      </trkpt>
      <trkpt lat="43.75015" lon="1.93652">
        <ele>182.79</ele>
        <time>2020-02-16T09:37:10Z</time>
      </trkpt>
      <trkpt lat="43.7501" lon="1.93667">
        <ele>184.71</ele>
        <time>2020-02-16T09:37:23Z</time>
      </trkpt>
      <trkpt lat="43.75006" lon="1.93679">
        <ele>185.67</ele>
        <time>2020-02-16T09:37:34Z</time>
      </trkpt>
      <trkpt lat="43.75004" lon="1.93684">
        <ele>186.63</ele>
        <time>2020-02-16T09:37:39Z</time>
      </trkpt>
      <trkpt lat="43.74996" lon="1.93711">
        <ele>188.56</ele>
        <time>2020-02-16T09:37:58Z</time>
      </trkpt>
      <trkpt lat="43.7499" lon="1.93727">
        <ele>190.48</ele>
        <time>2020-02-16T09:38:14Z</time>
      </trkpt>
      <trkpt lat="43.74986" lon="1.93751">
        <ele>191.44</ele>
        <time>2020-02-16T09:38:30Z</time>
      </trkpt>
      <trkpt lat="43.74975" lon="1.93769">
        <ele>194.32</ele>
        <time>2020-02-16T09:38:48Z</time>
      </trkpt>
      <trkpt lat="43.74962" lon="1.93778">
        <ele>195.77</ele>
        <time>2020-02-16T09:39:04Z</time>
      </trkpt>
      <trkpt lat="43.74953" lon="1.93788">
        <ele>196.73</ele>
        <time>2020-02-16T09:39:14Z</time>
      </trkpt>
      <trkpt lat="43.74942" lon="1.9381">
        <ele>197.21</ele>
        <time>2020-02-16T09:39:31Z</time>
      </trkpt>
      <trkpt lat="43.7493" lon="1.93831">
        <ele>198.65</ele>
        <time>2020-02-16T09:39:48Z</time>
      </trkpt>
      <trkpt lat="43.74927" lon="1.93836">
        <ele>198.65</ele>
        <time>2020-02-16T09:39:52Z</time>
      </trkpt>
      <trkpt lat="43.74914" lon="1.93852">
        <ele>201.05</ele>
        <time>2020-02-16T09:40:10Z</time>
      </trkpt>
      <trkpt lat="43.74906" lon="1.93866">
        <ele>202.01</ele>
        <time>2020-02-16T09:40:23Z</time>
      </trkpt>
      <trkpt lat="43.74894" lon="1.9388">
        <ele>202.49</ele>
        <time>2020-02-16T09:40:37Z</time>
      </trkpt>
      <trkpt lat="43.74882" lon="1.93898">
        <ele>203.94</ele>
        <time>2020-02-16T09:40:53Z</time>
      </trkpt>
      <trkpt lat="43.74871" lon="1.93918">
        <ele>204.9</ele>
        <time>2020-02-16T09:41:10Z</time>
      </trkpt>
      <trkpt lat="43.74863" lon="1.93933">
        <ele>205.38</ele>
        <time>2020-02-16T09:41:24Z</time>
      </trkpt>
      <trkpt lat="43.74863" lon="1.93935">
        <ele>205.86</ele>
        <time>2020-02-16T09:41:25Z</time>
      </trkpt>
      <trkpt lat="43.7485" lon="1.93952">
        <ele>206.34</ele>
        <time>2020-02-16T09:41:40Z</time>
      </trkpt>
      <trkpt lat="43.74839" lon="1.93969">
        <ele>207.3</ele>
        <time>2020-02-16T09:41:55Z</time>
      </trkpt>
      <trkpt lat="43.74827" lon="1.93986">
        <ele>208.26</ele>
        <time>2020-02-16T09:42:10Z</time>
      </trkpt>
      <trkpt lat="43.74819" lon="1.93997">
        <ele>208.74</ele>
        <time>2020-02-16T09:42:20Z</time>
      </trkpt>
      <trkpt lat="43.74805" lon="1.94016">
        <ele>209.7</ele>
        <time>2020-02-16T09:42:37Z</time>
      </trkpt>
      <trkpt lat="43.74802" lon="1.94019">
        <ele>210.19</ele>
        <time>2020-02-16T09:42:40Z</time>
      </trkpt>
      <trkpt lat="43.74797" lon="1.94029">
        <ele>210.19</ele>
        <time>2020-02-16T09:42:47Z</time>
      </trkpt>
      <trkpt lat="43.74786" lon="1.94048">
        <ele>211.15</ele>
        <time>2020-02-16T09:43:04Z</time>
      </trkpt>
      <trkpt lat="43.74781" lon="1.94054">
        <ele>211.15</ele>
        <time>2020-02-16T09:43:19Z</time>
      </trkpt>
      <trkpt lat="43.74778" lon="1.94058">
        <ele>211.63</ele>
        <time>2020-02-16T09:43:31Z</time>
      </trkpt>
      <trkpt lat="43.74779" lon="1.9406">
        <ele>211.63</ele>
        <time>2020-02-16T09:43:44Z</time>
      </trkpt>
      <trkpt lat="43.7478" lon="1.94061">
        <ele>211.63</ele>
        <time>2020-02-16T09:43:57Z</time>
      </trkpt>
      <trkpt lat="43.74779" lon="1.94061">
        <ele>211.63</ele>
        <time>2020-02-16T09:44:17Z</time>
      </trkpt>
      <trkpt lat="43.74777" lon="1.94061">
        <ele>211.15</ele>
        <time>2020-02-16T09:44:25Z</time>
      </trkpt>
      <trkpt lat="43.74779" lon="1.9406">
        <ele>211.15</ele>
        <time>2020-02-16T09:44:39Z</time>
      </trkpt>
      <trkpt lat="43.74779" lon="1.94059">
        <ele>211.15</ele>
        <time>2020-02-16T09:44:52Z</time>
      </trkpt>
      <trkpt lat="43.74779" lon="1.94061">
        <ele>211.15</ele>
        <time>2020-02-16T09:45:07Z</time>
      </trkpt>
      <trkpt lat="43.7478" lon="1.94063">
        <ele>210.67</ele>
        <time>2020-02-16T09:45:19Z</time>
      </trkpt>
      <trkpt lat="43.7478" lon="1.94063">
        <ele>212.11</ele>
        <time>2020-02-16T09:45:22Z</time>
      </trkpt>
      <trkpt lat="43.7478" lon="1.94061">
        <ele>210.19</ele>
        <time>2020-02-16T09:45:25Z</time>
      </trkpt>
      <trkpt lat="43.7478" lon="1.94061">
        <ele>212.11</ele>
        <time>2020-02-16T09:45:26Z</time>
      </trkpt>
      <trkpt lat="43.7478" lon="1.94063">
        <ele>212.11</ele>
        <time>2020-02-16T09:45:36Z</time>
      </trkpt>
      <trkpt lat="43.74779" lon="1.94062">
        <ele>212.11</ele>
        <time>2020-02-16T09:45:55Z</time>
      </trkpt>
      <trkpt lat="43.7478" lon="1.94064">
        <ele>212.11</ele>
        <time>2020-02-16T09:46:11Z</time>
      </trkpt>
      <trkpt lat="43.74779" lon="1.94063">
        <ele>212.11</ele>
        <time>2020-02-16T09:46:34Z</time>
      </trkpt>
      <trkpt lat="43.74778" lon="1.94062">
        <ele>212.11</ele>
        <time>2020-02-16T09:46:49Z</time>
      </trkpt>
      <trkpt lat="43.74778" lon="1.94062">
        <ele>212.11</ele>
        <time>2020-02-16T09:47:17Z</time>
      </trkpt>
      <trkpt lat="43.74778" lon="1.94062">
        <ele>210.67</ele>
        <time>2020-02-16T09:47:29Z</time>
      </trkpt>
      <trkpt lat="43.74778" lon="1.94062">
        <ele>212.11</ele>
        <time>2020-02-16T09:47:31Z</time>
      </trkpt>
      <trkpt lat="43.74779" lon="1.94063">
        <ele>210.67</ele>
        <time>2020-02-16T09:47:34Z</time>
      </trkpt>
      <trkpt lat="43.74778" lon="1.94063">
        <ele>210.67</ele>
        <time>2020-02-16T09:47:45Z</time>
      </trkpt>
      <trkpt lat="43.74777" lon="1.94062">
        <ele>212.11</ele>
        <time>2020-02-16T09:47:51Z</time>
      </trkpt>
      <trkpt lat="43.74778" lon="1.94062">
        <ele>212.59</ele>
        <time>2020-02-16T09:48:11Z</time>
      </trkpt>
      <trkpt lat="43.74777" lon="1.94063">
        <ele>212.59</ele>
        <time>2020-02-16T09:48:38Z</time>
      </trkpt>
      <trkpt lat="43.74778" lon="1.94065">
        <ele>212.59</ele>
        <time>2020-02-16T09:48:50Z</time>
      </trkpt>
      <trkpt lat="43.74774" lon="1.94069">
        <ele>212.59</ele>
        <time>2020-02-16T09:49:06Z</time>
      </trkpt>
      <trkpt lat="43.74769" lon="1.94076">
        <ele>212.59</ele>
        <time>2020-02-16T09:49:19Z</time>
      </trkpt>
      <trkpt lat="43.74763" lon="1.94085">
        <ele>212.59</ele>
        <time>2020-02-16T09:49:28Z</time>
      </trkpt>
      <trkpt lat="43.74748" lon="1.94098">
        <ele>213.07</ele>
        <time>2020-02-16T09:49:46Z</time>
      </trkpt>
      <trkpt lat="43.74733" lon="1.9411">
        <ele>213.55</ele>
        <time>2020-02-16T09:50:02Z</time>
      </trkpt>
      <trkpt lat="43.74728" lon="1.94115">
        <ele>214.03</ele>
        <time>2020-02-16T09:50:09Z</time>
      </trkpt>
      <trkpt lat="43.74714" lon="1.94132">
        <ele>214.51</ele>
        <time>2020-02-16T09:50:26Z</time>
      </trkpt>
      <trkpt lat="43.74698" lon="1.94156">
        <ele>215.47</ele>
        <time>2020-02-16T09:50:46Z</time>
      </trkpt>
      <trkpt lat="43.74694" lon="1.94162">
        <ele>215.47</ele>
        <time>2020-02-16T09:50:58Z</time>
      </trkpt>
      <trkpt lat="43.74692" lon="1.94164">
        <ele>214.51</ele>
        <time>2020-02-16T09:51:11Z</time>
      </trkpt>
      <trkpt lat="43.74691" lon="1.94162">
        <ele>215.47</ele>
        <time>2020-02-16T09:51:22Z</time>
      </trkpt>
      <trkpt lat="43.7469" lon="1.94165">
        <ele>215.47</ele>
        <time>2020-02-16T09:51:28Z</time>
      </trkpt>
      <trkpt lat="43.74688" lon="1.94171">
        <ele>215.47</ele>
        <time>2020-02-16T09:51:33Z</time>
      </trkpt>
      <trkpt lat="43.74685" lon="1.94181">
        <ele>215.47</ele>
        <time>2020-02-16T09:51:40Z</time>
      </trkpt>
      <trkpt lat="43.74683" lon="1.94201">
        <ele>215.95</ele>
        <time>2020-02-16T09:51:57Z</time>
      </trkpt>
      <trkpt lat="43.74683" lon="1.94205">
        <ele>216.43</ele>
        <time>2020-02-16T09:52:11Z</time>
      </trkpt>
      <trkpt lat="43.74686" lon="1.94207">
        <ele>216.43</ele>
        <time>2020-02-16T09:52:28Z</time>
      </trkpt>
      <trkpt lat="43.74684" lon="1.94208">
        <ele>216.43</ele>
        <time>2020-02-16T09:52:42Z</time>
      </trkpt>
      <trkpt lat="43.7468" lon="1.94211">
        <ele>216.43</ele>
        <time>2020-02-16T09:52:55Z</time>
      </trkpt>
      <trkpt lat="43.74684" lon="1.94209">
        <ele>216.43</ele>
        <time>2020-02-16T09:53:08Z</time>
      </trkpt>
      <trkpt lat="43.74682" lon="1.9421">
        <ele>216.43</ele>
        <time>2020-02-16T09:53:19Z</time>
      </trkpt>
      <trkpt lat="43.74678" lon="1.94206">
        <ele>216.43</ele>
        <time>2020-02-16T09:53:36Z</time>
      </trkpt>
      <trkpt lat="43.7467" lon="1.9419">
        <ele>216.43</ele>
        <time>2020-02-16T09:53:57Z</time>
      </trkpt>
      <trkpt lat="43.74669" lon="1.94189">
        <ele>216.43</ele>
        <time>2020-02-16T09:53:58Z</time>
      </trkpt>
      <trkpt lat="43.74664" lon="1.94174">
        <ele>216.43</ele>
        <time>2020-02-16T09:54:10Z</time>
      </trkpt>
      <trkpt lat="43.74649" lon="1.94173">
        <ele>218.36</ele>
        <time>2020-02-16T09:54:26Z</time>
      </trkpt>
      <trkpt lat="43.74636" lon="1.94183">
        <ele>218.84</ele>
        <time>2020-02-16T09:54:40Z</time>
      </trkpt>
      <trkpt lat="43.74625" lon="1.94199">
        <ele>220.28</ele>
        <time>2020-02-16T09:54:56Z</time>
      </trkpt>
      <trkpt lat="43.74616" lon="1.94213">
        <ele>220.76</ele>
        <time>2020-02-16T09:55:08Z</time>
      </trkpt>
      <trkpt lat="43.74605" lon="1.94226">
        <ele>222.2</ele>
        <time>2020-02-16T09:55:23Z</time>
      </trkpt>
      <trkpt lat="43.74605" lon="1.94226">
        <ele>222.2</ele>
        <time>2020-02-16T09:55:24Z</time>
      </trkpt>
      <trkpt lat="43.74591" lon="1.94215">
        <ele>223.16</ele>
        <time>2020-02-16T09:55:40Z</time>
      </trkpt>
      <trkpt lat="43.74578" lon="1.94206">
        <ele>224.61</ele>
        <time>2020-02-16T09:55:53Z</time>
      </trkpt>
      <trkpt lat="43.74559" lon="1.94199">
        <ele>226.53</ele>
        <time>2020-02-16T09:56:10Z</time>
      </trkpt>
      <trkpt lat="43.74542" lon="1.94186">
        <ele>227.97</ele>
        <time>2020-02-16T09:56:26Z</time>
      </trkpt>
      <trkpt lat="43.74529" lon="1.94174">
        <ele>228.45</ele>
        <time>2020-02-16T09:56:41Z</time>
      </trkpt>
      <trkpt lat="43.74518" lon="1.94158">
        <ele>228.45</ele>
        <time>2020-02-16T09:56:55Z</time>
      </trkpt>
      <trkpt lat="43.74508" lon="1.94145">
        <ele>230.37</ele>
        <time>2020-02-16T09:57:10Z</time>
      </trkpt>
      <trkpt lat="43.74508" lon="1.94143">
        <ele>230.37</ele>
        <time>2020-02-16T09:57:11Z</time>
      </trkpt>
      <trkpt lat="43.74509" lon="1.94131">
        <ele>230.37</ele>
        <time>2020-02-16T09:57:20Z</time>
      </trkpt>
      <trkpt lat="43.74512" lon="1.94104">
        <ele>229.89</ele>
        <time>2020-02-16T09:57:38Z</time>
      </trkpt>
      <trkpt lat="43.74511" lon="1.94102">
        <ele>229.89</ele>
        <time>2020-02-16T09:57:39Z</time>
      </trkpt>
      <trkpt lat="43.74501" lon="1.941">
        <ele>230.85</ele>
        <time>2020-02-16T09:57:49Z</time>
      </trkpt>
      <trkpt lat="43.74485" lon="1.94107">
        <ele>232.3</ele>
        <time>2020-02-16T09:58:05Z</time>
      </trkpt>
      <trkpt lat="43.74473" lon="1.94113">
        <ele>232.78</ele>
        <time>2020-02-16T09:58:17Z</time>
      </trkpt>
      <trkpt lat="43.74466" lon="1.94117">
        <ele>234.22</ele>
        <time>2020-02-16T09:58:24Z</time>
      </trkpt>
      <trkpt lat="43.74449" lon="1.94126">
        <ele>235.18</ele>
        <time>2020-02-16T09:58:42Z</time>
      </trkpt>
      <trkpt lat="43.74435" lon="1.94134">
        <ele>236.14</ele>
        <time>2020-02-16T09:58:57Z</time>
      </trkpt>
      <trkpt lat="43.74431" lon="1.94135">
        <ele>236.14</ele>
        <time>2020-02-16T09:59:12Z</time>
      </trkpt>
      <trkpt lat="43.74431" lon="1.94138">
        <ele>236.14</ele>
        <time>2020-02-16T09:59:24Z</time>
      </trkpt>
      <trkpt lat="43.74426" lon="1.94138">
        <ele>236.14</ele>
        <time>2020-02-16T09:59:46Z</time>
      </trkpt>
      <trkpt lat="43.74424" lon="1.94137">
        <ele>236.14</ele>
        <time>2020-02-16T09:59:56Z</time>
      </trkpt>
      <trkpt lat="43.7442" lon="1.94139">
        <ele>236.62</ele>
        <time>2020-02-16T10:00:03Z</time>
      </trkpt>
      <trkpt lat="43.74406" lon="1.9415">
        <ele>237.58</ele>
        <time>2020-02-16T10:00:20Z</time>
      </trkpt>
      <trkpt lat="43.74392" lon="1.94165">
        <ele>239.99</ele>
        <time>2020-02-16T10:00:37Z</time>
      </trkpt>
      <trkpt lat="43.74386" lon="1.94174">
        <ele>241.43</ele>
        <time>2020-02-16T10:00:46Z</time>
      </trkpt>
      <trkpt lat="43.74374" lon="1.94186">
        <ele>243.35</ele>
        <time>2020-02-16T10:01:02Z</time>
      </trkpt>
      <trkpt lat="43.74362" lon="1.94204">
        <ele>245.75</ele>
        <time>2020-02-16T10:01:20Z</time>
      </trkpt>
      <trkpt lat="43.74361" lon="1.94209">
        <ele>246.23</ele>
        <time>2020-02-16T10:01:23Z</time>
      </trkpt>
      <trkpt lat="43.74353" lon="1.94233">
        <ele>247.68</ele>
        <time>2020-02-16T10:01:40Z</time>
      </trkpt>
      <trkpt lat="43.74347" lon="1.9425">
        <ele>248.16</ele>
        <time>2020-02-16T10:01:54Z</time>
      </trkpt>
      <trkpt lat="43.74345" lon="1.94263">
        <ele>249.12</ele>
        <time>2020-02-16T10:02:05Z</time>
      </trkpt>
      <trkpt lat="43.74343" lon="1.94285">
        <ele>249.12</ele>
        <time>2020-02-16T10:02:21Z</time>
      </trkpt>
      <trkpt lat="43.74342" lon="1.94302">
        <ele>249.6</ele>
        <time>2020-02-16T10:02:35Z</time>
      </trkpt>
      <trkpt lat="43.74343" lon="1.94316">
        <ele>249.6</ele>
        <time>2020-02-16T10:02:50Z</time>
      </trkpt>
      <trkpt lat="43.74343" lon="1.94327">
        <ele>249.6</ele>
        <time>2020-02-16T10:03:04Z</time>
      </trkpt>
      <trkpt lat="43.74344" lon="1.94333">
        <ele>248.16</ele>
        <time>2020-02-16T10:03:15Z</time>
      </trkpt>
      <trkpt lat="43.74346" lon="1.94349">
        <ele>248.16</ele>
        <time>2020-02-16T10:03:27Z</time>
      </trkpt>
      <trkpt lat="43.74345" lon="1.94369">
        <ele>248.16</ele>
        <time>2020-02-16T10:03:42Z</time>
      </trkpt>
      <trkpt lat="43.74343" lon="1.94385">
        <ele>249.12</ele>
        <time>2020-02-16T10:03:54Z</time>
      </trkpt>
      <trkpt lat="43.74343" lon="1.9441">
        <ele>249.6</ele>
        <time>2020-02-16T10:04:10Z</time>
      </trkpt>
      <trkpt lat="43.74345" lon="1.94434">
        <ele>250.08</ele>
        <time>2020-02-16T10:04:27Z</time>
      </trkpt>
      <trkpt lat="43.74348" lon="1.94461">
        <ele>250.08</ele>
        <time>2020-02-16T10:04:43Z</time>
      </trkpt>
      <trkpt lat="43.74348" lon="1.94463">
        <ele>250.08</ele>
        <time>2020-02-16T10:04:45Z</time>
      </trkpt>
      <trkpt lat="43.74347" lon="1.94489">
        <ele>250.56</ele>
        <time>2020-02-16T10:05:03Z</time>
      </trkpt>
      <trkpt lat="43.74346" lon="1.94498">
        <ele>250.56</ele>
        <time>2020-02-16T10:05:08Z</time>
      </trkpt>
      <trkpt lat="43.74338" lon="1.94528">
        <ele>250.56</ele>
        <time>2020-02-16T10:05:27Z</time>
      </trkpt>
      <trkpt lat="43.7433" lon="1.9455">
        <ele>250.08</ele>
        <time>2020-02-16T10:05:43Z</time>
      </trkpt>
      <trkpt lat="43.74324" lon="1.94569">
        <ele>249.12</ele>
        <time>2020-02-16T10:05:56Z</time>
      </trkpt>
      <trkpt lat="43.74315" lon="1.94591">
        <ele>248.64</ele>
        <time>2020-02-16T10:06:12Z</time>
      </trkpt>
      <trkpt lat="43.74301" lon="1.94612">
        <ele>247.2</ele>
        <time>2020-02-16T10:06:29Z</time>
      </trkpt>
      <trkpt lat="43.74285" lon="1.94626">
        <ele>246.72</ele>
        <time>2020-02-16T10:06:46Z</time>
      </trkpt>
      <trkpt lat="43.74284" lon="1.94627">
        <ele>246.72</ele>
        <time>2020-02-16T10:06:47Z</time>
      </trkpt>
      <trkpt lat="43.7427" lon="1.94637">
        <ele>246.23</ele>
        <time>2020-02-16T10:07:01Z</time>
      </trkpt>
      <trkpt lat="43.74268" lon="1.9464">
        <ele>246.23</ele>
        <time>2020-02-16T10:07:03Z</time>
      </trkpt>
      <trkpt lat="43.74251" lon="1.94657">
        <ele>246.23</ele>
        <time>2020-02-16T10:07:22Z</time>
      </trkpt>
      <trkpt lat="43.7425" lon="1.94661">
        <ele>246.23</ele>
        <time>2020-02-16T10:07:35Z</time>
      </trkpt>
      <trkpt lat="43.7424" lon="1.94667">
        <ele>247.68</ele>
        <time>2020-02-16T10:07:46Z</time>
      </trkpt>
      <trkpt lat="43.74234" lon="1.94669">
        <ele>248.16</ele>
        <time>2020-02-16T10:07:53Z</time>
      </trkpt>
      <trkpt lat="43.74226" lon="1.94677">
        <ele>248.64</ele>
        <time>2020-02-16T10:08:08Z</time>
      </trkpt>
      <trkpt lat="43.74211" lon="1.94687">
        <ele>250.08</ele>
        <time>2020-02-16T10:08:24Z</time>
      </trkpt>
      <trkpt lat="43.74191" lon="1.94695">
        <ele>251.04</ele>
        <time>2020-02-16T10:08:42Z</time>
      </trkpt>
      <trkpt lat="43.74171" lon="1.94706">
        <ele>251.52</ele>
        <time>2020-02-16T10:08:59Z</time>
      </trkpt>
      <trkpt lat="43.74152" lon="1.94714">
        <ele>251.52</ele>
        <time>2020-02-16T10:09:15Z</time>
      </trkpt>
      <trkpt lat="43.74129" lon="1.94721">
        <ele>250.08</ele>
        <time>2020-02-16T10:09:35Z</time>
      </trkpt>
      <trkpt lat="43.74102" lon="1.94725">
        <ele>251.04</ele>
        <time>2020-02-16T10:09:57Z</time>
      </trkpt>
      <trkpt lat="43.74075" lon="1.9473">
        <ele>252</ele>
        <time>2020-02-16T10:10:18Z</time>
      </trkpt>
      <trkpt lat="43.74049" lon="1.94727">
        <ele>254.41</ele>
        <time>2020-02-16T10:10:41Z</time>
      </trkpt>
      <trkpt lat="43.74028" lon="1.94724">
        <ele>257.29</ele>
        <time>2020-02-16T10:11:01Z</time>
      </trkpt>
      <trkpt lat="43.74007" lon="1.9472">
        <ele>260.17</ele>
        <time>2020-02-16T10:11:22Z</time>
      </trkpt>
      <trkpt lat="43.73992" lon="1.94718">
        <ele>261.62</ele>
        <time>2020-02-16T10:11:37Z</time>
      </trkpt>
      <trkpt lat="43.73987" lon="1.94717">
        <ele>261.62</ele>
        <time>2020-02-16T10:11:56Z</time>
      </trkpt>
      <trkpt lat="43.73976" lon="1.94715">
        <ele>262.58</ele>
        <time>2020-02-16T10:12:12Z</time>
      </trkpt>
      <trkpt lat="43.73975" lon="1.94716">
        <ele>262.1</ele>
        <time>2020-02-16T10:12:34Z</time>
      </trkpt>
      <trkpt lat="43.73976" lon="1.94716">
        <ele>263.06</ele>
        <time>2020-02-16T10:12:50Z</time>
      </trkpt>
      <trkpt lat="43.73975" lon="1.94715">
        <ele>261.62</ele>
        <time>2020-02-16T10:12:56Z</time>
      </trkpt>
      <trkpt lat="43.73975" lon="1.94714">
        <ele>263.54</ele>
        <time>2020-02-16T10:13:29Z</time>
      </trkpt>
      <trkpt lat="43.73975" lon="1.94714">
        <ele>262.58</ele>
        <time>2020-02-16T10:13:31Z</time>
      </trkpt>
      <trkpt lat="43.73975" lon="1.94713">
        <ele>264.02</ele>
        <time>2020-02-16T10:13:34Z</time>
      </trkpt>
      <trkpt lat="43.73975" lon="1.94714">
        <ele>262.1</ele>
        <time>2020-02-16T10:13:39Z</time>
      </trkpt>
      <trkpt lat="43.73975" lon="1.94714">
        <ele>263.06</ele>
        <time>2020-02-16T10:13:56Z</time>
      </trkpt>
      <trkpt lat="43.73969" lon="1.94707">
        <ele>263.54</ele>
        <time>2020-02-16T10:14:12Z</time>
      </trkpt>
      <trkpt lat="43.73966" lon="1.94702">
        <ele>263.54</ele>
        <time>2020-02-16T10:14:17Z</time>
      </trkpt>
      <trkpt lat="43.73953" lon="1.94687">
        <ele>264.5</ele>
        <time>2020-02-16T10:14:33Z</time>
      </trkpt>
      <trkpt lat="43.73939" lon="1.94674">
        <ele>264.5</ele>
        <time>2020-02-16T10:14:47Z</time>
      </trkpt>
      <trkpt lat="43.73931" lon="1.94667">
        <ele>264.02</ele>
        <time>2020-02-16T10:14:56Z</time>
      </trkpt>
      <trkpt lat="43.73913" lon="1.94658">
        <ele>264.5</ele>
        <time>2020-02-16T10:15:13Z</time>
      </trkpt>
      <trkpt lat="43.73897" lon="1.94656">
        <ele>265.94</ele>
        <time>2020-02-16T10:15:27Z</time>
      </trkpt>
      <trkpt lat="43.73892" lon="1.94654">
        <ele>265.94</ele>
        <time>2020-02-16T10:15:31Z</time>
      </trkpt>
      <trkpt lat="43.73873" lon="1.9465">
        <ele>266.42</ele>
        <time>2020-02-16T10:15:48Z</time>
      </trkpt>
      <trkpt lat="43.73856" lon="1.94641">
        <ele>265.94</ele>
        <time>2020-02-16T10:16:04Z</time>
      </trkpt>
      <trkpt lat="43.73838" lon="1.94629">
        <ele>265.46</ele>
        <time>2020-02-16T10:16:22Z</time>
      </trkpt>
      <trkpt lat="43.73829" lon="1.9462">
        <ele>265.46</ele>
        <time>2020-02-16T10:16:32Z</time>
      </trkpt>
      <trkpt lat="43.73826" lon="1.94614">
        <ele>265.46</ele>
        <time>2020-02-16T10:16:36Z</time>
      </trkpt>
      <trkpt lat="43.73822" lon="1.94597">
        <ele>268.35</ele>
        <time>2020-02-16T10:16:52Z</time>
      </trkpt>
      <trkpt lat="43.73817" lon="1.94582">
        <ele>270.75</ele>
        <time>2020-02-16T10:17:09Z</time>
      </trkpt>
      <trkpt lat="43.73809" lon="1.94569">
        <ele>274.11</ele>
        <time>2020-02-16T10:17:25Z</time>
      </trkpt>
      <trkpt lat="43.73803" lon="1.94556">
        <ele>277.48</ele>
        <time>2020-02-16T10:17:40Z</time>
      </trkpt>
      <trkpt lat="43.73792" lon="1.9455">
        <ele>280.36</ele>
        <time>2020-02-16T10:17:54Z</time>
      </trkpt>
      <trkpt lat="43.73784" lon="1.94545">
        <ele>281.8</ele>
        <time>2020-02-16T10:18:07Z</time>
      </trkpt>
      <trkpt lat="43.73772" lon="1.94539">
        <ele>283.25</ele>
        <time>2020-02-16T10:18:24Z</time>
      </trkpt>
      <trkpt lat="43.73765" lon="1.94537">
        <ele>283.73</ele>
        <time>2020-02-16T10:18:37Z</time>
      </trkpt>
      <trkpt lat="43.73759" lon="1.94533">
        <ele>283.73</ele>
        <time>2020-02-16T10:18:54Z</time>
      </trkpt>
      <trkpt lat="43.73755" lon="1.94531">
        <ele>283.73</ele>
        <time>2020-02-16T10:19:07Z</time>
      </trkpt>
      <trkpt lat="43.73754" lon="1.9453">
        <ele>283.73</ele>
        <time>2020-02-16T10:19:23Z</time>
      </trkpt>
      <trkpt lat="43.73752" lon="1.94529">
        <ele>282.77</ele>
        <time>2020-02-16T10:19:40Z</time>
      </trkpt>
      <trkpt lat="43.7375" lon="1.94528">
        <ele>282.77</ele>
        <time>2020-02-16T10:19:46Z</time>
      </trkpt>
      <trkpt lat="43.73737" lon="1.94522">
        <ele>280.36</ele>
        <time>2020-02-16T10:19:59Z</time>
      </trkpt>
      <trkpt lat="43.73728" lon="1.94516">
        <ele>278.44</ele>
        <time>2020-02-16T10:20:13Z</time>
      </trkpt>
      <trkpt lat="43.73724" lon="1.94513">
        <ele>277</ele>
        <time>2020-02-16T10:20:18Z</time>
      </trkpt>
      <trkpt lat="43.73722" lon="1.94512">
        <ele>276.52</ele>
        <time>2020-02-16T10:20:20Z</time>
      </trkpt>
      <trkpt lat="43.73717" lon="1.94507">
        <ele>276.52</ele>
        <time>2020-02-16T10:20:25Z</time>
      </trkpt>
      <trkpt lat="43.73715" lon="1.94506">
        <ele>275.07</ele>
        <time>2020-02-16T10:20:27Z</time>
      </trkpt>
      <trkpt lat="43.73706" lon="1.94498">
        <ele>272.67</ele>
        <time>2020-02-16T10:20:39Z</time>
      </trkpt>
      <trkpt lat="43.73694" lon="1.94486">
        <ele>269.79</ele>
        <time>2020-02-16T10:20:54Z</time>
      </trkpt>
      <trkpt lat="43.73686" lon="1.94476">
        <ele>267.38</ele>
        <time>2020-02-16T10:21:11Z</time>
      </trkpt>
      <trkpt lat="43.73676" lon="1.94459">
        <ele>266.42</ele>
        <time>2020-02-16T10:21:27Z</time>
      </trkpt>
      <trkpt lat="43.73669" lon="1.94447">
        <ele>265.94</ele>
        <time>2020-02-16T10:21:39Z</time>
      </trkpt>
      <trkpt lat="43.73669" lon="1.94445">
        <ele>265.94</ele>
        <time>2020-02-16T10:21:41Z</time>
      </trkpt>
      <trkpt lat="43.73663" lon="1.94436">
        <ele>265.94</ele>
        <time>2020-02-16T10:21:48Z</time>
      </trkpt>
      <trkpt lat="43.73659" lon="1.94429">
        <ele>267.38</ele>
        <time>2020-02-16T10:21:53Z</time>
      </trkpt>
      <trkpt lat="43.7365" lon="1.94422">
        <ele>265.94</ele>
        <time>2020-02-16T10:22:01Z</time>
      </trkpt>
      <trkpt lat="43.73633" lon="1.94412">
        <ele>263.54</ele>
        <time>2020-02-16T10:22:16Z</time>
      </trkpt>
      <trkpt lat="43.73625" lon="1.94407">
        <ele>261.62</ele>
        <time>2020-02-16T10:22:23Z</time>
      </trkpt>
      <trkpt lat="43.7362" lon="1.94405">
        <ele>261.14</ele>
        <time>2020-02-16T10:22:28Z</time>
      </trkpt>
      <trkpt lat="43.73615" lon="1.94401">
        <ele>259.69</ele>
        <time>2020-02-16T10:22:33Z</time>
      </trkpt>
      <trkpt lat="43.73604" lon="1.94393">
        <ele>259.21</ele>
        <time>2020-02-16T10:22:44Z</time>
      </trkpt>
      <trkpt lat="43.73587" lon="1.94383">
        <ele>257.29</ele>
        <time>2020-02-16T10:22:59Z</time>
      </trkpt>
      <trkpt lat="43.73567" lon="1.94373">
        <ele>255.37</ele>
        <time>2020-02-16T10:23:16Z</time>
      </trkpt>
      <trkpt lat="43.73549" lon="1.94367">
        <ele>255.85</ele>
        <time>2020-02-16T10:23:31Z</time>
      </trkpt>
      <trkpt lat="43.73545" lon="1.94366">
        <ele>255.37</ele>
        <time>2020-02-16T10:23:34Z</time>
      </trkpt>
      <trkpt lat="43.73527" lon="1.94359">
        <ele>255.37</ele>
        <time>2020-02-16T10:23:51Z</time>
      </trkpt>
      <trkpt lat="43.73527" lon="1.94358">
        <ele>254.41</ele>
        <time>2020-02-16T10:23:52Z</time>
      </trkpt>
      <trkpt lat="43.73515" lon="1.94351">
        <ele>255.85</ele>
        <time>2020-02-16T10:24:05Z</time>
      </trkpt>
      <trkpt lat="43.73509" lon="1.94337">
        <ele>255.85</ele>
        <time>2020-02-16T10:24:20Z</time>
      </trkpt>
      <trkpt lat="43.73509" lon="1.94336">
        <ele>255.85</ele>
        <time>2020-02-16T10:24:21Z</time>
      </trkpt>
      <trkpt lat="43.73508" lon="1.94333">
        <ele>255.85</ele>
        <time>2020-02-16T10:24:24Z</time>
      </trkpt>
      <trkpt lat="43.73507" lon="1.94331">
        <ele>255.85</ele>
        <time>2020-02-16T10:24:26Z</time>
      </trkpt>
      <trkpt lat="43.73506" lon="1.94317">
        <ele>255.85</ele>
        <time>2020-02-16T10:24:35Z</time>
      </trkpt>
      <trkpt lat="43.73507" lon="1.94314">
        <ele>255.85</ele>
        <time>2020-02-16T10:24:37Z</time>
      </trkpt>
      <trkpt lat="43.73506" lon="1.94307">
        <ele>255.37</ele>
        <time>2020-02-16T10:24:41Z</time>
      </trkpt>
      <trkpt lat="43.73502" lon="1.94288">
        <ele>256.33</ele>
        <time>2020-02-16T10:24:57Z</time>
      </trkpt>
      <trkpt lat="43.73501" lon="1.94274">
        <ele>257.77</ele>
        <time>2020-02-16T10:25:09Z</time>
      </trkpt>
      <trkpt lat="43.735" lon="1.94252">
        <ele>259.21</ele>
        <time>2020-02-16T10:25:24Z</time>
      </trkpt>
      <trkpt lat="43.73498" lon="1.94246">
        <ele>259.21</ele>
        <time>2020-02-16T10:25:28Z</time>
      </trkpt>
      <trkpt lat="43.73494" lon="1.94222">
        <ele>260.17</ele>
        <time>2020-02-16T10:25:44Z</time>
      </trkpt>
      <trkpt lat="43.73494" lon="1.94221">
        <ele>260.17</ele>
        <time>2020-02-16T10:25:45Z</time>
      </trkpt>
      <trkpt lat="43.73492" lon="1.9421">
        <ele>261.62</ele>
        <time>2020-02-16T10:25:55Z</time>
      </trkpt>
      <trkpt lat="43.73489" lon="1.94193">
        <ele>263.06</ele>
        <time>2020-02-16T10:26:10Z</time>
      </trkpt>
      <trkpt lat="43.73489" lon="1.94171">
        <ele>265.46</ele>
        <time>2020-02-16T10:26:25Z</time>
      </trkpt>
      <trkpt lat="43.73489" lon="1.94164">
        <ele>266.42</ele>
        <time>2020-02-16T10:26:31Z</time>
      </trkpt>
      <trkpt lat="43.73488" lon="1.94141">
        <ele>268.35</ele>
        <time>2020-02-16T10:26:46Z</time>
      </trkpt>
      <trkpt lat="43.73488" lon="1.94136">
        <ele>268.83</ele>
        <time>2020-02-16T10:26:50Z</time>
      </trkpt>
      <trkpt lat="43.73487" lon="1.94117">
        <ele>270.27</ele>
        <time>2020-02-16T10:27:05Z</time>
      </trkpt>
      <trkpt lat="43.73485" lon="1.941">
        <ele>273.15</ele>
        <time>2020-02-16T10:27:21Z</time>
      </trkpt>
      <trkpt lat="43.73485" lon="1.94088">
        <ele>276.04</ele>
        <time>2020-02-16T10:27:32Z</time>
      </trkpt>
      <trkpt lat="43.73481" lon="1.94069">
        <ele>279.4</ele>
        <time>2020-02-16T10:27:49Z</time>
      </trkpt>
      <trkpt lat="43.73479" lon="1.94054">
        <ele>281.8</ele>
        <time>2020-02-16T10:28:05Z</time>
      </trkpt>
      <trkpt lat="43.73476" lon="1.94041">
        <ele>284.21</ele>
        <time>2020-02-16T10:28:20Z</time>
      </trkpt>
      <trkpt lat="43.73471" lon="1.94024">
        <ele>285.65</ele>
        <time>2020-02-16T10:28:37Z</time>
      </trkpt>
      <trkpt lat="43.73464" lon="1.94014">
        <ele>287.09</ele>
        <time>2020-02-16T10:28:54Z</time>
      </trkpt>
      <trkpt lat="43.73457" lon="1.9401">
        <ele>285.17</ele>
        <time>2020-02-16T10:29:18Z</time>
      </trkpt>
      <trkpt lat="43.73459" lon="1.94006">
        <ele>286.61</ele>
        <time>2020-02-16T10:29:41Z</time>
      </trkpt>
      <trkpt lat="43.73459" lon="1.94007">
        <ele>287.09</ele>
        <time>2020-02-16T10:30:00Z</time>
      </trkpt>
      <trkpt lat="43.73459" lon="1.94006">
        <ele>286.61</ele>
        <time>2020-02-16T10:30:27Z</time>
      </trkpt>
      <trkpt lat="43.7346" lon="1.94006">
        <ele>286.61</ele>
        <time>2020-02-16T10:30:46Z</time>
      </trkpt>
      <trkpt lat="43.7346" lon="1.94007">
        <ele>286.61</ele>
        <time>2020-02-16T10:31:05Z</time>
      </trkpt>
      <trkpt lat="43.73458" lon="1.94006">
        <ele>286.61</ele>
        <time>2020-02-16T10:31:30Z</time>
      </trkpt>
      <trkpt lat="43.73457" lon="1.94006">
        <ele>286.61</ele>
        <time>2020-02-16T10:31:50Z</time>
      </trkpt>
      <trkpt lat="43.73457" lon="1.94003">
        <ele>286.61</ele>
        <time>2020-02-16T10:32:08Z</time>
      </trkpt>
      <trkpt lat="43.7346" lon="1.93994">
        <ele>286.61</ele>
        <time>2020-02-16T10:32:22Z</time>
      </trkpt>
      <trkpt lat="43.73463" lon="1.93977">
        <ele>285.65</ele>
        <time>2020-02-16T10:32:38Z</time>
      </trkpt>
      <trkpt lat="43.73463" lon="1.93964">
        <ele>284.21</ele>
        <time>2020-02-16T10:32:46Z</time>
      </trkpt>
      <trkpt lat="43.73463" lon="1.9394">
        <ele>284.21</ele>
        <time>2020-02-16T10:33:01Z</time>
      </trkpt>
      <trkpt lat="43.73458" lon="1.93915">
        <ele>283.25</ele>
        <time>2020-02-16T10:33:15Z</time>
      </trkpt>
      <trkpt lat="43.73453" lon="1.93891">
        <ele>279.88</ele>
        <time>2020-02-16T10:33:30Z</time>
      </trkpt>
      <trkpt lat="43.73453" lon="1.93886">
        <ele>279.4</ele>
        <time>2020-02-16T10:33:33Z</time>
      </trkpt>
      <trkpt lat="43.73452" lon="1.93862">
        <ele>277</ele>
        <time>2020-02-16T10:33:50Z</time>
      </trkpt>
      <trkpt lat="43.73452" lon="1.93858">
        <ele>276.52</ele>
        <time>2020-02-16T10:33:52Z</time>
      </trkpt>
      <trkpt lat="43.73444" lon="1.93832">
        <ele>274.59</ele>
        <time>2020-02-16T10:34:08Z</time>
      </trkpt>
      <trkpt lat="43.73433" lon="1.93825">
        <ele>274.11</ele>
        <time>2020-02-16T10:34:22Z</time>
      </trkpt>
      <trkpt lat="43.73432" lon="1.93825">
        <ele>274.11</ele>
        <time>2020-02-16T10:34:38Z</time>
      </trkpt>
      <trkpt lat="43.73432" lon="1.93824">
        <ele>274.11</ele>
        <time>2020-02-16T10:34:43Z</time>
      </trkpt>
      <trkpt lat="43.73431" lon="1.9382">
        <ele>274.11</ele>
        <time>2020-02-16T10:34:46Z</time>
      </trkpt>
      <trkpt lat="43.73429" lon="1.9381">
        <ele>275.56</ele>
        <time>2020-02-16T10:34:54Z</time>
      </trkpt>
      <trkpt lat="43.73425" lon="1.93791">
        <ele>277.48</ele>
        <time>2020-02-16T10:35:10Z</time>
      </trkpt>
      <trkpt lat="43.73424" lon="1.93786">
        <ele>278.92</ele>
        <time>2020-02-16T10:35:14Z</time>
      </trkpt>
      <trkpt lat="43.73424" lon="1.93769">
        <ele>280.84</ele>
        <time>2020-02-16T10:35:29Z</time>
      </trkpt>
      <trkpt lat="43.73434" lon="1.93747">
        <ele>283.25</ele>
        <time>2020-02-16T10:35:48Z</time>
      </trkpt>
      <trkpt lat="43.73443" lon="1.93728">
        <ele>284.21</ele>
        <time>2020-02-16T10:36:06Z</time>
      </trkpt>
      <trkpt lat="43.73446" lon="1.93715">
        <ele>287.09</ele>
        <time>2020-02-16T10:36:20Z</time>
      </trkpt>
      <trkpt lat="43.7345" lon="1.937">
        <ele>288.53</ele>
        <time>2020-02-16T10:36:35Z</time>
      </trkpt>
      <trkpt lat="43.73449" lon="1.93683">
        <ele>289.49</ele>
        <time>2020-02-16T10:36:50Z</time>
      </trkpt>
      <trkpt lat="43.73449" lon="1.93679">
        <ele>290.46</ele>
        <time>2020-02-16T10:36:53Z</time>
      </trkpt>
      <trkpt lat="43.73448" lon="1.93659">
        <ele>292.38</ele>
        <time>2020-02-16T10:37:09Z</time>
      </trkpt>
      <trkpt lat="43.73444" lon="1.93639">
        <ele>292.86</ele>
        <time>2020-02-16T10:37:25Z</time>
      </trkpt>
      <trkpt lat="43.73436" lon="1.93611">
        <ele>293.82</ele>
        <time>2020-02-16T10:37:43Z</time>
      </trkpt>
      <trkpt lat="43.73431" lon="1.93598">
        <ele>293.34</ele>
        <time>2020-02-16T10:37:52Z</time>
      </trkpt>
      <trkpt lat="43.73432" lon="1.93584">
        <ele>294.3</ele>
        <time>2020-02-16T10:38:02Z</time>
      </trkpt>
      <trkpt lat="43.73426" lon="1.93559">
        <ele>291.42</ele>
        <time>2020-02-16T10:38:19Z</time>
      </trkpt>
      <trkpt lat="43.73419" lon="1.9354">
        <ele>289.01</ele>
        <time>2020-02-16T10:38:33Z</time>
      </trkpt>
      <trkpt lat="43.73418" lon="1.93539">
        <ele>289.01</ele>
        <time>2020-02-16T10:38:34Z</time>
      </trkpt>
      <trkpt lat="43.73415" lon="1.93517">
        <ele>287.09</ele>
        <time>2020-02-16T10:38:50Z</time>
      </trkpt>
      <trkpt lat="43.73411" lon="1.93507">
        <ele>286.61</ele>
        <time>2020-02-16T10:39:02Z</time>
      </trkpt>
      <trkpt lat="43.73407" lon="1.93489">
        <ele>285.65</ele>
        <time>2020-02-16T10:39:15Z</time>
      </trkpt>
      <trkpt lat="43.73404" lon="1.9347">
        <ele>285.65</ele>
        <time>2020-02-16T10:39:27Z</time>
      </trkpt>
      <trkpt lat="43.73402" lon="1.93437">
        <ele>285.17</ele>
        <time>2020-02-16T10:39:46Z</time>
      </trkpt>
      <trkpt lat="43.73402" lon="1.93403">
        <ele>284.69</ele>
        <time>2020-02-16T10:40:07Z</time>
      </trkpt>
      <trkpt lat="43.73402" lon="1.9337">
        <ele>283.73</ele>
        <time>2020-02-16T10:40:26Z</time>
      </trkpt>
      <trkpt lat="43.73401" lon="1.93343">
        <ele>283.73</ele>
        <time>2020-02-16T10:40:42Z</time>
      </trkpt>
      <trkpt lat="43.73398" lon="1.93315">
        <ele>284.21</ele>
        <time>2020-02-16T10:40:59Z</time>
      </trkpt>
      <trkpt lat="43.73395" lon="1.93285">
        <ele>284.69</ele>
        <time>2020-02-16T10:41:18Z</time>
      </trkpt>
      <trkpt lat="43.73389" lon="1.93251">
        <ele>284.69</ele>
        <time>2020-02-16T10:41:39Z</time>
      </trkpt>
      <trkpt lat="43.7338" lon="1.93216">
        <ele>283.73</ele>
        <time>2020-02-16T10:42:00Z</time>
      </trkpt>
      <trkpt lat="43.73372" lon="1.93192">
        <ele>283.25</ele>
        <time>2020-02-16T10:42:17Z</time>
      </trkpt>
      <trkpt lat="43.7336" lon="1.93163">
        <ele>284.21</ele>
        <time>2020-02-16T10:42:37Z</time>
      </trkpt>
      <trkpt lat="43.73345" lon="1.93136">
        <ele>284.21</ele>
        <time>2020-02-16T10:42:56Z</time>
      </trkpt>
      <trkpt lat="43.73327" lon="1.93114">
        <ele>284.21</ele>
        <time>2020-02-16T10:43:15Z</time>
      </trkpt>
      <trkpt lat="43.73324" lon="1.93112">
        <ele>283.25</ele>
        <time>2020-02-16T10:43:18Z</time>
      </trkpt>
      <trkpt lat="43.73313" lon="1.93103">
        <ele>282.77</ele>
        <time>2020-02-16T10:43:30Z</time>
      </trkpt>
      <trkpt lat="43.73295" lon="1.93082">
        <ele>282.28</ele>
        <time>2020-02-16T10:43:49Z</time>
      </trkpt>
      <trkpt lat="43.73287" lon="1.93064">
        <ele>281.8</ele>
        <time>2020-02-16T10:44:01Z</time>
      </trkpt>
      <trkpt lat="43.73285" lon="1.93028">
        <ele>280.84</ele>
        <time>2020-02-16T10:44:24Z</time>
      </trkpt>
      <trkpt lat="43.73281" lon="1.93005">
        <ele>280.84</ele>
        <time>2020-02-16T10:44:37Z</time>
      </trkpt>
      <trkpt lat="43.73277" lon="1.9297">
        <ele>280.84</ele>
        <time>2020-02-16T10:44:59Z</time>
      </trkpt>
      <trkpt lat="43.73273" lon="1.92947">
        <ele>282.28</ele>
        <time>2020-02-16T10:45:13Z</time>
      </trkpt>
      <trkpt lat="43.73269" lon="1.9293">
        <ele>281.32</ele>
        <time>2020-02-16T10:45:23Z</time>
      </trkpt>
      <trkpt lat="43.73258" lon="1.92901">
        <ele>282.77</ele>
        <time>2020-02-16T10:45:43Z</time>
      </trkpt>
      <trkpt lat="43.73258" lon="1.92899">
        <ele>282.77</ele>
        <time>2020-02-16T10:45:44Z</time>
      </trkpt>
      <trkpt lat="43.73246" lon="1.9287">
        <ele>282.77</ele>
        <time>2020-02-16T10:46:03Z</time>
      </trkpt>
      <trkpt lat="43.73237" lon="1.92851">
        <ele>281.32</ele>
        <time>2020-02-16T10:46:19Z</time>
      </trkpt>
      <trkpt lat="43.73234" lon="1.92841">
        <ele>281.32</ele>
        <time>2020-02-16T10:46:28Z</time>
      </trkpt>
      <trkpt lat="43.73223" lon="1.92816">
        <ele>279.4</ele>
        <time>2020-02-16T10:46:46Z</time>
      </trkpt>
      <trkpt lat="43.73214" lon="1.92801">
        <ele>278.44</ele>
        <time>2020-02-16T10:46:59Z</time>
      </trkpt>
      <trkpt lat="43.73193" lon="1.92796">
        <ele>277</ele>
        <time>2020-02-16T10:47:16Z</time>
      </trkpt>
      <trkpt lat="43.73175" lon="1.92797">
        <ele>277</ele>
        <time>2020-02-16T10:47:34Z</time>
      </trkpt>
      <trkpt lat="43.73161" lon="1.92807">
        <ele>277.96</ele>
        <time>2020-02-16T10:47:51Z</time>
      </trkpt>
      <trkpt lat="43.73134" lon="1.9282">
        <ele>277.48</ele>
        <time>2020-02-16T10:48:11Z</time>
      </trkpt>
      <trkpt lat="43.73109" lon="1.92818">
        <ele>277.48</ele>
        <time>2020-02-16T10:48:30Z</time>
      </trkpt>
      <trkpt lat="43.73101" lon="1.92809">
        <ele>277.48</ele>
        <time>2020-02-16T10:48:42Z</time>
      </trkpt>
      <trkpt lat="43.73097" lon="1.92783">
        <ele>277.48</ele>
        <time>2020-02-16T10:49:01Z</time>
      </trkpt>
      <trkpt lat="43.73094" lon="1.92772">
        <ele>276.52</ele>
        <time>2020-02-16T10:49:14Z</time>
      </trkpt>
      <trkpt lat="43.73089" lon="1.92762">
        <ele>276.04</ele>
        <time>2020-02-16T10:49:30Z</time>
      </trkpt>
      <trkpt lat="43.73085" lon="1.92758">
        <ele>275.56</ele>
        <time>2020-02-16T10:49:36Z</time>
      </trkpt>
      <trkpt lat="43.73077" lon="1.92751">
        <ele>274.59</ele>
        <time>2020-02-16T10:49:45Z</time>
      </trkpt>
      <trkpt lat="43.73073" lon="1.92747">
        <ele>274.59</ele>
        <time>2020-02-16T10:49:49Z</time>
      </trkpt>
      <trkpt lat="43.73062" lon="1.92726">
        <ele>273.63</ele>
        <time>2020-02-16T10:50:06Z</time>
      </trkpt>
      <trkpt lat="43.73059" lon="1.92722">
        <ele>273.15</ele>
        <time>2020-02-16T10:50:09Z</time>
      </trkpt>
      <trkpt lat="43.73045" lon="1.92704">
        <ele>273.15</ele>
        <time>2020-02-16T10:50:25Z</time>
      </trkpt>
      <trkpt lat="43.73039" lon="1.92688">
        <ele>270.75</ele>
        <time>2020-02-16T10:50:38Z</time>
      </trkpt>
      <trkpt lat="43.73038" lon="1.92683">
        <ele>270.75</ele>
        <time>2020-02-16T10:50:41Z</time>
      </trkpt>
      <trkpt lat="43.73026" lon="1.92666">
        <ele>268.35</ele>
        <time>2020-02-16T10:50:54Z</time>
      </trkpt>
      <trkpt lat="43.73013" lon="1.92647">
        <ele>266.42</ele>
        <time>2020-02-16T10:51:09Z</time>
      </trkpt>
      <trkpt lat="43.73013" lon="1.92646">
        <ele>266.42</ele>
        <time>2020-02-16T10:51:10Z</time>
      </trkpt>
      <trkpt lat="43.73015" lon="1.9262">
        <ele>264.02</ele>
        <time>2020-02-16T10:51:28Z</time>
      </trkpt>
      <trkpt lat="43.73022" lon="1.92599">
        <ele>262.58</ele>
        <time>2020-02-16T10:51:44Z</time>
      </trkpt>
      <trkpt lat="43.73032" lon="1.92574">
        <ele>260.65</ele>
        <time>2020-02-16T10:52:01Z</time>
      </trkpt>
      <trkpt lat="43.73037" lon="1.9255">
        <ele>258.25</ele>
        <time>2020-02-16T10:52:16Z</time>
      </trkpt>
      <trkpt lat="43.73043" lon="1.92519">
        <ele>255.37</ele>
        <time>2020-02-16T10:52:34Z</time>
      </trkpt>
      <trkpt lat="43.73045" lon="1.92493">
        <ele>252.48</ele>
        <time>2020-02-16T10:52:52Z</time>
      </trkpt>
      <trkpt lat="43.73045" lon="1.92488">
        <ele>252</ele>
        <time>2020-02-16T10:52:55Z</time>
      </trkpt>
      <trkpt lat="43.73045" lon="1.92484">
        <ele>251.52</ele>
        <time>2020-02-16T10:52:58Z</time>
      </trkpt>
      <trkpt lat="43.73046" lon="1.92455">
        <ele>248.64</ele>
        <time>2020-02-16T10:53:17Z</time>
      </trkpt>
      <trkpt lat="43.73046" lon="1.92429">
        <ele>245.75</ele>
        <time>2020-02-16T10:53:34Z</time>
      </trkpt>
      <trkpt lat="43.73045" lon="1.92403">
        <ele>243.83</ele>
        <time>2020-02-16T10:53:50Z</time>
      </trkpt>
      <trkpt lat="43.73039" lon="1.92374">
        <ele>241.43</ele>
        <time>2020-02-16T10:54:06Z</time>
      </trkpt>
      <trkpt lat="43.73038" lon="1.92349">
        <ele>239.02</ele>
        <time>2020-02-16T10:54:21Z</time>
      </trkpt>
      <trkpt lat="43.73034" lon="1.9232">
        <ele>236.62</ele>
        <time>2020-02-16T10:54:38Z</time>
      </trkpt>
      <trkpt lat="43.73031" lon="1.92285">
        <ele>234.22</ele>
        <time>2020-02-16T10:54:58Z</time>
      </trkpt>
      <trkpt lat="43.73029" lon="1.92254">
        <ele>231.81</ele>
        <time>2020-02-16T10:55:17Z</time>
      </trkpt>
      <trkpt lat="43.73033" lon="1.92219">
        <ele>230.37</ele>
        <time>2020-02-16T10:55:37Z</time>
      </trkpt>
      <trkpt lat="43.73036" lon="1.92188">
        <ele>228.45</ele>
        <time>2020-02-16T10:55:55Z</time>
      </trkpt>
      <trkpt lat="43.73037" lon="1.92176">
        <ele>228.45</ele>
        <time>2020-02-16T10:56:02Z</time>
      </trkpt>
      <trkpt lat="43.73039" lon="1.92145">
        <ele>226.53</ele>
        <time>2020-02-16T10:56:21Z</time>
      </trkpt>
      <trkpt lat="43.7304" lon="1.92121">
        <ele>226.53</ele>
        <time>2020-02-16T10:56:37Z</time>
      </trkpt>
      <trkpt lat="43.7304" lon="1.92115">
        <ele>228.45</ele>
        <time>2020-02-16T10:56:41Z</time>
      </trkpt>
      <trkpt lat="43.73039" lon="1.92107">
        <ele>226.53</ele>
        <time>2020-02-16T10:56:45Z</time>
      </trkpt>
      <trkpt lat="43.73039" lon="1.92082">
        <ele>225.09</ele>
        <time>2020-02-16T10:56:59Z</time>
      </trkpt>
      <trkpt lat="43.73039" lon="1.92053">
        <ele>224.12</ele>
        <time>2020-02-16T10:57:16Z</time>
      </trkpt>
      <trkpt lat="43.73041" lon="1.92021">
        <ele>223.16</ele>
        <time>2020-02-16T10:57:34Z</time>
      </trkpt>
      <trkpt lat="43.73038" lon="1.91992">
        <ele>223.16</ele>
        <time>2020-02-16T10:57:51Z</time>
      </trkpt>
      <trkpt lat="43.7303" lon="1.91964">
        <ele>222.68</ele>
        <time>2020-02-16T10:58:08Z</time>
      </trkpt>
      <trkpt lat="43.73028" lon="1.91955">
        <ele>224.12</ele>
        <time>2020-02-16T10:58:13Z</time>
      </trkpt>
      <trkpt lat="43.73021" lon="1.91928">
        <ele>221.72</ele>
        <time>2020-02-16T10:58:29Z</time>
      </trkpt>
      <trkpt lat="43.73015" lon="1.91907">
        <ele>221.24</ele>
        <time>2020-02-16T10:58:45Z</time>
      </trkpt>
      <trkpt lat="43.73007" lon="1.9188">
        <ele>221.24</ele>
        <time>2020-02-16T10:59:02Z</time>
      </trkpt>
      <trkpt lat="43.72998" lon="1.91853">
        <ele>222.68</ele>
        <time>2020-02-16T10:59:20Z</time>
      </trkpt>
      <trkpt lat="43.72994" lon="1.91835">
        <ele>221.72</ele>
        <time>2020-02-16T10:59:31Z</time>
      </trkpt>
      <trkpt lat="43.72991" lon="1.91824">
        <ele>224.12</ele>
        <time>2020-02-16T10:59:38Z</time>
      </trkpt>
      <trkpt lat="43.72984" lon="1.91798">
        <ele>224.12</ele>
        <time>2020-02-16T10:59:54Z</time>
      </trkpt>
      <trkpt lat="43.72983" lon="1.91772">
        <ele>224.61</ele>
        <time>2020-02-16T11:00:10Z</time>
      </trkpt>
      <trkpt lat="43.72982" lon="1.91744">
        <ele>225.09</ele>
        <time>2020-02-16T11:00:27Z</time>
      </trkpt>
      <trkpt lat="43.72987" lon="1.91717">
        <ele>226.53</ele>
        <time>2020-02-16T11:00:44Z</time>
      </trkpt>
      <trkpt lat="43.72989" lon="1.91691">
        <ele>227.01</ele>
        <time>2020-02-16T11:00:59Z</time>
      </trkpt>
      <trkpt lat="43.72989" lon="1.91685">
        <ele>227.49</ele>
        <time>2020-02-16T11:01:03Z</time>
      </trkpt>
      <trkpt lat="43.72988" lon="1.91675">
        <ele>227.49</ele>
        <time>2020-02-16T11:01:09Z</time>
      </trkpt>
      <trkpt lat="43.72993" lon="1.91648">
        <ele>228.45</ele>
        <time>2020-02-16T11:01:26Z</time>
      </trkpt>
      <trkpt lat="43.73002" lon="1.91627">
        <ele>228.45</ele>
        <time>2020-02-16T11:01:41Z</time>
      </trkpt>
      <trkpt lat="43.73012" lon="1.91606">
        <ele>229.41</ele>
        <time>2020-02-16T11:01:58Z</time>
      </trkpt>
      <trkpt lat="43.73024" lon="1.9158">
        <ele>229.89</ele>
        <time>2020-02-16T11:02:17Z</time>
      </trkpt>
      <trkpt lat="43.73033" lon="1.91556">
        <ele>231.33</ele>
        <time>2020-02-16T11:02:34Z</time>
      </trkpt>
      <trkpt lat="43.73041" lon="1.91528">
        <ele>232.78</ele>
        <time>2020-02-16T11:02:52Z</time>
      </trkpt>
      <trkpt lat="43.73048" lon="1.91501">
        <ele>234.22</ele>
        <time>2020-02-16T11:03:10Z</time>
      </trkpt>
      <trkpt lat="43.73045" lon="1.91476">
        <ele>235.18</ele>
        <time>2020-02-16T11:03:26Z</time>
      </trkpt>
      <trkpt lat="43.73042" lon="1.91461">
        <ele>236.14</ele>
        <time>2020-02-16T11:03:36Z</time>
      </trkpt>
      <trkpt lat="43.7304" lon="1.91434">
        <ele>238.54</ele>
        <time>2020-02-16T11:03:56Z</time>
      </trkpt>
      <trkpt lat="43.73041" lon="1.91411">
        <ele>240.47</ele>
        <time>2020-02-16T11:04:15Z</time>
      </trkpt>
      <trkpt lat="43.73048" lon="1.91392">
        <ele>242.87</ele>
        <time>2020-02-16T11:04:31Z</time>
      </trkpt>
      <trkpt lat="43.73045" lon="1.91386">
        <ele>243.35</ele>
        <time>2020-02-16T11:04:49Z</time>
      </trkpt>
      <trkpt lat="43.73045" lon="1.91384">
        <ele>243.83</ele>
        <time>2020-02-16T11:05:11Z</time>
      </trkpt>
      <trkpt lat="43.73044" lon="1.91384">
        <ele>243.83</ele>
        <time>2020-02-16T11:05:31Z</time>
      </trkpt>
      <trkpt lat="43.73045" lon="1.91384">
        <ele>243.83</ele>
        <time>2020-02-16T11:05:55Z</time>
      </trkpt>
      <trkpt lat="43.73046" lon="1.91385">
        <ele>244.31</ele>
        <time>2020-02-16T11:06:21Z</time>
      </trkpt>
      <trkpt lat="43.73046" lon="1.91386">
        <ele>242.87</ele>
        <time>2020-02-16T11:06:23Z</time>
      </trkpt>
      <trkpt lat="43.73046" lon="1.91385">
        <ele>242.87</ele>
        <time>2020-02-16T11:06:46Z</time>
      </trkpt>
      <trkpt lat="43.73043" lon="1.91374">
        <ele>244.31</ele>
        <time>2020-02-16T11:07:01Z</time>
      </trkpt>
      <trkpt lat="43.7304" lon="1.91379">
        <ele>246.23</ele>
        <time>2020-02-16T11:07:16Z</time>
      </trkpt>
      <trkpt lat="43.73041" lon="1.91377">
        <ele>244.79</ele>
        <time>2020-02-16T11:07:30Z</time>
      </trkpt>
      <trkpt lat="43.7304" lon="1.91375">
        <ele>244.79</ele>
        <time>2020-02-16T11:07:49Z</time>
      </trkpt>
      <trkpt lat="43.73038" lon="1.91378">
        <ele>244.79</ele>
        <time>2020-02-16T11:07:54Z</time>
      </trkpt>
      <trkpt lat="43.7303" lon="1.91391">
        <ele>244.79</ele>
        <time>2020-02-16T11:08:05Z</time>
      </trkpt>
      <trkpt lat="43.73028" lon="1.91395">
        <ele>246.23</ele>
        <time>2020-02-16T11:08:08Z</time>
      </trkpt>
      <trkpt lat="43.73023" lon="1.91403">
        <ele>246.23</ele>
        <time>2020-02-16T11:08:14Z</time>
      </trkpt>
      <trkpt lat="43.73011" lon="1.91422">
        <ele>247.68</ele>
        <time>2020-02-16T11:08:30Z</time>
      </trkpt>
      <trkpt lat="43.73005" lon="1.91431">
        <ele>247.68</ele>
        <time>2020-02-16T11:08:38Z</time>
      </trkpt>
      <trkpt lat="43.73003" lon="1.91434">
        <ele>246.72</ele>
        <time>2020-02-16T11:08:40Z</time>
      </trkpt>
      <trkpt lat="43.72998" lon="1.91441">
        <ele>249.12</ele>
        <time>2020-02-16T11:08:47Z</time>
      </trkpt>
      <trkpt lat="43.72985" lon="1.9146">
        <ele>249.12</ele>
        <time>2020-02-16T11:09:03Z</time>
      </trkpt>
      <trkpt lat="43.72971" lon="1.91479">
        <ele>250.56</ele>
        <time>2020-02-16T11:09:19Z</time>
      </trkpt>
      <trkpt lat="43.72951" lon="1.91487">
        <ele>252.48</ele>
        <time>2020-02-16T11:09:39Z</time>
      </trkpt>
      <trkpt lat="43.72931" lon="1.91492">
        <ele>255.37</ele>
        <time>2020-02-16T11:09:58Z</time>
      </trkpt>
      <trkpt lat="43.72912" lon="1.91498">
        <ele>256.81</ele>
        <time>2020-02-16T11:10:16Z</time>
      </trkpt>
      <trkpt lat="43.72893" lon="1.91505">
        <ele>257.29</ele>
        <time>2020-02-16T11:10:33Z</time>
      </trkpt>
      <trkpt lat="43.72875" lon="1.91514">
        <ele>257.77</ele>
        <time>2020-02-16T11:10:50Z</time>
      </trkpt>
      <trkpt lat="43.72868" lon="1.91516">
        <ele>256.33</ele>
        <time>2020-02-16T11:10:57Z</time>
      </trkpt>
      <trkpt lat="43.72849" lon="1.91519">
        <ele>255.37</ele>
        <time>2020-02-16T11:11:14Z</time>
      </trkpt>
      <trkpt lat="43.72828" lon="1.91519">
        <ele>256.81</ele>
        <time>2020-02-16T11:11:32Z</time>
      </trkpt>
      <trkpt lat="43.7281" lon="1.91516">
        <ele>255.85</ele>
        <time>2020-02-16T11:11:49Z</time>
      </trkpt>
      <trkpt lat="43.72798" lon="1.91515">
        <ele>255.37</ele>
        <time>2020-02-16T11:12:00Z</time>
      </trkpt>
      <trkpt lat="43.72791" lon="1.91517">
        <ele>254.89</ele>
        <time>2020-02-16T11:12:06Z</time>
      </trkpt>
      <trkpt lat="43.72781" lon="1.91518">
        <ele>254.41</ele>
        <time>2020-02-16T11:12:13Z</time>
      </trkpt>
      <trkpt lat="43.7276" lon="1.9153">
        <ele>252.96</ele>
        <time>2020-02-16T11:12:30Z</time>
      </trkpt>
      <trkpt lat="43.72745" lon="1.91543">
        <ele>251.52</ele>
        <time>2020-02-16T11:12:45Z</time>
      </trkpt>
      <trkpt lat="43.72727" lon="1.91551">
        <ele>249.6</ele>
        <time>2020-02-16T11:13:02Z</time>
      </trkpt>
      <trkpt lat="43.72723" lon="1.91545">
        <ele>251.04</ele>
        <time>2020-02-16T11:13:09Z</time>
      </trkpt>
      <trkpt lat="43.72715" lon="1.91527">
        <ele>251.52</ele>
        <time>2020-02-16T11:13:24Z</time>
      </trkpt>
      <trkpt lat="43.72712" lon="1.915">
        <ele>253.44</ele>
        <time>2020-02-16T11:13:42Z</time>
      </trkpt>
      <trkpt lat="43.72711" lon="1.9148">
        <ele>254.41</ele>
        <time>2020-02-16T11:13:54Z</time>
      </trkpt>
      <trkpt lat="43.72714" lon="1.91462">
        <ele>254.89</ele>
        <time>2020-02-16T11:14:08Z</time>
      </trkpt>
      <trkpt lat="43.72713" lon="1.91452">
        <ele>255.85</ele>
        <time>2020-02-16T11:14:15Z</time>
      </trkpt>
      <trkpt lat="43.7271" lon="1.91433">
        <ele>256.81</ele>
        <time>2020-02-16T11:14:30Z</time>
      </trkpt>
      <trkpt lat="43.72708" lon="1.91411">
        <ele>258.25</ele>
        <time>2020-02-16T11:14:45Z</time>
      </trkpt>
      <trkpt lat="43.72708" lon="1.914">
        <ele>258.25</ele>
        <time>2020-02-16T11:14:58Z</time>
      </trkpt>
      <trkpt lat="43.72709" lon="1.91372">
        <ele>259.21</ele>
        <time>2020-02-16T11:15:16Z</time>
      </trkpt>
      <trkpt lat="43.72709" lon="1.91368">
        <ele>259.69</ele>
        <time>2020-02-16T11:15:19Z</time>
      </trkpt>
      <trkpt lat="43.72709" lon="1.91361">
        <ele>259.69</ele>
        <time>2020-02-16T11:15:24Z</time>
      </trkpt>
      <trkpt lat="43.72709" lon="1.91331">
        <ele>261.14</ele>
        <time>2020-02-16T11:15:43Z</time>
      </trkpt>
      <trkpt lat="43.72711" lon="1.91307">
        <ele>260.17</ele>
        <time>2020-02-16T11:16:00Z</time>
      </trkpt>
      <trkpt lat="43.72711" lon="1.91306">
        <ele>260.17</ele>
        <time>2020-02-16T11:16:01Z</time>
      </trkpt>
      <trkpt lat="43.72711" lon="1.91302">
        <ele>261.62</ele>
        <time>2020-02-16T11:16:04Z</time>
      </trkpt>
      <trkpt lat="43.7271" lon="1.91291">
        <ele>261.62</ele>
        <time>2020-02-16T11:16:13Z</time>
      </trkpt>
      <trkpt lat="43.72711" lon="1.91288">
        <ele>263.06</ele>
        <time>2020-02-16T11:16:15Z</time>
      </trkpt>
      <trkpt lat="43.72713" lon="1.91273">
        <ele>263.54</ele>
        <time>2020-02-16T11:16:25Z</time>
      </trkpt>
      <trkpt lat="43.72715" lon="1.91248">
        <ele>264.98</ele>
        <time>2020-02-16T11:16:42Z</time>
      </trkpt>
      <trkpt lat="43.72717" lon="1.91234">
        <ele>266.42</ele>
        <time>2020-02-16T11:16:52Z</time>
      </trkpt>
      <trkpt lat="43.72719" lon="1.91228">
        <ele>266.42</ele>
        <time>2020-02-16T11:16:57Z</time>
      </trkpt>
      <trkpt lat="43.7271" lon="1.91208">
        <ele>267.38</ele>
        <time>2020-02-16T11:17:14Z</time>
      </trkpt>
      <trkpt lat="43.72697" lon="1.91193">
        <ele>267.38</ele>
        <time>2020-02-16T11:17:28Z</time>
      </trkpt>
      <trkpt lat="43.7269" lon="1.9119">
        <ele>267.38</ele>
        <time>2020-02-16T11:17:32Z</time>
      </trkpt>
      <trkpt lat="43.72671" lon="1.91185">
        <ele>268.35</ele>
        <time>2020-02-16T11:17:44Z</time>
      </trkpt>
      <trkpt lat="43.72663" lon="1.91186">
        <ele>268.35</ele>
        <time>2020-02-16T11:17:51Z</time>
      </trkpt>
      <trkpt lat="43.72644" lon="1.91177">
        <ele>268.83</ele>
        <time>2020-02-16T11:18:08Z</time>
      </trkpt>
      <trkpt lat="43.72629" lon="1.91171">
        <ele>268.83</ele>
        <time>2020-02-16T11:18:24Z</time>
      </trkpt>
      <trkpt lat="43.7261" lon="1.91177">
        <ele>268.83</ele>
        <time>2020-02-16T11:18:40Z</time>
      </trkpt>
      <trkpt lat="43.72595" lon="1.91183">
        <ele>270.27</ele>
        <time>2020-02-16T11:18:55Z</time>
      </trkpt>
      <trkpt lat="43.72578" lon="1.91195">
        <ele>270.27</ele>
        <time>2020-02-16T11:19:12Z</time>
      </trkpt>
      <trkpt lat="43.72574" lon="1.91199">
        <ele>270.27</ele>
        <time>2020-02-16T11:19:16Z</time>
      </trkpt>
      <trkpt lat="43.72564" lon="1.91212">
        <ele>271.23</ele>
        <time>2020-02-16T11:19:28Z</time>
      </trkpt>
      <trkpt lat="43.7255" lon="1.91225">
        <ele>271.71</ele>
        <time>2020-02-16T11:19:42Z</time>
      </trkpt>
      <trkpt lat="43.72536" lon="1.9124">
        <ele>272.19</ele>
        <time>2020-02-16T11:19:57Z</time>
      </trkpt>
      <trkpt lat="43.72525" lon="1.91257">
        <ele>272.67</ele>
        <time>2020-02-16T11:20:13Z</time>
      </trkpt>
      <trkpt lat="43.72508" lon="1.91272">
        <ele>273.63</ele>
        <time>2020-02-16T11:20:30Z</time>
      </trkpt>
      <trkpt lat="43.72493" lon="1.91288">
        <ele>274.59</ele>
        <time>2020-02-16T11:20:47Z</time>
      </trkpt>
      <trkpt lat="43.72478" lon="1.91298">
        <ele>276.04</ele>
        <time>2020-02-16T11:21:03Z</time>
      </trkpt>
      <trkpt lat="43.72472" lon="1.91301">
        <ele>276.52</ele>
        <time>2020-02-16T11:21:14Z</time>
      </trkpt>
      <trkpt lat="43.72473" lon="1.91303">
        <ele>275.07</ele>
        <time>2020-02-16T11:21:16Z</time>
      </trkpt>
      <trkpt lat="43.72472" lon="1.91301">
        <ele>276.52</ele>
        <time>2020-02-16T11:21:24Z</time>
      </trkpt>
      <trkpt lat="43.72465" lon="1.91298">
        <ele>276.52</ele>
        <time>2020-02-16T11:21:38Z</time>
      </trkpt>
      <trkpt lat="43.72464" lon="1.91296">
        <ele>276.52</ele>
        <time>2020-02-16T11:21:40Z</time>
      </trkpt>
      <trkpt lat="43.72458" lon="1.91278">
        <ele>274.59</ele>
        <time>2020-02-16T11:21:54Z</time>
      </trkpt>
      <trkpt lat="43.72459" lon="1.91275">
        <ele>274.59</ele>
        <time>2020-02-16T11:21:57Z</time>
      </trkpt>
      <trkpt lat="43.7247" lon="1.91245">
        <ele>273.63</ele>
        <time>2020-02-16T11:22:17Z</time>
      </trkpt>
      <trkpt lat="43.72475" lon="1.91231">
        <ele>273.63</ele>
        <time>2020-02-16T11:22:27Z</time>
      </trkpt>
      <trkpt lat="43.72476" lon="1.91228">
        <ele>273.63</ele>
        <time>2020-02-16T11:22:29Z</time>
      </trkpt>
      <trkpt lat="43.72476" lon="1.91206">
        <ele>273.15</ele>
        <time>2020-02-16T11:22:43Z</time>
      </trkpt>
      <trkpt lat="43.72476" lon="1.91205">
        <ele>273.15</ele>
        <time>2020-02-16T11:22:44Z</time>
      </trkpt>
      <trkpt lat="43.72483" lon="1.91177">
        <ele>272.19</ele>
        <time>2020-02-16T11:23:01Z</time>
      </trkpt>
      <trkpt lat="43.72487" lon="1.91164">
        <ele>271.71</ele>
        <time>2020-02-16T11:23:10Z</time>
      </trkpt>
      <trkpt lat="43.72492" lon="1.91149">
        <ele>270.75</ele>
        <time>2020-02-16T11:23:24Z</time>
      </trkpt>
      <trkpt lat="43.72495" lon="1.91147">
        <ele>270.75</ele>
        <time>2020-02-16T11:23:40Z</time>
      </trkpt>
      <trkpt lat="43.72495" lon="1.91148">
        <ele>270.75</ele>
        <time>2020-02-16T11:23:58Z</time>
      </trkpt>
      <trkpt lat="43.72496" lon="1.91145">
        <ele>270.75</ele>
        <time>2020-02-16T11:24:12Z</time>
      </trkpt>
      <trkpt lat="43.725" lon="1.91134">
        <ele>270.27</ele>
        <time>2020-02-16T11:24:25Z</time>
      </trkpt>
      <trkpt lat="43.72507" lon="1.91109">
        <ele>269.79</ele>
        <time>2020-02-16T11:24:42Z</time>
      </trkpt>
      <trkpt lat="43.7251" lon="1.91095">
        <ele>269.79</ele>
        <time>2020-02-16T11:24:51Z</time>
      </trkpt>
      <trkpt lat="43.72512" lon="1.91084">
        <ele>269.79</ele>
        <time>2020-02-16T11:24:58Z</time>
      </trkpt>
      <trkpt lat="43.7251" lon="1.91068">
        <ele>269.79</ele>
        <time>2020-02-16T11:25:08Z</time>
      </trkpt>
      <trkpt lat="43.72511" lon="1.91063">
        <ele>269.79</ele>
        <time>2020-02-16T11:25:11Z</time>
      </trkpt>
      <trkpt lat="43.72506" lon="1.91039">
        <ele>269.79</ele>
        <time>2020-02-16T11:25:28Z</time>
      </trkpt>
      <trkpt lat="43.72501" lon="1.91029">
        <ele>269.79</ele>
        <time>2020-02-16T11:25:36Z</time>
      </trkpt>
      <trkpt lat="43.72486" lon="1.91004">
        <ele>269.79</ele>
        <time>2020-02-16T11:25:55Z</time>
      </trkpt>
      <trkpt lat="43.72484" lon="1.91">
        <ele>269.79</ele>
        <time>2020-02-16T11:25:58Z</time>
      </trkpt>
      <trkpt lat="43.72482" lon="1.90997">
        <ele>269.79</ele>
        <time>2020-02-16T11:26:03Z</time>
      </trkpt>
      <trkpt lat="43.72483" lon="1.90965">
        <ele>269.31</ele>
        <time>2020-02-16T11:26:23Z</time>
      </trkpt>
      <trkpt lat="43.72495" lon="1.90943">
        <ele>270.27</ele>
        <time>2020-02-16T11:26:40Z</time>
      </trkpt>
      <trkpt lat="43.72495" lon="1.90942">
        <ele>270.27</ele>
        <time>2020-02-16T11:26:41Z</time>
      </trkpt>
      <trkpt lat="43.72511" lon="1.9093">
        <ele>270.27</ele>
        <time>2020-02-16T11:26:58Z</time>
      </trkpt>
      <trkpt lat="43.72534" lon="1.9093">
        <ele>270.27</ele>
        <time>2020-02-16T11:27:19Z</time>
      </trkpt>
      <trkpt lat="43.72556" lon="1.90935">
        <ele>270.75</ele>
        <time>2020-02-16T11:27:39Z</time>
      </trkpt>
      <trkpt lat="43.72571" lon="1.90941">
        <ele>270.75</ele>
        <time>2020-02-16T11:27:54Z</time>
      </trkpt>
      <trkpt lat="43.72584" lon="1.90942">
        <ele>271.23</ele>
        <time>2020-02-16T11:28:06Z</time>
      </trkpt>
      <trkpt lat="43.72603" lon="1.90939">
        <ele>271.23</ele>
        <time>2020-02-16T11:28:23Z</time>
      </trkpt>
      <trkpt lat="43.72608" lon="1.90936">
        <ele>271.23</ele>
        <time>2020-02-16T11:28:28Z</time>
      </trkpt>
      <trkpt lat="43.7262" lon="1.9092">
        <ele>270.27</ele>
        <time>2020-02-16T11:28:43Z</time>
      </trkpt>
      <trkpt lat="43.72637" lon="1.90894">
        <ele>269.31</ele>
        <time>2020-02-16T11:29:05Z</time>
      </trkpt>
      <trkpt lat="43.72646" lon="1.90871">
        <ele>269.31</ele>
        <time>2020-02-16T11:29:22Z</time>
      </trkpt>
      <trkpt lat="43.72652" lon="1.90857">
        <ele>268.35</ele>
        <time>2020-02-16T11:29:32Z</time>
      </trkpt>
      <trkpt lat="43.72662" lon="1.90838">
        <ele>267.86</ele>
        <time>2020-02-16T11:29:49Z</time>
      </trkpt>
      <trkpt lat="43.72678" lon="1.90813">
        <ele>266.9</ele>
        <time>2020-02-16T11:30:10Z</time>
      </trkpt>
      <trkpt lat="43.72685" lon="1.9079">
        <ele>266.9</ele>
        <time>2020-02-16T11:30:25Z</time>
      </trkpt>
      <trkpt lat="43.72688" lon="1.90767">
        <ele>266.9</ele>
        <time>2020-02-16T11:30:40Z</time>
      </trkpt>
      <trkpt lat="43.72688" lon="1.90741">
        <ele>267.86</ele>
        <time>2020-02-16T11:30:57Z</time>
      </trkpt>
      <trkpt lat="43.72694" lon="1.90722">
        <ele>267.86</ele>
        <time>2020-02-16T11:31:12Z</time>
      </trkpt>
      <trkpt lat="43.72699" lon="1.90711">
        <ele>267.86</ele>
        <time>2020-02-16T11:31:20Z</time>
      </trkpt>
      <trkpt lat="43.72707" lon="1.90699">
        <ele>267.86</ele>
        <time>2020-02-16T11:31:31Z</time>
      </trkpt>
      <trkpt lat="43.72719" lon="1.90679">
        <ele>268.35</ele>
        <time>2020-02-16T11:31:47Z</time>
      </trkpt>
      <trkpt lat="43.72737" lon="1.90659">
        <ele>268.35</ele>
        <time>2020-02-16T11:32:08Z</time>
      </trkpt>
      <trkpt lat="43.72755" lon="1.90652">
        <ele>268.35</ele>
        <time>2020-02-16T11:32:25Z</time>
      </trkpt>
      <trkpt lat="43.72772" lon="1.90643">
        <ele>268.35</ele>
        <time>2020-02-16T11:32:42Z</time>
      </trkpt>
      <trkpt lat="43.72789" lon="1.90631">
        <ele>267.38</ele>
        <time>2020-02-16T11:32:58Z</time>
      </trkpt>
      <trkpt lat="43.72806" lon="1.90618">
        <ele>266.42</ele>
        <time>2020-02-16T11:33:15Z</time>
      </trkpt>
      <trkpt lat="43.72822" lon="1.90599">
        <ele>264.98</ele>
        <time>2020-02-16T11:33:33Z</time>
      </trkpt>
      <trkpt lat="43.72832" lon="1.90573">
        <ele>264.02</ele>
        <time>2020-02-16T11:33:51Z</time>
      </trkpt>
      <trkpt lat="43.72841" lon="1.90552">
        <ele>263.06</ele>
        <time>2020-02-16T11:34:07Z</time>
      </trkpt>
      <trkpt lat="43.72852" lon="1.90524">
        <ele>262.58</ele>
        <time>2020-02-16T11:34:27Z</time>
      </trkpt>
      <trkpt lat="43.72863" lon="1.90496">
        <ele>261.14</ele>
        <time>2020-02-16T11:34:46Z</time>
      </trkpt>
      <trkpt lat="43.72868" lon="1.90473">
        <ele>261.14</ele>
        <time>2020-02-16T11:35:01Z</time>
      </trkpt>
      <trkpt lat="43.72876" lon="1.90442">
        <ele>260.65</ele>
        <time>2020-02-16T11:35:20Z</time>
      </trkpt>
      <trkpt lat="43.72885" lon="1.9042">
        <ele>260.17</ele>
        <time>2020-02-16T11:35:36Z</time>
      </trkpt>
      <trkpt lat="43.72896" lon="1.90404">
        <ele>260.17</ele>
        <time>2020-02-16T11:35:50Z</time>
      </trkpt>
      <trkpt lat="43.72909" lon="1.90388">
        <ele>259.69</ele>
        <time>2020-02-16T11:36:05Z</time>
      </trkpt>
      <trkpt lat="43.72926" lon="1.90378">
        <ele>259.69</ele>
        <time>2020-02-16T11:36:26Z</time>
      </trkpt>
      <trkpt lat="43.7293" lon="1.90382">
        <ele>260.65</ele>
        <time>2020-02-16T11:36:31Z</time>
      </trkpt>
      <trkpt lat="43.72939" lon="1.90399">
        <ele>263.06</ele>
        <time>2020-02-16T11:36:49Z</time>
      </trkpt>
      <trkpt lat="43.72943" lon="1.90408">
        <ele>266.42</ele>
        <time>2020-02-16T11:37:02Z</time>
      </trkpt>
      <trkpt lat="43.72944" lon="1.90414">
        <ele>266.9</ele>
        <time>2020-02-16T11:37:15Z</time>
      </trkpt>
      <trkpt lat="43.72943" lon="1.90415">
        <ele>265.46</ele>
        <time>2020-02-16T11:37:17Z</time>
      </trkpt>
      <trkpt lat="43.72944" lon="1.90412">
        <ele>264.5</ele>
        <time>2020-02-16T11:37:28Z</time>
      </trkpt>
      <trkpt lat="43.72946" lon="1.90409">
        <ele>264.5</ele>
        <time>2020-02-16T11:37:38Z</time>
      </trkpt>
      <trkpt lat="43.72949" lon="1.9041">
        <ele>264.5</ele>
        <time>2020-02-16T11:37:46Z</time>
      </trkpt>
      <trkpt lat="43.72954" lon="1.90408">
        <ele>264.5</ele>
        <time>2020-02-16T11:37:50Z</time>
      </trkpt>
      <trkpt lat="43.72972" lon="1.90414">
        <ele>265.94</ele>
        <time>2020-02-16T11:38:06Z</time>
      </trkpt>
      <trkpt lat="43.72974" lon="1.9041">
        <ele>264.02</ele>
        <time>2020-02-16T11:38:13Z</time>
      </trkpt>
      <trkpt lat="43.72979" lon="1.90408">
        <ele>263.54</ele>
        <time>2020-02-16T11:38:26Z</time>
      </trkpt>
      <trkpt lat="43.72977" lon="1.90405">
        <ele>263.54</ele>
        <time>2020-02-16T11:38:36Z</time>
      </trkpt>
      <trkpt lat="43.72973" lon="1.90404">
        <ele>264.98</ele>
        <time>2020-02-16T11:38:42Z</time>
      </trkpt>
      <trkpt lat="43.7297" lon="1.90405">
        <ele>264.98</ele>
        <time>2020-02-16T11:38:58Z</time>
      </trkpt>
      <trkpt lat="43.72969" lon="1.90406">
        <ele>264.98</ele>
        <time>2020-02-16T11:39:17Z</time>
      </trkpt>
      <trkpt lat="43.72969" lon="1.90407">
        <ele>264.98</ele>
        <time>2020-02-16T11:39:30Z</time>
      </trkpt>
      <trkpt lat="43.72969" lon="1.90407">
        <ele>264.98</ele>
        <time>2020-02-16T11:39:44Z</time>
      </trkpt>
      <trkpt lat="43.7297" lon="1.90406">
        <ele>264.98</ele>
        <time>2020-02-16T11:40:01Z</time>
      </trkpt>
      <trkpt lat="43.72975" lon="1.90413">
        <ele>264.98</ele>
        <time>2020-02-16T11:40:17Z</time>
      </trkpt>
      <trkpt lat="43.72971" lon="1.90422">
        <ele>266.42</ele>
        <time>2020-02-16T11:40:30Z</time>
      </trkpt>
      <trkpt lat="43.72973" lon="1.90425">
        <ele>265.46</ele>
        <time>2020-02-16T11:40:54Z</time>
      </trkpt>
      <trkpt lat="43.72975" lon="1.90417">
        <ele>264.98</ele>
        <time>2020-02-16T11:41:02Z</time>
      </trkpt>
      <trkpt lat="43.72983" lon="1.904">
        <ele>263.54</ele>
        <time>2020-02-16T11:41:16Z</time>
      </trkpt>
      <trkpt lat="43.72983" lon="1.90399">
        <ele>263.54</ele>
        <time>2020-02-16T11:41:21Z</time>
      </trkpt>
      <trkpt lat="43.72976" lon="1.90401">
        <ele>264.5</ele>
        <time>2020-02-16T11:41:28Z</time>
      </trkpt>
      <trkpt lat="43.72968" lon="1.90401">
        <ele>264.98</ele>
        <time>2020-02-16T11:41:42Z</time>
      </trkpt>
      <trkpt lat="43.7296" lon="1.90401">
        <ele>265.46</ele>
        <time>2020-02-16T11:41:49Z</time>
      </trkpt>
      <trkpt lat="43.72955" lon="1.90402">
        <ele>267.38</ele>
        <time>2020-02-16T11:41:53Z</time>
      </trkpt>
      <trkpt lat="43.7295" lon="1.90405">
        <ele>267.38</ele>
        <time>2020-02-16T11:41:59Z</time>
      </trkpt>
      <trkpt lat="43.72947" lon="1.90408">
        <ele>265.94</ele>
        <time>2020-02-16T11:42:02Z</time>
      </trkpt>
      <trkpt lat="43.72946" lon="1.90412">
        <ele>266.9</ele>
        <time>2020-02-16T11:42:11Z</time>
      </trkpt>
      <trkpt lat="43.72947" lon="1.90413">
        <ele>265.46</ele>
        <time>2020-02-16T11:42:19Z</time>
      </trkpt>
      <trkpt lat="43.72946" lon="1.90412">
        <ele>265.94</ele>
        <time>2020-02-16T11:42:25Z</time>
      </trkpt>
      <trkpt lat="43.72947" lon="1.90411">
        <ele>265.94</ele>
        <time>2020-02-16T11:42:27Z</time>
      </trkpt>
      <trkpt lat="43.72948" lon="1.90408">
        <ele>265.94</ele>
        <time>2020-02-16T11:42:29Z</time>
      </trkpt>
      <trkpt lat="43.72951" lon="1.90404">
        <ele>267.86</ele>
        <time>2020-02-16T11:42:34Z</time>
      </trkpt>
      <trkpt lat="43.7296" lon="1.90403">
        <ele>266.9</ele>
        <time>2020-02-16T11:42:42Z</time>
      </trkpt>
      <trkpt lat="43.72968" lon="1.90403">
        <ele>265.94</ele>
        <time>2020-02-16T11:42:57Z</time>
      </trkpt>
      <trkpt lat="43.72967" lon="1.90403">
        <ele>265.46</ele>
        <time>2020-02-16T11:43:21Z</time>
      </trkpt>
      <trkpt lat="43.72967" lon="1.90404">
        <ele>266.42</ele>
        <time>2020-02-16T11:43:47Z</time>
      </trkpt>
      <trkpt lat="43.72967" lon="1.90402">
        <ele>265.46</ele>
        <time>2020-02-16T11:44:17Z</time>
      </trkpt>
      <trkpt lat="43.72969" lon="1.90403">
        <ele>265.46</ele>
        <time>2020-02-16T11:44:48Z</time>
      </trkpt>
      <trkpt lat="43.7297" lon="1.90403">
        <ele>265.46</ele>
        <time>2020-02-16T11:45:22Z</time>
      </trkpt>
      <trkpt lat="43.7297" lon="1.90399">
        <ele>265.46</ele>
        <time>2020-02-16T11:45:55Z</time>
      </trkpt>
      <trkpt lat="43.7297" lon="1.90402">
        <ele>265.46</ele>
        <time>2020-02-16T11:46:30Z</time>
      </trkpt>
      <trkpt lat="43.72972" lon="1.90403">
        <ele>265.46</ele>
        <time>2020-02-16T11:47:00Z</time>
      </trkpt>
      <trkpt lat="43.72972" lon="1.90401">
        <ele>266.9</ele>
        <time>2020-02-16T11:47:20Z</time>
      </trkpt>
      <trkpt lat="43.72971" lon="1.90406">
        <ele>265.94</ele>
        <time>2020-02-16T11:47:36Z</time>
      </trkpt>
      <trkpt lat="43.7297" lon="1.90403">
        <ele>265.46</ele>
        <time>2020-02-16T11:48:05Z</time>
      </trkpt>
      <trkpt lat="43.72969" lon="1.90404">
        <ele>265.46</ele>
        <time>2020-02-16T11:48:33Z</time>
      </trkpt>
      <trkpt lat="43.7297" lon="1.90401">
        <ele>265.46</ele>
        <time>2020-02-16T11:48:59Z</time>
      </trkpt>
      <trkpt lat="43.72968" lon="1.90407">
        <ele>265.46</ele>
        <time>2020-02-16T11:49:28Z</time>
      </trkpt>
      <trkpt lat="43.72967" lon="1.90403">
        <ele>265.46</ele>
        <time>2020-02-16T11:49:53Z</time>
      </trkpt>
      <trkpt lat="43.72964" lon="1.904">
        <ele>265.46</ele>
        <time>2020-02-16T11:50:17Z</time>
      </trkpt>
      <trkpt lat="43.72973" lon="1.90398">
        <ele>265.94</ele>
        <time>2020-02-16T11:50:42Z</time>
      </trkpt>
      <trkpt lat="43.72965" lon="1.90398">
        <ele>265.94</ele>
        <time>2020-02-16T11:51:05Z</time>
      </trkpt>
      <trkpt lat="43.72973" lon="1.90395">
        <ele>267.38</ele>
        <time>2020-02-16T11:51:33Z</time>
      </trkpt>
      <trkpt lat="43.7297" lon="1.90403">
        <ele>267.38</ele>
        <time>2020-02-16T11:51:58Z</time>
      </trkpt>
      <trkpt lat="43.72967" lon="1.90402">
        <ele>267.38</ele>
        <time>2020-02-16T11:52:33Z</time>
      </trkpt>
      <trkpt lat="43.72964" lon="1.90402">
        <ele>266.42</ele>
        <time>2020-02-16T11:53:04Z</time>
      </trkpt>
      <trkpt lat="43.72967" lon="1.90402">
        <ele>266.42</ele>
        <time>2020-02-16T11:53:38Z</time>
      </trkpt>
      <trkpt lat="43.72967" lon="1.90402">
        <ele>266.42</ele>
        <time>2020-02-16T11:54:15Z</time>
      </trkpt>
      <trkpt lat="43.72965" lon="1.90405">
        <ele>266.42</ele>
        <time>2020-02-16T11:54:53Z</time>
      </trkpt>
      <trkpt lat="43.72967" lon="1.90409">
        <ele>266.42</ele>
        <time>2020-02-16T11:55:30Z</time>
      </trkpt>
      <trkpt lat="43.72965" lon="1.90408">
        <ele>266.42</ele>
        <time>2020-02-16T11:56:09Z</time>
      </trkpt>
      <trkpt lat="43.72966" lon="1.90405">
        <ele>267.86</ele>
        <time>2020-02-16T11:56:40Z</time>
      </trkpt>
      <trkpt lat="43.72974" lon="1.90396">
        <ele>267.86</ele>
        <time>2020-02-16T11:57:01Z</time>
      </trkpt>
      <trkpt lat="43.7298" lon="1.90399">
        <ele>267.86</ele>
        <time>2020-02-16T11:57:07Z</time>
      </trkpt>
      <trkpt lat="43.72979" lon="1.90397">
        <ele>267.86</ele>
        <time>2020-02-16T11:57:26Z</time>
      </trkpt>
      <trkpt lat="43.72976" lon="1.90402">
        <ele>267.86</ele>
        <time>2020-02-16T11:57:50Z</time>
      </trkpt>
      <trkpt lat="43.72965" lon="1.90406">
        <ele>267.86</ele>
        <time>2020-02-16T11:58:18Z</time>
      </trkpt>
      <trkpt lat="43.72963" lon="1.90405">
        <ele>268.35</ele>
        <time>2020-02-16T11:58:53Z</time>
      </trkpt>
      <trkpt lat="43.7296" lon="1.90403">
        <ele>268.35</ele>
        <time>2020-02-16T11:59:25Z</time>
      </trkpt>
      <trkpt lat="43.72969" lon="1.90399">
        <ele>268.35</ele>
        <time>2020-02-16T11:59:50Z</time>
      </trkpt>
      <trkpt lat="43.72963" lon="1.90401">
        <ele>268.35</ele>
        <time>2020-02-16T12:00:20Z</time>
      </trkpt>
      <trkpt lat="43.72962" lon="1.90402">
        <ele>268.35</ele>
        <time>2020-02-16T12:00:50Z</time>
      </trkpt>
      <trkpt lat="43.7296" lon="1.90404">
        <ele>268.35</ele>
        <time>2020-02-16T12:01:17Z</time>
      </trkpt>
      <trkpt lat="43.72961" lon="1.90402">
        <ele>268.83</ele>
        <time>2020-02-16T12:01:50Z</time>
      </trkpt>
      <trkpt lat="43.72963" lon="1.904">
        <ele>268.83</ele>
        <time>2020-02-16T12:02:21Z</time>
      </trkpt>
      <trkpt lat="43.72963" lon="1.90402">
        <ele>268.83</ele>
        <time>2020-02-16T12:02:52Z</time>
      </trkpt>
      <trkpt lat="43.72962" lon="1.90402">
        <ele>268.83</ele>
        <time>2020-02-16T12:03:20Z</time>
      </trkpt>
      <trkpt lat="43.72967" lon="1.90404">
        <ele>269.31</ele>
        <time>2020-02-16T12:03:46Z</time>
      </trkpt>
      <trkpt lat="43.72968" lon="1.904">
        <ele>269.31</ele>
        <time>2020-02-16T12:04:10Z</time>
      </trkpt>
      <trkpt lat="43.72968" lon="1.90401">
        <ele>269.31</ele>
        <time>2020-02-16T12:04:38Z</time>
      </trkpt>
      <trkpt lat="43.7297" lon="1.90406">
        <ele>269.31</ele>
        <time>2020-02-16T12:05:06Z</time>
      </trkpt>
      <trkpt lat="43.72958" lon="1.90405">
        <ele>269.31</ele>
        <time>2020-02-16T12:05:35Z</time>
      </trkpt>
      <trkpt lat="43.72962" lon="1.90401">
        <ele>269.79</ele>
        <time>2020-02-16T12:06:06Z</time>
      </trkpt>
      <trkpt lat="43.72957" lon="1.904">
        <ele>269.79</ele>
        <time>2020-02-16T12:06:36Z</time>
      </trkpt>
      <trkpt lat="43.72969" lon="1.90398">
        <ele>269.79</ele>
        <time>2020-02-16T12:06:59Z</time>
      </trkpt>
      <trkpt lat="43.72971" lon="1.904">
        <ele>269.79</ele>
        <time>2020-02-16T12:07:28Z</time>
      </trkpt>
      <trkpt lat="43.72965" lon="1.90408">
        <ele>269.79</ele>
        <time>2020-02-16T12:07:55Z</time>
      </trkpt>
      <trkpt lat="43.72966" lon="1.90404">
        <ele>269.79</ele>
        <time>2020-02-16T12:08:31Z</time>
      </trkpt>
      <trkpt lat="43.72967" lon="1.904">
        <ele>269.79</ele>
        <time>2020-02-16T12:09:07Z</time>
      </trkpt>
      <trkpt lat="43.72969" lon="1.90401">
        <ele>269.79</ele>
        <time>2020-02-16T12:09:39Z</time>
      </trkpt>
      <trkpt lat="43.72964" lon="1.90406">
        <ele>270.27</ele>
        <time>2020-02-16T12:10:09Z</time>
      </trkpt>
      <trkpt lat="43.72967" lon="1.90407">
        <ele>270.27</ele>
        <time>2020-02-16T12:10:38Z</time>
      </trkpt>
      <trkpt lat="43.72961" lon="1.90408">
        <ele>270.27</ele>
        <time>2020-02-16T12:11:11Z</time>
      </trkpt>
      <trkpt lat="43.72962" lon="1.90399">
        <ele>270.27</ele>
        <time>2020-02-16T12:11:39Z</time>
      </trkpt>
      <trkpt lat="43.72968" lon="1.90403">
        <ele>270.75</ele>
        <time>2020-02-16T12:12:00Z</time>
      </trkpt>
      <trkpt lat="43.72967" lon="1.90402">
        <ele>270.75</ele>
        <time>2020-02-16T12:12:30Z</time>
      </trkpt>
      <trkpt lat="43.72963" lon="1.90403">
        <ele>270.75</ele>
        <time>2020-02-16T12:13:01Z</time>
      </trkpt>
      <trkpt lat="43.72964" lon="1.90407">
        <ele>270.75</ele>
        <time>2020-02-16T12:13:28Z</time>
      </trkpt>
      <trkpt lat="43.72967" lon="1.90407">
        <ele>271.23</ele>
        <time>2020-02-16T12:13:55Z</time>
      </trkpt>
      <trkpt lat="43.72964" lon="1.90409">
        <ele>271.23</ele>
        <time>2020-02-16T12:14:30Z</time>
      </trkpt>
      <trkpt lat="43.72963" lon="1.9041">
        <ele>271.23</ele>
        <time>2020-02-16T12:14:59Z</time>
      </trkpt>
      <trkpt lat="43.72968" lon="1.90408">
        <ele>271.23</ele>
        <time>2020-02-16T12:15:37Z</time>
      </trkpt>
      <trkpt lat="43.72969" lon="1.90406">
        <ele>271.23</ele>
        <time>2020-02-16T12:16:01Z</time>
      </trkpt>
      <trkpt lat="43.72969" lon="1.90406">
        <ele>271.23</ele>
        <time>2020-02-16T12:16:30Z</time>
      </trkpt>
      <trkpt lat="43.72968" lon="1.90406">
        <ele>271.23</ele>
        <time>2020-02-16T12:17:07Z</time>
      </trkpt>
      <trkpt lat="43.72966" lon="1.90409">
        <ele>269.79</ele>
        <time>2020-02-16T12:17:34Z</time>
      </trkpt>
      <trkpt lat="43.7297" lon="1.90404">
        <ele>270.75</ele>
        <time>2020-02-16T12:17:58Z</time>
      </trkpt>
      <trkpt lat="43.72968" lon="1.90405">
        <ele>271.23</ele>
        <time>2020-02-16T12:18:23Z</time>
      </trkpt>
      <trkpt lat="43.7297" lon="1.90406">
        <ele>271.23</ele>
        <time>2020-02-16T12:18:49Z</time>
      </trkpt>
      <trkpt lat="43.7297" lon="1.90406">
        <ele>271.71</ele>
        <time>2020-02-16T12:19:19Z</time>
      </trkpt>
      <trkpt lat="43.72969" lon="1.90408">
        <ele>271.23</ele>
        <time>2020-02-16T12:19:43Z</time>
      </trkpt>
      <trkpt lat="43.72968" lon="1.90406">
        <ele>271.23</ele>
        <time>2020-02-16T12:20:12Z</time>
      </trkpt>
      <trkpt lat="43.72964" lon="1.90401">
        <ele>271.23</ele>
        <time>2020-02-16T12:20:25Z</time>
      </trkpt>
      <trkpt lat="43.72963" lon="1.904">
        <ele>272.67</ele>
        <time>2020-02-16T12:20:27Z</time>
      </trkpt>
      <trkpt lat="43.7296" lon="1.90399">
        <ele>273.63</ele>
        <time>2020-02-16T12:20:29Z</time>
      </trkpt>
      <trkpt lat="43.72958" lon="1.90398">
        <ele>271.71</ele>
        <time>2020-02-16T12:20:31Z</time>
      </trkpt>
      <trkpt lat="43.72958" lon="1.90398">
        <ele>271.71</ele>
        <time>2020-02-16T12:20:32Z</time>
      </trkpt>
      <trkpt lat="43.72954" lon="1.90397">
        <ele>272.19</ele>
        <time>2020-02-16T12:20:36Z</time>
      </trkpt>
      <trkpt lat="43.72948" lon="1.90404">
        <ele>271.23</ele>
        <time>2020-02-16T12:20:43Z</time>
      </trkpt>
      <trkpt lat="43.72946" lon="1.90409">
        <ele>272.19</ele>
        <time>2020-02-16T12:20:54Z</time>
      </trkpt>
      <trkpt lat="43.72946" lon="1.90411">
        <ele>270.75</ele>
        <time>2020-02-16T12:20:59Z</time>
      </trkpt>
      <trkpt lat="43.72945" lon="1.90415">
        <ele>271.23</ele>
        <time>2020-02-16T12:21:20Z</time>
      </trkpt>
      <trkpt lat="43.72947" lon="1.90412">
        <ele>271.23</ele>
        <time>2020-02-16T12:21:43Z</time>
      </trkpt>
      <trkpt lat="43.72947" lon="1.90408">
        <ele>271.23</ele>
        <time>2020-02-16T12:21:54Z</time>
      </trkpt>
      <trkpt lat="43.72952" lon="1.90402">
        <ele>272.19</ele>
        <time>2020-02-16T12:22:08Z</time>
      </trkpt>
      <trkpt lat="43.72954" lon="1.90402">
        <ele>272.19</ele>
        <time>2020-02-16T12:22:10Z</time>
      </trkpt>
      <trkpt lat="43.72958" lon="1.90402">
        <ele>270.75</ele>
        <time>2020-02-16T12:22:13Z</time>
      </trkpt>
      <trkpt lat="43.72965" lon="1.90404">
        <ele>269.79</ele>
        <time>2020-02-16T12:22:29Z</time>
      </trkpt>
      <trkpt lat="43.72967" lon="1.90406">
        <ele>269.31</ele>
        <time>2020-02-16T12:22:50Z</time>
      </trkpt>
      <trkpt lat="43.72974" lon="1.90407">
        <ele>269.31</ele>
        <time>2020-02-16T12:23:07Z</time>
      </trkpt>
      <trkpt lat="43.72985" lon="1.90398">
        <ele>268.35</ele>
        <time>2020-02-16T12:23:19Z</time>
      </trkpt>
      <trkpt lat="43.72983" lon="1.90398">
        <ele>268.83</ele>
        <time>2020-02-16T12:23:33Z</time>
      </trkpt>
      <trkpt lat="43.72976" lon="1.90404">
        <ele>270.27</ele>
        <time>2020-02-16T12:23:45Z</time>
      </trkpt>
      <trkpt lat="43.72973" lon="1.90405">
        <ele>270.75</ele>
        <time>2020-02-16T12:24:00Z</time>
      </trkpt>
      <trkpt lat="43.72972" lon="1.90406">
        <ele>270.27</ele>
        <time>2020-02-16T12:24:19Z</time>
      </trkpt>
      <trkpt lat="43.72971" lon="1.90407">
        <ele>270.27</ele>
        <time>2020-02-16T12:24:46Z</time>
      </trkpt>
      <trkpt lat="43.72971" lon="1.90408">
        <ele>270.27</ele>
        <time>2020-02-16T12:25:14Z</time>
      </trkpt>
      <trkpt lat="43.7297" lon="1.90408">
        <ele>270.27</ele>
        <time>2020-02-16T12:25:35Z</time>
      </trkpt>
      <trkpt lat="43.72971" lon="1.90406">
        <ele>270.27</ele>
        <time>2020-02-16T12:26:05Z</time>
      </trkpt>
      <trkpt lat="43.72971" lon="1.90405">
        <ele>270.27</ele>
        <time>2020-02-16T12:26:29Z</time>
      </trkpt>
      <trkpt lat="43.72971" lon="1.90404">
        <ele>270.27</ele>
        <time>2020-02-16T12:26:52Z</time>
      </trkpt>
      <trkpt lat="43.7297" lon="1.90403">
        <ele>270.27</ele>
        <time>2020-02-16T12:27:16Z</time>
      </trkpt>
      <trkpt lat="43.72968" lon="1.90405">
        <ele>270.27</ele>
        <time>2020-02-16T12:27:34Z</time>
      </trkpt>
      <trkpt lat="43.72967" lon="1.90407">
        <ele>270.27</ele>
        <time>2020-02-16T12:27:53Z</time>
      </trkpt>
      <trkpt lat="43.72967" lon="1.90406">
        <ele>270.27</ele>
        <time>2020-02-16T12:28:17Z</time>
      </trkpt>
      <trkpt lat="43.72967" lon="1.90407">
        <ele>270.27</ele>
        <time>2020-02-16T12:28:37Z</time>
      </trkpt>
      <trkpt lat="43.72967" lon="1.90407">
        <ele>270.27</ele>
        <time>2020-02-16T12:28:57Z</time>
      </trkpt>
      <trkpt lat="43.72964" lon="1.90402">
        <ele>270.27</ele>
        <time>2020-02-16T12:29:13Z</time>
      </trkpt>
      <trkpt lat="43.72964" lon="1.90401">
        <ele>270.27</ele>
        <time>2020-02-16T12:29:14Z</time>
      </trkpt>
      <trkpt lat="43.7296" lon="1.90399">
        <ele>269.79</ele>
        <time>2020-02-16T12:29:18Z</time>
      </trkpt>
      <trkpt lat="43.72952" lon="1.90398">
        <ele>269.79</ele>
        <time>2020-02-16T12:29:35Z</time>
      </trkpt>
      <trkpt lat="43.72943" lon="1.904">
        <ele>269.79</ele>
        <time>2020-02-16T12:29:50Z</time>
      </trkpt>
      <trkpt lat="43.72938" lon="1.90398">
        <ele>267.86</ele>
        <time>2020-02-16T12:30:10Z</time>
      </trkpt>
      <trkpt lat="43.72934" lon="1.9038">
        <ele>265.46</ele>
        <time>2020-02-16T12:30:26Z</time>
      </trkpt>
      <trkpt lat="43.72933" lon="1.90368">
        <ele>264.02</ele>
        <time>2020-02-16T12:30:36Z</time>
      </trkpt>
      <trkpt lat="43.72944" lon="1.90352">
        <ele>263.06</ele>
        <time>2020-02-16T12:30:52Z</time>
      </trkpt>
      <trkpt lat="43.72945" lon="1.90351">
        <ele>263.06</ele>
        <time>2020-02-16T12:30:54Z</time>
      </trkpt>
      <trkpt lat="43.72949" lon="1.90346">
        <ele>263.06</ele>
        <time>2020-02-16T12:31:00Z</time>
      </trkpt>
      <trkpt lat="43.72956" lon="1.90328">
        <ele>264.5</ele>
        <time>2020-02-16T12:31:14Z</time>
      </trkpt>
      <trkpt lat="43.72957" lon="1.90325">
        <ele>264.5</ele>
        <time>2020-02-16T12:31:16Z</time>
      </trkpt>
      <trkpt lat="43.72965" lon="1.90299">
        <ele>264.5</ele>
        <time>2020-02-16T12:31:34Z</time>
      </trkpt>
      <trkpt lat="43.72975" lon="1.90271">
        <ele>264.98</ele>
        <time>2020-02-16T12:31:55Z</time>
      </trkpt>
      <trkpt lat="43.72985" lon="1.90247">
        <ele>264.98</ele>
        <time>2020-02-16T12:32:12Z</time>
      </trkpt>
      <trkpt lat="43.72994" lon="1.90222">
        <ele>265.46</ele>
        <time>2020-02-16T12:32:31Z</time>
      </trkpt>
      <trkpt lat="43.73003" lon="1.90199">
        <ele>265.94</ele>
        <time>2020-02-16T12:32:48Z</time>
      </trkpt>
      <trkpt lat="43.73011" lon="1.90178">
        <ele>266.42</ele>
        <time>2020-02-16T12:33:03Z</time>
      </trkpt>
      <trkpt lat="43.73017" lon="1.90163">
        <ele>265.94</ele>
        <time>2020-02-16T12:33:15Z</time>
      </trkpt>
      <trkpt lat="43.73025" lon="1.90137">
        <ele>264.5</ele>
        <time>2020-02-16T12:33:33Z</time>
      </trkpt>
      <trkpt lat="43.73035" lon="1.90117">
        <ele>265.94</ele>
        <time>2020-02-16T12:33:50Z</time>
      </trkpt>
      <trkpt lat="43.73048" lon="1.90093">
        <ele>265.94</ele>
        <time>2020-02-16T12:34:09Z</time>
      </trkpt>
      <trkpt lat="43.73062" lon="1.90063">
        <ele>265.46</ele>
        <time>2020-02-16T12:34:30Z</time>
      </trkpt>
      <trkpt lat="43.73067" lon="1.90054">
        <ele>264.5</ele>
        <time>2020-02-16T12:34:37Z</time>
      </trkpt>
      <trkpt lat="43.73077" lon="1.90033">
        <ele>264.02</ele>
        <time>2020-02-16T12:34:52Z</time>
      </trkpt>
      <trkpt lat="43.7309" lon="1.90007">
        <ele>262.1</ele>
        <time>2020-02-16T12:35:10Z</time>
      </trkpt>
      <trkpt lat="43.73101" lon="1.89988">
        <ele>260.65</ele>
        <time>2020-02-16T12:35:26Z</time>
      </trkpt>
      <trkpt lat="43.73114" lon="1.89967">
        <ele>258.73</ele>
        <time>2020-02-16T12:35:43Z</time>
      </trkpt>
      <trkpt lat="43.73135" lon="1.89939">
        <ele>257.29</ele>
        <time>2020-02-16T12:36:07Z</time>
      </trkpt>
      <trkpt lat="43.7315" lon="1.89924">
        <ele>256.33</ele>
        <time>2020-02-16T12:36:24Z</time>
      </trkpt>
      <trkpt lat="43.73166" lon="1.89909">
        <ele>254.41</ele>
        <time>2020-02-16T12:36:43Z</time>
      </trkpt>
      <trkpt lat="43.7318" lon="1.89894">
        <ele>252.48</ele>
        <time>2020-02-16T12:36:58Z</time>
      </trkpt>
      <trkpt lat="43.7319" lon="1.89875">
        <ele>249.6</ele>
        <time>2020-02-16T12:37:13Z</time>
      </trkpt>
      <trkpt lat="43.732" lon="1.89849">
        <ele>246.72</ele>
        <time>2020-02-16T12:37:32Z</time>
      </trkpt>
      <trkpt lat="43.73209" lon="1.89823">
        <ele>245.27</ele>
        <time>2020-02-16T12:37:51Z</time>
      </trkpt>
      <trkpt lat="43.73223" lon="1.89792">
        <ele>243.83</ele>
        <time>2020-02-16T12:38:14Z</time>
      </trkpt>
      <trkpt lat="43.73233" lon="1.89765">
        <ele>242.87</ele>
        <time>2020-02-16T12:38:30Z</time>
      </trkpt>
      <trkpt lat="43.7324" lon="1.89739">
        <ele>242.39</ele>
        <time>2020-02-16T12:38:48Z</time>
      </trkpt>
      <trkpt lat="43.73241" lon="1.89733">
        <ele>242.87</ele>
        <time>2020-02-16T12:38:53Z</time>
      </trkpt>
      <trkpt lat="43.73248" lon="1.89708">
        <ele>243.35</ele>
        <time>2020-02-16T12:39:10Z</time>
      </trkpt>
      <trkpt lat="43.73256" lon="1.89682">
        <ele>243.35</ele>
        <time>2020-02-16T12:39:28Z</time>
      </trkpt>
      <trkpt lat="43.73262" lon="1.89656">
        <ele>243.35</ele>
        <time>2020-02-16T12:39:46Z</time>
      </trkpt>
      <trkpt lat="43.73271" lon="1.89631">
        <ele>244.31</ele>
        <time>2020-02-16T12:40:04Z</time>
      </trkpt>
      <trkpt lat="43.73275" lon="1.89609">
        <ele>245.75</ele>
        <time>2020-02-16T12:40:20Z</time>
      </trkpt>
      <trkpt lat="43.73283" lon="1.8958">
        <ele>247.68</ele>
        <time>2020-02-16T12:40:40Z</time>
      </trkpt>
      <trkpt lat="43.73288" lon="1.89553">
        <ele>248.16</ele>
        <time>2020-02-16T12:40:57Z</time>
      </trkpt>
      <trkpt lat="43.73292" lon="1.89522">
        <ele>248.16</ele>
        <time>2020-02-16T12:41:16Z</time>
      </trkpt>
      <trkpt lat="43.73299" lon="1.8949">
        <ele>246.72</ele>
        <time>2020-02-16T12:41:37Z</time>
      </trkpt>
      <trkpt lat="43.73311" lon="1.89467">
        <ele>244.79</ele>
        <time>2020-02-16T12:41:55Z</time>
      </trkpt>
      <trkpt lat="43.73329" lon="1.89451">
        <ele>242.39</ele>
        <time>2020-02-16T12:42:16Z</time>
      </trkpt>
      <trkpt lat="43.73345" lon="1.89437">
        <ele>239.02</ele>
        <time>2020-02-16T12:42:34Z</time>
      </trkpt>
      <trkpt lat="43.73357" lon="1.89417">
        <ele>236.14</ele>
        <time>2020-02-16T12:42:52Z</time>
      </trkpt>
      <trkpt lat="43.73363" lon="1.89387">
        <ele>233.74</ele>
        <time>2020-02-16T12:43:12Z</time>
      </trkpt>
      <trkpt lat="43.73364" lon="1.89361">
        <ele>233.26</ele>
        <time>2020-02-16T12:43:32Z</time>
      </trkpt>
      <trkpt lat="43.73364" lon="1.89353">
        <ele>231.81</ele>
        <time>2020-02-16T12:43:47Z</time>
      </trkpt>
      <trkpt lat="43.73364" lon="1.89325">
        <ele>231.33</ele>
        <time>2020-02-16T12:44:06Z</time>
      </trkpt>
      <trkpt lat="43.7336" lon="1.89294">
        <ele>231.33</ele>
        <time>2020-02-16T12:44:25Z</time>
      </trkpt>
      <trkpt lat="43.73357" lon="1.8926">
        <ele>230.85</ele>
        <time>2020-02-16T12:44:47Z</time>
      </trkpt>
      <trkpt lat="43.73361" lon="1.89231">
        <ele>230.37</ele>
        <time>2020-02-16T12:45:05Z</time>
      </trkpt>
      <trkpt lat="43.73369" lon="1.892">
        <ele>230.37</ele>
        <time>2020-02-16T12:45:25Z</time>
      </trkpt>
      <trkpt lat="43.73377" lon="1.89174">
        <ele>232.78</ele>
        <time>2020-02-16T12:45:44Z</time>
      </trkpt>
      <trkpt lat="43.73383" lon="1.89151">
        <ele>234.22</ele>
        <time>2020-02-16T12:46:02Z</time>
      </trkpt>
      <trkpt lat="43.7339" lon="1.89124">
        <ele>236.62</ele>
        <time>2020-02-16T12:46:22Z</time>
      </trkpt>
      <trkpt lat="43.73396" lon="1.891">
        <ele>238.54</ele>
        <time>2020-02-16T12:46:39Z</time>
      </trkpt>
      <trkpt lat="43.73403" lon="1.89075">
        <ele>241.43</ele>
        <time>2020-02-16T12:46:59Z</time>
      </trkpt>
      <trkpt lat="43.73409" lon="1.89053">
        <ele>244.31</ele>
        <time>2020-02-16T12:47:17Z</time>
      </trkpt>
      <trkpt lat="43.73414" lon="1.89036">
        <ele>245.75</ele>
        <time>2020-02-16T12:47:33Z</time>
      </trkpt>
      <trkpt lat="43.73419" lon="1.89018">
        <ele>247.68</ele>
        <time>2020-02-16T12:47:48Z</time>
      </trkpt>
      <trkpt lat="43.73423" lon="1.89">
        <ele>248.16</ele>
        <time>2020-02-16T12:48:03Z</time>
      </trkpt>
      <trkpt lat="43.7342" lon="1.88992">
        <ele>249.12</ele>
        <time>2020-02-16T12:48:18Z</time>
      </trkpt>
      <trkpt lat="43.73418" lon="1.88987">
        <ele>249.12</ele>
        <time>2020-02-16T12:48:33Z</time>
      </trkpt>
      <trkpt lat="43.73419" lon="1.8898">
        <ele>249.12</ele>
        <time>2020-02-16T12:48:49Z</time>
      </trkpt>
      <trkpt lat="43.73421" lon="1.88974">
        <ele>249.6</ele>
        <time>2020-02-16T12:49:05Z</time>
      </trkpt>
      <trkpt lat="43.73427" lon="1.88978">
        <ele>249.6</ele>
        <time>2020-02-16T12:49:23Z</time>
      </trkpt>
      <trkpt lat="43.7343" lon="1.88978">
        <ele>249.6</ele>
        <time>2020-02-16T12:49:46Z</time>
      </trkpt>
      <trkpt lat="43.73432" lon="1.88978">
        <ele>250.08</ele>
        <time>2020-02-16T12:50:10Z</time>
      </trkpt>
      <trkpt lat="43.73423" lon="1.88972">
        <ele>250.08</ele>
        <time>2020-02-16T12:50:29Z</time>
      </trkpt>
      <trkpt lat="43.73423" lon="1.88972">
        <ele>250.08</ele>
        <time>2020-02-16T12:50:48Z</time>
      </trkpt>
      <trkpt lat="43.73425" lon="1.8898">
        <ele>249.6</ele>
        <time>2020-02-16T12:51:05Z</time>
      </trkpt>
      <trkpt lat="43.73428" lon="1.88973">
        <ele>249.6</ele>
        <time>2020-02-16T12:51:22Z</time>
      </trkpt>
      <trkpt lat="43.73429" lon="1.88968">
        <ele>249.6</ele>
        <time>2020-02-16T12:51:36Z</time>
      </trkpt>
      <trkpt lat="43.73427" lon="1.88967">
        <ele>249.6</ele>
        <time>2020-02-16T12:51:52Z</time>
      </trkpt>
      <trkpt lat="43.7343" lon="1.88963">
        <ele>250.08</ele>
        <time>2020-02-16T12:52:07Z</time>
      </trkpt>
      <trkpt lat="43.73435" lon="1.88952">
        <ele>251.04</ele>
        <time>2020-02-16T12:52:23Z</time>
      </trkpt>
      <trkpt lat="43.73438" lon="1.88938">
        <ele>251.52</ele>
        <time>2020-02-16T12:52:39Z</time>
      </trkpt>
      <trkpt lat="43.73443" lon="1.88923">
        <ele>252.96</ele>
        <time>2020-02-16T12:52:53Z</time>
      </trkpt>
      <trkpt lat="43.73447" lon="1.88902">
        <ele>255.37</ele>
        <time>2020-02-16T12:53:08Z</time>
      </trkpt>
      <trkpt lat="43.73449" lon="1.88884">
        <ele>256.81</ele>
        <time>2020-02-16T12:53:21Z</time>
      </trkpt>
      <trkpt lat="43.73449" lon="1.88863">
        <ele>258.73</ele>
        <time>2020-02-16T12:53:37Z</time>
      </trkpt>
      <trkpt lat="43.73447" lon="1.8884">
        <ele>259.69</ele>
        <time>2020-02-16T12:53:54Z</time>
      </trkpt>
      <trkpt lat="43.73444" lon="1.88817">
        <ele>260.17</ele>
        <time>2020-02-16T12:54:09Z</time>
      </trkpt>
      <trkpt lat="43.73444" lon="1.88814">
        <ele>260.17</ele>
        <time>2020-02-16T12:54:11Z</time>
      </trkpt>
      <trkpt lat="43.7344" lon="1.88784">
        <ele>261.14</ele>
        <time>2020-02-16T12:54:30Z</time>
      </trkpt>
      <trkpt lat="43.73436" lon="1.88765">
        <ele>260.65</ele>
        <time>2020-02-16T12:54:41Z</time>
      </trkpt>
      <trkpt lat="43.73436" lon="1.88758">
        <ele>261.14</ele>
        <time>2020-02-16T12:54:45Z</time>
      </trkpt>
      <trkpt lat="43.73433" lon="1.88729">
        <ele>261.14</ele>
        <time>2020-02-16T12:55:03Z</time>
      </trkpt>
      <trkpt lat="43.73435" lon="1.88703">
        <ele>261.14</ele>
        <time>2020-02-16T12:55:22Z</time>
      </trkpt>
      <trkpt lat="43.73442" lon="1.88685">
        <ele>258.25</ele>
        <time>2020-02-16T12:55:36Z</time>
      </trkpt>
      <trkpt lat="43.73453" lon="1.88659">
        <ele>256.33</ele>
        <time>2020-02-16T12:55:53Z</time>
      </trkpt>
      <trkpt lat="43.73465" lon="1.88638">
        <ele>254.41</ele>
        <time>2020-02-16T12:56:08Z</time>
      </trkpt>
      <trkpt lat="43.73477" lon="1.88622">
        <ele>252.48</ele>
        <time>2020-02-16T12:56:24Z</time>
      </trkpt>
      <trkpt lat="43.73487" lon="1.88606">
        <ele>252</ele>
        <time>2020-02-16T12:56:37Z</time>
      </trkpt>
      <trkpt lat="43.73501" lon="1.88587">
        <ele>251.04</ele>
        <time>2020-02-16T12:56:54Z</time>
      </trkpt>
      <trkpt lat="43.73505" lon="1.88579">
        <ele>251.04</ele>
        <time>2020-02-16T12:57:00Z</time>
      </trkpt>
      <trkpt lat="43.73518" lon="1.88555">
        <ele>250.56</ele>
        <time>2020-02-16T12:57:18Z</time>
      </trkpt>
      <trkpt lat="43.73528" lon="1.88535">
        <ele>250.56</ele>
        <time>2020-02-16T12:57:33Z</time>
      </trkpt>
      <trkpt lat="43.73539" lon="1.88507">
        <ele>249.12</ele>
        <time>2020-02-16T12:57:54Z</time>
      </trkpt>
      <trkpt lat="43.73542" lon="1.88497">
        <ele>249.12</ele>
        <time>2020-02-16T12:58:00Z</time>
      </trkpt>
      <trkpt lat="43.73551" lon="1.88473">
        <ele>247.68</ele>
        <time>2020-02-16T12:58:19Z</time>
      </trkpt>
      <trkpt lat="43.73555" lon="1.88447">
        <ele>245.27</ele>
        <time>2020-02-16T12:58:35Z</time>
      </trkpt>
      <trkpt lat="43.73568" lon="1.88415">
        <ele>244.31</ele>
        <time>2020-02-16T12:58:55Z</time>
      </trkpt>
      <trkpt lat="43.73574" lon="1.88387">
        <ele>242.87</ele>
        <time>2020-02-16T12:59:11Z</time>
      </trkpt>
      <trkpt lat="43.73572" lon="1.88355">
        <ele>241.91</ele>
        <time>2020-02-16T12:59:30Z</time>
      </trkpt>
      <trkpt lat="43.73574" lon="1.88345">
        <ele>241.43</ele>
        <time>2020-02-16T12:59:37Z</time>
      </trkpt>
      <trkpt lat="43.73582" lon="1.88329">
        <ele>239.99</ele>
        <time>2020-02-16T12:59:51Z</time>
      </trkpt>
      <trkpt lat="43.73598" lon="1.88315">
        <ele>238.54</ele>
        <time>2020-02-16T13:00:10Z</time>
      </trkpt>
      <trkpt lat="43.73619" lon="1.88302">
        <ele>236.62</ele>
        <time>2020-02-16T13:00:31Z</time>
      </trkpt>
      <trkpt lat="43.73641" lon="1.88289">
        <ele>235.18</ele>
        <time>2020-02-16T13:00:52Z</time>
      </trkpt>
      <trkpt lat="43.73662" lon="1.88282">
        <ele>232.3</ele>
        <time>2020-02-16T13:01:11Z</time>
      </trkpt>
      <trkpt lat="43.73681" lon="1.88265">
        <ele>229.89</ele>
        <time>2020-02-16T13:01:30Z</time>
      </trkpt>
      <trkpt lat="43.73696" lon="1.88261">
        <ele>227.49</ele>
        <time>2020-02-16T13:01:46Z</time>
      </trkpt>
      <trkpt lat="43.73711" lon="1.88279">
        <ele>226.53</ele>
        <time>2020-02-16T13:02:03Z</time>
      </trkpt>
      <trkpt lat="43.73728" lon="1.88291">
        <ele>224.61</ele>
        <time>2020-02-16T13:02:22Z</time>
      </trkpt>
      <trkpt lat="43.73733" lon="1.88293">
        <ele>224.61</ele>
        <time>2020-02-16T13:02:28Z</time>
      </trkpt>
      <trkpt lat="43.73756" lon="1.88304">
        <ele>222.68</ele>
        <time>2020-02-16T13:02:47Z</time>
      </trkpt>
      <trkpt lat="43.73773" lon="1.88315">
        <ele>222.2</ele>
        <time>2020-02-16T13:03:02Z</time>
      </trkpt>
      <trkpt lat="43.73788" lon="1.88322">
        <ele>220.76</ele>
        <time>2020-02-16T13:03:15Z</time>
      </trkpt>
      <trkpt lat="43.73807" lon="1.88331">
        <ele>219.32</ele>
        <time>2020-02-16T13:03:33Z</time>
      </trkpt>
      <trkpt lat="43.73828" lon="1.88338">
        <ele>218.36</ele>
        <time>2020-02-16T13:03:53Z</time>
      </trkpt>
      <trkpt lat="43.73834" lon="1.88342">
        <ele>217.88</ele>
        <time>2020-02-16T13:04:04Z</time>
      </trkpt>
      <trkpt lat="43.7384" lon="1.88344">
        <ele>217.88</ele>
        <time>2020-02-16T13:04:09Z</time>
      </trkpt>
      <trkpt lat="43.7386" lon="1.88348">
        <ele>216.91</ele>
        <time>2020-02-16T13:04:29Z</time>
      </trkpt>
      <trkpt lat="43.73882" lon="1.88354">
        <ele>214.99</ele>
        <time>2020-02-16T13:04:48Z</time>
      </trkpt>
      <trkpt lat="43.739" lon="1.88356">
        <ele>214.51</ele>
        <time>2020-02-16T13:05:04Z</time>
      </trkpt>
      <trkpt lat="43.73907" lon="1.88354">
        <ele>214.03</ele>
        <time>2020-02-16T13:05:16Z</time>
      </trkpt>
      <trkpt lat="43.73928" lon="1.88351">
        <ele>212.59</ele>
        <time>2020-02-16T13:05:34Z</time>
      </trkpt>
      <trkpt lat="43.73945" lon="1.88351">
        <ele>211.63</ele>
        <time>2020-02-16T13:05:52Z</time>
      </trkpt>
      <trkpt lat="43.73952" lon="1.8835">
        <ele>211.63</ele>
        <time>2020-02-16T13:06:04Z</time>
      </trkpt>
      <trkpt lat="43.73965" lon="1.8835">
        <ele>210.19</ele>
        <time>2020-02-16T13:06:18Z</time>
      </trkpt>
      <trkpt lat="43.73973" lon="1.88348">
        <ele>209.22</ele>
        <time>2020-02-16T13:06:31Z</time>
      </trkpt>
      <trkpt lat="43.73994" lon="1.88343">
        <ele>208.26</ele>
        <time>2020-02-16T13:06:48Z</time>
      </trkpt>
      <trkpt lat="43.74014" lon="1.8834">
        <ele>207.3</ele>
        <time>2020-02-16T13:07:04Z</time>
      </trkpt>
      <trkpt lat="43.74038" lon="1.88335">
        <ele>206.82</ele>
        <time>2020-02-16T13:07:23Z</time>
      </trkpt>
      <trkpt lat="43.74063" lon="1.8833">
        <ele>206.34</ele>
        <time>2020-02-16T13:07:43Z</time>
      </trkpt>
      <trkpt lat="43.74076" lon="1.8833">
        <ele>205.86</ele>
        <time>2020-02-16T13:07:55Z</time>
      </trkpt>
      <trkpt lat="43.74097" lon="1.8834">
        <ele>204.42</ele>
        <time>2020-02-16T13:08:15Z</time>
      </trkpt>
      <trkpt lat="43.74105" lon="1.88342">
        <ele>203.94</ele>
        <time>2020-02-16T13:08:21Z</time>
      </trkpt>
      <trkpt lat="43.74111" lon="1.88344">
        <ele>203.46</ele>
        <time>2020-02-16T13:08:26Z</time>
      </trkpt>
      <trkpt lat="43.74119" lon="1.88347">
        <ele>202.98</ele>
        <time>2020-02-16T13:08:34Z</time>
      </trkpt>
      <trkpt lat="43.7414" lon="1.88362">
        <ele>201.53</ele>
        <time>2020-02-16T13:08:54Z</time>
      </trkpt>
      <trkpt lat="43.74157" lon="1.88369">
        <ele>200.09</ele>
        <time>2020-02-16T13:09:10Z</time>
      </trkpt>
      <trkpt lat="43.74172" lon="1.88385">
        <ele>200.09</ele>
        <time>2020-02-16T13:09:27Z</time>
      </trkpt>
      <trkpt lat="43.74179" lon="1.88393">
        <ele>199.61</ele>
        <time>2020-02-16T13:09:36Z</time>
      </trkpt>
      <trkpt lat="43.74195" lon="1.88411">
        <ele>198.65</ele>
        <time>2020-02-16T13:09:56Z</time>
      </trkpt>
      <trkpt lat="43.74212" lon="1.88427">
        <ele>196.73</ele>
        <time>2020-02-16T13:10:14Z</time>
      </trkpt>
      <trkpt lat="43.7423" lon="1.88439">
        <ele>195.28</ele>
        <time>2020-02-16T13:10:31Z</time>
      </trkpt>
      <trkpt lat="43.7424" lon="1.88446">
        <ele>194.32</ele>
        <time>2020-02-16T13:10:42Z</time>
      </trkpt>
      <trkpt lat="43.74256" lon="1.88464">
        <ele>193.36</ele>
        <time>2020-02-16T13:11:00Z</time>
      </trkpt>
      <trkpt lat="43.74259" lon="1.88469">
        <ele>192.88</ele>
        <time>2020-02-16T13:11:06Z</time>
      </trkpt>
      <trkpt lat="43.7427" lon="1.88494">
        <ele>190.96</ele>
        <time>2020-02-16T13:11:24Z</time>
      </trkpt>
      <trkpt lat="43.74285" lon="1.88507">
        <ele>189.04</ele>
        <time>2020-02-16T13:11:40Z</time>
      </trkpt>
      <trkpt lat="43.74296" lon="1.8852">
        <ele>186.63</ele>
        <time>2020-02-16T13:11:57Z</time>
      </trkpt>
      <trkpt lat="43.74306" lon="1.8853">
        <ele>183.75</ele>
        <time>2020-02-16T13:12:10Z</time>
      </trkpt>
      <trkpt lat="43.74318" lon="1.88541">
        <ele>181.35</ele>
        <time>2020-02-16T13:12:26Z</time>
      </trkpt>
      <trkpt lat="43.74331" lon="1.88548">
        <ele>178.94</ele>
        <time>2020-02-16T13:12:42Z</time>
      </trkpt>
      <trkpt lat="43.74332" lon="1.88549">
        <ele>178.94</ele>
        <time>2020-02-16T13:12:43Z</time>
      </trkpt>
      <trkpt lat="43.74341" lon="1.88552">
        <ele>177.98</ele>
        <time>2020-02-16T13:12:59Z</time>
      </trkpt>
      <trkpt lat="43.74343" lon="1.88553">
        <ele>177.98</ele>
        <time>2020-02-16T13:13:13Z</time>
      </trkpt>
      <trkpt lat="43.74354" lon="1.88564">
        <ele>175.58</ele>
        <time>2020-02-16T13:13:30Z</time>
      </trkpt>
      <trkpt lat="43.74364" lon="1.88573">
        <ele>173.17</ele>
        <time>2020-02-16T13:13:46Z</time>
      </trkpt>
      <trkpt lat="43.7437" lon="1.88582">
        <ele>170.77</ele>
        <time>2020-02-16T13:14:01Z</time>
      </trkpt>
      <trkpt lat="43.7438" lon="1.88588">
        <ele>168.85</ele>
        <time>2020-02-16T13:14:19Z</time>
      </trkpt>
      <trkpt lat="43.74394" lon="1.88606">
        <ele>166.45</ele>
        <time>2020-02-16T13:14:36Z</time>
      </trkpt>
      <trkpt lat="43.7441" lon="1.88619">
        <ele>164.52</ele>
        <time>2020-02-16T13:14:52Z</time>
      </trkpt>
      <trkpt lat="43.74412" lon="1.8862">
        <ele>164.52</ele>
        <time>2020-02-16T13:14:54Z</time>
      </trkpt>
      <trkpt lat="43.74424" lon="1.88627">
        <ele>164.04</ele>
        <time>2020-02-16T13:15:10Z</time>
      </trkpt>
      <trkpt lat="43.74428" lon="1.88637">
        <ele>163.56</ele>
        <time>2020-02-16T13:15:24Z</time>
      </trkpt>
      <trkpt lat="43.74431" lon="1.88641">
        <ele>162.12</ele>
        <time>2020-02-16T13:15:38Z</time>
      </trkpt>
      <trkpt lat="43.74435" lon="1.88644">
        <ele>160.2</ele>
        <time>2020-02-16T13:15:55Z</time>
      </trkpt>
      <trkpt lat="43.74446" lon="1.88655">
        <ele>158.27</ele>
        <time>2020-02-16T13:16:12Z</time>
      </trkpt>
      <trkpt lat="43.74459" lon="1.88664">
        <ele>155.87</ele>
        <time>2020-02-16T13:16:33Z</time>
      </trkpt>
      <trkpt lat="43.74475" lon="1.88669">
        <ele>153.95</ele>
        <time>2020-02-16T13:16:52Z</time>
      </trkpt>
      <trkpt lat="43.74489" lon="1.88677">
        <ele>152.51</ele>
        <time>2020-02-16T13:17:08Z</time>
      </trkpt>
      <trkpt lat="43.74505" lon="1.88684">
        <ele>150.58</ele>
        <time>2020-02-16T13:17:25Z</time>
      </trkpt>
      <trkpt lat="43.74514" lon="1.88687">
        <ele>148.66</ele>
        <time>2020-02-16T13:17:38Z</time>
      </trkpt>
      <trkpt lat="43.74522" lon="1.88688">
        <ele>146.74</ele>
        <time>2020-02-16T13:17:53Z</time>
      </trkpt>
      <trkpt lat="43.74535" lon="1.88682">
        <ele>146.26</ele>
        <time>2020-02-16T13:18:11Z</time>
      </trkpt>
      <trkpt lat="43.7455" lon="1.88676">
        <ele>145.78</ele>
        <time>2020-02-16T13:18:27Z</time>
      </trkpt>
      <trkpt lat="43.74561" lon="1.8867">
        <ele>143.37</ele>
        <time>2020-02-16T13:18:44Z</time>
      </trkpt>
      <trkpt lat="43.74569" lon="1.88665">
        <ele>142.89</ele>
        <time>2020-02-16T13:19:04Z</time>
      </trkpt>
      <trkpt lat="43.74573" lon="1.88665">
        <ele>144.34</ele>
        <time>2020-02-16T13:19:12Z</time>
      </trkpt>
      <trkpt lat="43.7458" lon="1.88665">
        <ele>145.3</ele>
        <time>2020-02-16T13:19:30Z</time>
      </trkpt>
      <trkpt lat="43.74592" lon="1.88662">
        <ele>146.26</ele>
        <time>2020-02-16T13:19:53Z</time>
      </trkpt>
      <trkpt lat="43.74607" lon="1.88651">
        <ele>146.26</ele>
        <time>2020-02-16T13:20:14Z</time>
      </trkpt>
      <trkpt lat="43.74617" lon="1.88643">
        <ele>147.22</ele>
        <time>2020-02-16T13:20:34Z</time>
      </trkpt>
      <trkpt lat="43.74629" lon="1.88635">
        <ele>148.66</ele>
        <time>2020-02-16T13:20:53Z</time>
      </trkpt>
      <trkpt lat="43.74639" lon="1.8863">
        <ele>150.1</ele>
        <time>2020-02-16T13:21:10Z</time>
      </trkpt>
      <trkpt lat="43.74652" lon="1.88624">
        <ele>151.54</ele>
        <time>2020-02-16T13:21:30Z</time>
      </trkpt>
      <trkpt lat="43.74661" lon="1.88621">
        <ele>152.99</ele>
        <time>2020-02-16T13:21:50Z</time>
      </trkpt>
      <trkpt lat="43.74664" lon="1.88622">
        <ele>152.99</ele>
        <time>2020-02-16T13:22:09Z</time>
      </trkpt>
      <trkpt lat="43.74665" lon="1.88624">
        <ele>152.99</ele>
        <time>2020-02-16T13:22:28Z</time>
      </trkpt>
      <trkpt lat="43.74666" lon="1.8862">
        <ele>152.99</ele>
        <time>2020-02-16T13:22:42Z</time>
      </trkpt>
      <trkpt lat="43.74666" lon="1.88619">
        <ele>152.51</ele>
        <time>2020-02-16T13:22:59Z</time>
      </trkpt>
      <trkpt lat="43.74666" lon="1.88618">
        <ele>152.51</ele>
        <time>2020-02-16T13:23:17Z</time>
      </trkpt>
      <trkpt lat="43.74667" lon="1.88619">
        <ele>152.51</ele>
        <time>2020-02-16T13:23:36Z</time>
      </trkpt>
      <trkpt lat="43.74669" lon="1.88618">
        <ele>152.51</ele>
        <time>2020-02-16T13:23:53Z</time>
      </trkpt>
      <trkpt lat="43.74666" lon="1.8862">
        <ele>152.51</ele>
        <time>2020-02-16T13:24:10Z</time>
      </trkpt>
      <trkpt lat="43.74666" lon="1.88622">
        <ele>152.51</ele>
        <time>2020-02-16T13:24:23Z</time>
      </trkpt>
      <trkpt lat="43.74666" lon="1.88623">
        <ele>152.03</ele>
        <time>2020-02-16T13:24:39Z</time>
      </trkpt>
      <trkpt lat="43.74668" lon="1.88623">
        <ele>152.03</ele>
        <time>2020-02-16T13:24:56Z</time>
      </trkpt>
      <trkpt lat="43.74671" lon="1.88625">
        <ele>152.03</ele>
        <time>2020-02-16T13:25:14Z</time>
      </trkpt>
      <trkpt lat="43.74677" lon="1.88635">
        <ele>152.51</ele>
        <time>2020-02-16T13:25:27Z</time>
      </trkpt>
      <trkpt lat="43.74677" lon="1.88635">
        <ele>152.51</ele>
        <time>2020-02-16T13:25:28Z</time>
      </trkpt>
      <trkpt lat="43.74683" lon="1.88647">
        <ele>152.51</ele>
        <time>2020-02-16T13:25:37Z</time>
      </trkpt>
      <trkpt lat="43.74686" lon="1.88658">
        <ele>152.99</ele>
        <time>2020-02-16T13:25:46Z</time>
      </trkpt>
      <trkpt lat="43.74689" lon="1.88666">
        <ele>152.99</ele>
        <time>2020-02-16T13:25:53Z</time>
      </trkpt>
      <trkpt lat="43.74692" lon="1.88673">
        <ele>152.99</ele>
        <time>2020-02-16T13:25:58Z</time>
      </trkpt>
      <trkpt lat="43.74694" lon="1.88684">
        <ele>152.99</ele>
        <time>2020-02-16T13:26:07Z</time>
      </trkpt>
      <trkpt lat="43.74696" lon="1.88688">
        <ele>153.47</ele>
        <time>2020-02-16T13:26:10Z</time>
      </trkpt>
      <trkpt lat="43.74701" lon="1.88708">
        <ele>153.95</ele>
        <time>2020-02-16T13:26:25Z</time>
      </trkpt>
      <trkpt lat="43.74703" lon="1.88723">
        <ele>153.95</ele>
        <time>2020-02-16T13:26:36Z</time>
      </trkpt>
      <trkpt lat="43.7471" lon="1.8875">
        <ele>153.95</ele>
        <time>2020-02-16T13:26:57Z</time>
      </trkpt>
      <trkpt lat="43.74713" lon="1.88772">
        <ele>153.95</ele>
        <time>2020-02-16T13:27:13Z</time>
      </trkpt>
      <trkpt lat="43.74716" lon="1.88789">
        <ele>154.91</ele>
        <time>2020-02-16T13:27:29Z</time>
      </trkpt>
      <trkpt lat="43.74712" lon="1.88787">
        <ele>155.87</ele>
        <time>2020-02-16T13:27:44Z</time>
      </trkpt>
      <trkpt lat="43.7471" lon="1.88779">
        <ele>156.35</ele>
        <time>2020-02-16T13:28:01Z</time>
      </trkpt>
      <trkpt lat="43.74708" lon="1.88773">
        <ele>158.27</ele>
        <time>2020-02-16T13:28:06Z</time>
      </trkpt>
      <trkpt lat="43.74705" lon="1.88768">
        <ele>158.27</ele>
        <time>2020-02-16T13:28:11Z</time>
      </trkpt>
      <trkpt lat="43.74698" lon="1.8876">
        <ele>158.27</ele>
        <time>2020-02-16T13:28:26Z</time>
      </trkpt>
      <trkpt lat="43.74692" lon="1.88741">
        <ele>159.72</ele>
        <time>2020-02-16T13:28:46Z</time>
      </trkpt>
      <trkpt lat="43.74682" lon="1.88725">
        <ele>161.16</ele>
        <time>2020-02-16T13:29:03Z</time>
      </trkpt>
      <trkpt lat="43.74676" lon="1.88727">
        <ele>161.16</ele>
        <time>2020-02-16T13:29:18Z</time>
      </trkpt>
      <trkpt lat="43.74667" lon="1.88728">
        <ele>162.12</ele>
        <time>2020-02-16T13:29:32Z</time>
      </trkpt>
      <trkpt lat="43.74659" lon="1.8874">
        <ele>164.52</ele>
        <time>2020-02-16T13:29:48Z</time>
      </trkpt>
      <trkpt lat="43.7465" lon="1.8876">
        <ele>165.96</ele>
        <time>2020-02-16T13:30:06Z</time>
      </trkpt>
      <trkpt lat="43.74644" lon="1.88776">
        <ele>167.41</ele>
        <time>2020-02-16T13:30:20Z</time>
      </trkpt>
      <trkpt lat="43.74637" lon="1.88793">
        <ele>169.33</ele>
        <time>2020-02-16T13:30:36Z</time>
      </trkpt>
      <trkpt lat="43.74631" lon="1.88809">
        <ele>170.77</ele>
        <time>2020-02-16T13:30:53Z</time>
      </trkpt>
      <trkpt lat="43.74622" lon="1.88829">
        <ele>173.66</ele>
        <time>2020-02-16T13:31:15Z</time>
      </trkpt>
      <trkpt lat="43.74613" lon="1.88842">
        <ele>175.58</ele>
        <time>2020-02-16T13:31:33Z</time>
      </trkpt>
      <trkpt lat="43.74603" lon="1.88851">
        <ele>177.98</ele>
        <time>2020-02-16T13:31:51Z</time>
      </trkpt>
      <trkpt lat="43.74593" lon="1.8886">
        <ele>180.38</ele>
        <time>2020-02-16T13:32:08Z</time>
      </trkpt>
      <trkpt lat="43.74582" lon="1.88885">
        <ele>182.31</ele>
        <time>2020-02-16T13:32:25Z</time>
      </trkpt>
      <trkpt lat="43.74581" lon="1.88892">
        <ele>183.27</ele>
        <time>2020-02-16T13:32:38Z</time>
      </trkpt>
      <trkpt lat="43.74576" lon="1.88906">
        <ele>184.71</ele>
        <time>2020-02-16T13:32:53Z</time>
      </trkpt>
      <trkpt lat="43.74571" lon="1.88924">
        <ele>185.67</ele>
        <time>2020-02-16T13:33:09Z</time>
      </trkpt>
      <trkpt lat="43.74564" lon="1.88938">
        <ele>187.59</ele>
        <time>2020-02-16T13:33:26Z</time>
      </trkpt>
      <trkpt lat="43.74555" lon="1.88957">
        <ele>188.56</ele>
        <time>2020-02-16T13:33:45Z</time>
      </trkpt>
      <trkpt lat="43.74547" lon="1.88977">
        <ele>189.04</ele>
        <time>2020-02-16T13:34:03Z</time>
      </trkpt>
      <trkpt lat="43.74539" lon="1.88992">
        <ele>191.44</ele>
        <time>2020-02-16T13:34:20Z</time>
      </trkpt>
      <trkpt lat="43.74536" lon="1.89004">
        <ele>192.88</ele>
        <time>2020-02-16T13:34:33Z</time>
      </trkpt>
      <trkpt lat="43.74536" lon="1.89013">
        <ele>194.32</ele>
        <time>2020-02-16T13:34:48Z</time>
      </trkpt>
      <trkpt lat="43.74527" lon="1.89024">
        <ele>195.77</ele>
        <time>2020-02-16T13:35:06Z</time>
      </trkpt>
      <trkpt lat="43.74518" lon="1.89037">
        <ele>197.21</ele>
        <time>2020-02-16T13:35:18Z</time>
      </trkpt>
      <trkpt lat="43.74515" lon="1.89051">
        <ele>197.69</ele>
        <time>2020-02-16T13:35:33Z</time>
      </trkpt>
      <trkpt lat="43.74512" lon="1.89067">
        <ele>199.13</ele>
        <time>2020-02-16T13:35:49Z</time>
      </trkpt>
      <trkpt lat="43.74512" lon="1.89076">
        <ele>199.13</ele>
        <time>2020-02-16T13:36:02Z</time>
      </trkpt>
      <trkpt lat="43.74513" lon="1.89095">
        <ele>199.61</ele>
        <time>2020-02-16T13:36:20Z</time>
      </trkpt>
      <trkpt lat="43.74511" lon="1.89113">
        <ele>200.09</ele>
        <time>2020-02-16T13:36:33Z</time>
      </trkpt>
      <trkpt lat="43.74509" lon="1.8914">
        <ele>198.65</ele>
        <time>2020-02-16T13:36:51Z</time>
      </trkpt>
      <trkpt lat="43.74504" lon="1.89162">
        <ele>198.17</ele>
        <time>2020-02-16T13:37:07Z</time>
      </trkpt>
      <trkpt lat="43.74503" lon="1.89186">
        <ele>198.17</ele>
        <time>2020-02-16T13:37:25Z</time>
      </trkpt>
      <trkpt lat="43.74503" lon="1.89213">
        <ele>199.61</ele>
        <time>2020-02-16T13:37:43Z</time>
      </trkpt>
      <trkpt lat="43.74504" lon="1.89235">
        <ele>200.57</ele>
        <time>2020-02-16T13:38:00Z</time>
      </trkpt>
      <trkpt lat="43.74501" lon="1.89255">
        <ele>201.05</ele>
        <time>2020-02-16T13:38:16Z</time>
      </trkpt>
      <trkpt lat="43.74497" lon="1.89273">
        <ele>201.05</ele>
        <time>2020-02-16T13:38:30Z</time>
      </trkpt>
      <trkpt lat="43.74494" lon="1.89294">
        <ele>201.53</ele>
        <time>2020-02-16T13:38:47Z</time>
      </trkpt>
      <trkpt lat="43.74491" lon="1.89314">
        <ele>201.53</ele>
        <time>2020-02-16T13:39:03Z</time>
      </trkpt>
      <trkpt lat="43.74488" lon="1.89331">
        <ele>201.53</ele>
        <time>2020-02-16T13:39:17Z</time>
      </trkpt>
      <trkpt lat="43.74487" lon="1.89346">
        <ele>201.53</ele>
        <time>2020-02-16T13:39:28Z</time>
      </trkpt>
      <trkpt lat="43.74485" lon="1.89371">
        <ele>202.01</ele>
        <time>2020-02-16T13:39:46Z</time>
      </trkpt>
      <trkpt lat="43.74486" lon="1.89387">
        <ele>202.49</ele>
        <time>2020-02-16T13:39:54Z</time>
      </trkpt>
      <trkpt lat="43.74487" lon="1.89405">
        <ele>202.49</ele>
        <time>2020-02-16T13:40:09Z</time>
      </trkpt>
      <trkpt lat="43.74488" lon="1.89425">
        <ele>202.49</ele>
        <time>2020-02-16T13:40:26Z</time>
      </trkpt>
      <trkpt lat="43.74489" lon="1.89441">
        <ele>202.98</ele>
        <time>2020-02-16T13:40:41Z</time>
      </trkpt>
      <trkpt lat="43.74489" lon="1.89457">
        <ele>202.98</ele>
        <time>2020-02-16T13:40:55Z</time>
      </trkpt>
      <trkpt lat="43.74488" lon="1.89477">
        <ele>203.46</ele>
        <time>2020-02-16T13:41:11Z</time>
      </trkpt>
      <trkpt lat="43.74487" lon="1.89484">
        <ele>203.46</ele>
        <time>2020-02-16T13:41:17Z</time>
      </trkpt>
      <trkpt lat="43.74485" lon="1.89494">
        <ele>203.46</ele>
        <time>2020-02-16T13:41:24Z</time>
      </trkpt>
      <trkpt lat="43.74477" lon="1.89518">
        <ele>203.94</ele>
        <time>2020-02-16T13:41:42Z</time>
      </trkpt>
      <trkpt lat="43.74469" lon="1.89541">
        <ele>203.94</ele>
        <time>2020-02-16T13:42:00Z</time>
      </trkpt>
      <trkpt lat="43.74461" lon="1.89568">
        <ele>203.94</ele>
        <time>2020-02-16T13:42:20Z</time>
      </trkpt>
      <trkpt lat="43.74456" lon="1.89588">
        <ele>203.94</ele>
        <time>2020-02-16T13:42:36Z</time>
      </trkpt>
      <trkpt lat="43.74454" lon="1.89614">
        <ele>201.05</ele>
        <time>2020-02-16T13:42:55Z</time>
      </trkpt>
      <trkpt lat="43.74459" lon="1.89634">
        <ele>200.57</ele>
        <time>2020-02-16T13:43:12Z</time>
      </trkpt>
      <trkpt lat="43.74472" lon="1.89642">
        <ele>199.61</ele>
        <time>2020-02-16T13:43:30Z</time>
      </trkpt>
      <trkpt lat="43.74485" lon="1.89646">
        <ele>196.73</ele>
        <time>2020-02-16T13:43:49Z</time>
      </trkpt>
      <trkpt lat="43.74497" lon="1.89649">
        <ele>194.32</ele>
        <time>2020-02-16T13:44:06Z</time>
      </trkpt>
      <trkpt lat="43.74513" lon="1.89646">
        <ele>191.44</ele>
        <time>2020-02-16T13:44:26Z</time>
      </trkpt>
      <trkpt lat="43.74525" lon="1.89646">
        <ele>189.04</ele>
        <time>2020-02-16T13:44:45Z</time>
      </trkpt>
      <trkpt lat="43.74537" lon="1.89645">
        <ele>185.67</ele>
        <time>2020-02-16T13:45:04Z</time>
      </trkpt>
      <trkpt lat="43.74551" lon="1.89647">
        <ele>182.31</ele>
        <time>2020-02-16T13:45:21Z</time>
      </trkpt>
      <trkpt lat="43.74566" lon="1.89648">
        <ele>179.9</ele>
        <time>2020-02-16T13:45:38Z</time>
      </trkpt>
      <trkpt lat="43.74577" lon="1.89651">
        <ele>176.54</ele>
        <time>2020-02-16T13:45:55Z</time>
      </trkpt>
      <trkpt lat="43.7459" lon="1.89654">
        <ele>173.17</ele>
        <time>2020-02-16T13:46:15Z</time>
      </trkpt>
      <trkpt lat="43.74603" lon="1.89657">
        <ele>170.77</ele>
        <time>2020-02-16T13:46:34Z</time>
      </trkpt>
      <trkpt lat="43.74622" lon="1.89661">
        <ele>167.41</ele>
        <time>2020-02-16T13:46:53Z</time>
      </trkpt>
      <trkpt lat="43.74637" lon="1.89668">
        <ele>165.96</ele>
        <time>2020-02-16T13:47:11Z</time>
      </trkpt>
      <trkpt lat="43.74653" lon="1.89673">
        <ele>163.56</ele>
        <time>2020-02-16T13:47:30Z</time>
      </trkpt>
      <trkpt lat="43.74656" lon="1.89674">
        <ele>163.08</ele>
        <time>2020-02-16T13:47:33Z</time>
      </trkpt>
      <trkpt lat="43.74672" lon="1.89679">
        <ele>161.64</ele>
        <time>2020-02-16T13:47:51Z</time>
      </trkpt>
      <trkpt lat="43.74681" lon="1.89683">
        <ele>159.72</ele>
        <time>2020-02-16T13:48:02Z</time>
      </trkpt>
      <trkpt lat="43.74694" lon="1.89683">
        <ele>158.75</ele>
        <time>2020-02-16T13:48:16Z</time>
      </trkpt>
      <trkpt lat="43.74697" lon="1.89682">
        <ele>158.27</ele>
        <time>2020-02-16T13:48:19Z</time>
      </trkpt>
      <trkpt lat="43.74702" lon="1.89684">
        <ele>158.27</ele>
        <time>2020-02-16T13:48:25Z</time>
      </trkpt>
      <trkpt lat="43.74722" lon="1.89693">
        <ele>155.87</ele>
        <time>2020-02-16T13:48:46Z</time>
      </trkpt>
      <trkpt lat="43.74742" lon="1.89701">
        <ele>153.95</ele>
        <time>2020-02-16T13:49:07Z</time>
      </trkpt>
      <trkpt lat="43.74747" lon="1.89706">
        <ele>153.47</ele>
        <time>2020-02-16T13:49:14Z</time>
      </trkpt>
      <trkpt lat="43.74766" lon="1.89713">
        <ele>152.03</ele>
        <time>2020-02-16T13:49:34Z</time>
      </trkpt>
      <trkpt lat="43.74767" lon="1.89714">
        <ele>152.03</ele>
        <time>2020-02-16T13:49:36Z</time>
      </trkpt>
      <trkpt lat="43.74783" lon="1.89723">
        <ele>151.54</ele>
        <time>2020-02-16T13:49:53Z</time>
      </trkpt>
      <trkpt lat="43.7479" lon="1.89721">
        <ele>150.58</ele>
        <time>2020-02-16T13:50:07Z</time>
      </trkpt>
      <trkpt lat="43.74799" lon="1.89725">
        <ele>150.58</ele>
        <time>2020-02-16T13:50:22Z</time>
      </trkpt>
      <trkpt lat="43.74802" lon="1.89729">
        <ele>150.1</ele>
        <time>2020-02-16T13:50:34Z</time>
      </trkpt>
      <trkpt lat="43.74801" lon="1.89736">
        <ele>150.1</ele>
        <time>2020-02-16T13:50:40Z</time>
      </trkpt>
      <trkpt lat="43.74797" lon="1.8976">
        <ele>150.1</ele>
        <time>2020-02-16T13:51:00Z</time>
      </trkpt>
      <trkpt lat="43.74798" lon="1.89783">
        <ele>151.54</ele>
        <time>2020-02-16T13:51:16Z</time>
      </trkpt>
      <trkpt lat="43.74799" lon="1.89807">
        <ele>151.06</ele>
        <time>2020-02-16T13:51:33Z</time>
      </trkpt>
      <trkpt lat="43.74802" lon="1.89834">
        <ele>151.54</ele>
        <time>2020-02-16T13:51:51Z</time>
      </trkpt>
      <trkpt lat="43.74803" lon="1.89857">
        <ele>151.54</ele>
        <time>2020-02-16T13:52:07Z</time>
      </trkpt>
      <trkpt lat="43.74801" lon="1.89877">
        <ele>152.51</ele>
        <time>2020-02-16T13:52:22Z</time>
      </trkpt>
      <trkpt lat="43.748" lon="1.89889">
        <ele>152.99</ele>
        <time>2020-02-16T13:52:32Z</time>
      </trkpt>
      <trkpt lat="43.74797" lon="1.89902">
        <ele>152.99</ele>
        <time>2020-02-16T13:52:45Z</time>
      </trkpt>
      <trkpt lat="43.74787" lon="1.89915">
        <ele>152.99</ele>
        <time>2020-02-16T13:52:59Z</time>
      </trkpt>
      <trkpt lat="43.74778" lon="1.89926">
        <ele>152.99</ele>
        <time>2020-02-16T13:53:14Z</time>
      </trkpt>
      <trkpt lat="43.74768" lon="1.89943">
        <ele>152.99</ele>
        <time>2020-02-16T13:53:30Z</time>
      </trkpt>
      <trkpt lat="43.74762" lon="1.89963">
        <ele>153.47</ele>
        <time>2020-02-16T13:53:44Z</time>
      </trkpt>
      <trkpt lat="43.74758" lon="1.89968">
        <ele>153.47</ele>
        <time>2020-02-16T13:53:50Z</time>
      </trkpt>
      <trkpt lat="43.74753" lon="1.89972">
        <ele>152.99</ele>
        <time>2020-02-16T13:54:07Z</time>
      </trkpt>
      <trkpt lat="43.74753" lon="1.89972">
        <ele>152.99</ele>
        <time>2020-02-16T13:54:39Z</time>
      </trkpt>
      <trkpt lat="43.74753" lon="1.89974">
        <ele>152.99</ele>
        <time>2020-02-16T13:55:08Z</time>
      </trkpt>
      <trkpt lat="43.74753" lon="1.89971">
        <ele>152.99</ele>
        <time>2020-02-16T13:55:37Z</time>
      </trkpt>
      <trkpt lat="43.74755" lon="1.89974">
        <ele>153.47</ele>
        <time>2020-02-16T13:56:03Z</time>
      </trkpt>
      <trkpt lat="43.74754" lon="1.89973">
        <ele>152.99</ele>
        <time>2020-02-16T13:56:27Z</time>
      </trkpt>
      <trkpt lat="43.74753" lon="1.89974">
        <ele>152.99</ele>
        <time>2020-02-16T13:56:53Z</time>
      </trkpt>
      <trkpt lat="43.74737" lon="1.89989">
        <ele>153.47</ele>
        <time>2020-02-16T13:57:12Z</time>
      </trkpt>
      <trkpt lat="43.74723" lon="1.90006">
        <ele>153.95</ele>
        <time>2020-02-16T13:57:29Z</time>
      </trkpt>
      <trkpt lat="43.74705" lon="1.90028">
        <ele>153.47</ele>
        <time>2020-02-16T13:57:49Z</time>
      </trkpt>
      <trkpt lat="43.74693" lon="1.90043">
        <ele>153.95</ele>
        <time>2020-02-16T13:58:05Z</time>
      </trkpt>
      <trkpt lat="43.74676" lon="1.90061">
        <ele>154.43</ele>
        <time>2020-02-16T13:58:24Z</time>
      </trkpt>
      <trkpt lat="43.74665" lon="1.90072">
        <ele>154.91</ele>
        <time>2020-02-16T13:58:35Z</time>
      </trkpt>
      <trkpt lat="43.7466" lon="1.90077">
        <ele>155.39</ele>
        <time>2020-02-16T13:58:40Z</time>
      </trkpt>
      <trkpt lat="43.74643" lon="1.90098">
        <ele>155.87</ele>
        <time>2020-02-16T13:59:00Z</time>
      </trkpt>
      <trkpt lat="43.74627" lon="1.90117">
        <ele>156.35</ele>
        <time>2020-02-16T13:59:19Z</time>
      </trkpt>
      <trkpt lat="43.74614" lon="1.90135">
        <ele>156.35</ele>
        <time>2020-02-16T13:59:34Z</time>
      </trkpt>
      <trkpt lat="43.74598" lon="1.90152">
        <ele>157.31</ele>
        <time>2020-02-16T13:59:53Z</time>
      </trkpt>
      <trkpt lat="43.74582" lon="1.90169">
        <ele>157.79</ele>
        <time>2020-02-16T14:00:11Z</time>
      </trkpt>
      <trkpt lat="43.74569" lon="1.90186">
        <ele>158.75</ele>
        <time>2020-02-16T14:00:27Z</time>
      </trkpt>
      <trkpt lat="43.74553" lon="1.90206">
        <ele>160.2</ele>
        <time>2020-02-16T14:00:47Z</time>
      </trkpt>
      <trkpt lat="43.7454" lon="1.90223">
        <ele>162.12</ele>
        <time>2020-02-16T14:01:05Z</time>
      </trkpt>
      <trkpt lat="43.74538" lon="1.90226">
        <ele>162.12</ele>
        <time>2020-02-16T14:01:09Z</time>
      </trkpt>
      <trkpt lat="43.74532" lon="1.90231">
        <ele>162.6</ele>
        <time>2020-02-16T14:01:16Z</time>
      </trkpt>
      <trkpt lat="43.74524" lon="1.90243">
        <ele>162.6</ele>
        <time>2020-02-16T14:01:32Z</time>
      </trkpt>
      <trkpt lat="43.74524" lon="1.90244">
        <ele>162.6</ele>
        <time>2020-02-16T14:01:33Z</time>
      </trkpt>
      <trkpt lat="43.74513" lon="1.90261">
        <ele>163.56</ele>
        <time>2020-02-16T14:01:48Z</time>
      </trkpt>
      <trkpt lat="43.74503" lon="1.90275">
        <ele>164.04</ele>
        <time>2020-02-16T14:02:03Z</time>
      </trkpt>
      <trkpt lat="43.74488" lon="1.90289">
        <ele>164.04</ele>
        <time>2020-02-16T14:02:19Z</time>
      </trkpt>
      <trkpt lat="43.74473" lon="1.90314">
        <ele>164.04</ele>
        <time>2020-02-16T14:02:39Z</time>
      </trkpt>
      <trkpt lat="43.74461" lon="1.90331">
        <ele>164.52</ele>
        <time>2020-02-16T14:02:55Z</time>
      </trkpt>
      <trkpt lat="43.74452" lon="1.90352">
        <ele>165.48</ele>
        <time>2020-02-16T14:03:13Z</time>
      </trkpt>
      <trkpt lat="43.74453" lon="1.90356">
        <ele>165.48</ele>
        <time>2020-02-16T14:03:26Z</time>
      </trkpt>
      <trkpt lat="43.74455" lon="1.90358">
        <ele>165.48</ele>
        <time>2020-02-16T14:03:44Z</time>
      </trkpt>
      <trkpt lat="43.74456" lon="1.9036">
        <ele>165.48</ele>
        <time>2020-02-16T14:04:01Z</time>
      </trkpt>
      <trkpt lat="43.7446" lon="1.90363">
        <ele>165.48</ele>
        <time>2020-02-16T14:04:12Z</time>
      </trkpt>
      <trkpt lat="43.74476" lon="1.90375">
        <ele>165</ele>
        <time>2020-02-16T14:04:29Z</time>
      </trkpt>
      <trkpt lat="43.74483" lon="1.90382">
        <ele>164.04</ele>
        <time>2020-02-16T14:04:38Z</time>
      </trkpt>
      <trkpt lat="43.74484" lon="1.90399">
        <ele>164.04</ele>
        <time>2020-02-16T14:04:51Z</time>
      </trkpt>
      <trkpt lat="43.74475" lon="1.90417">
        <ele>164.04</ele>
        <time>2020-02-16T14:05:07Z</time>
      </trkpt>
      <trkpt lat="43.74463" lon="1.9044">
        <ele>165</ele>
        <time>2020-02-16T14:05:26Z</time>
      </trkpt>
      <trkpt lat="43.74454" lon="1.90456">
        <ele>166.45</ele>
        <time>2020-02-16T14:05:41Z</time>
      </trkpt>
      <trkpt lat="43.74443" lon="1.90472">
        <ele>167.41</ele>
        <time>2020-02-16T14:05:57Z</time>
      </trkpt>
      <trkpt lat="43.74433" lon="1.90484">
        <ele>168.85</ele>
        <time>2020-02-16T14:06:13Z</time>
      </trkpt>
      <trkpt lat="43.74432" lon="1.90485">
        <ele>168.85</ele>
        <time>2020-02-16T14:06:14Z</time>
      </trkpt>
      <trkpt lat="43.74428" lon="1.90488">
        <ele>169.33</ele>
        <time>2020-02-16T14:06:19Z</time>
      </trkpt>
      <trkpt lat="43.74414" lon="1.905">
        <ele>170.77</ele>
        <time>2020-02-16T14:06:36Z</time>
      </trkpt>
      <trkpt lat="43.74398" lon="1.90514">
        <ele>172.21</ele>
        <time>2020-02-16T14:06:53Z</time>
      </trkpt>
      <trkpt lat="43.74384" lon="1.90524">
        <ele>173.66</ele>
        <time>2020-02-16T14:07:09Z</time>
      </trkpt>
      <trkpt lat="43.74372" lon="1.90535">
        <ele>174.62</ele>
        <time>2020-02-16T14:07:24Z</time>
      </trkpt>
      <trkpt lat="43.74363" lon="1.90544">
        <ele>176.06</ele>
        <time>2020-02-16T14:07:38Z</time>
      </trkpt>
      <trkpt lat="43.74353" lon="1.90555">
        <ele>177.98</ele>
        <time>2020-02-16T14:07:54Z</time>
      </trkpt>
      <trkpt lat="43.74347" lon="1.90561">
        <ele>177.98</ele>
        <time>2020-02-16T14:08:09Z</time>
      </trkpt>
      <trkpt lat="43.74337" lon="1.90571">
        <ele>179.9</ele>
        <time>2020-02-16T14:08:23Z</time>
      </trkpt>
      <trkpt lat="43.74328" lon="1.9058">
        <ele>180.87</ele>
        <time>2020-02-16T14:08:36Z</time>
      </trkpt>
      <trkpt lat="43.74317" lon="1.90592">
        <ele>181.35</ele>
        <time>2020-02-16T14:08:52Z</time>
      </trkpt>
      <trkpt lat="43.74303" lon="1.90604">
        <ele>182.31</ele>
        <time>2020-02-16T14:09:10Z</time>
      </trkpt>
      <trkpt lat="43.74297" lon="1.90612">
        <ele>182.31</ele>
        <time>2020-02-16T14:09:21Z</time>
      </trkpt>
      <trkpt lat="43.74286" lon="1.90621">
        <ele>182.79</ele>
        <time>2020-02-16T14:09:35Z</time>
      </trkpt>
      <trkpt lat="43.74273" lon="1.90636">
        <ele>183.27</ele>
        <time>2020-02-16T14:09:53Z</time>
      </trkpt>
      <trkpt lat="43.74258" lon="1.90651">
        <ele>183.75</ele>
        <time>2020-02-16T14:10:13Z</time>
      </trkpt>
      <trkpt lat="43.74243" lon="1.9066">
        <ele>184.23</ele>
        <time>2020-02-16T14:10:31Z</time>
      </trkpt>
      <trkpt lat="43.74225" lon="1.90674">
        <ele>184.71</ele>
        <time>2020-02-16T14:10:48Z</time>
      </trkpt>
      <trkpt lat="43.7421" lon="1.90685">
        <ele>185.19</ele>
        <time>2020-02-16T14:11:03Z</time>
      </trkpt>
      <trkpt lat="43.742" lon="1.90692">
        <ele>185.67</ele>
        <time>2020-02-16T14:11:15Z</time>
      </trkpt>
      <trkpt lat="43.74181" lon="1.90706">
        <ele>185.67</ele>
        <time>2020-02-16T14:11:33Z</time>
      </trkpt>
      <trkpt lat="43.74169" lon="1.90712">
        <ele>186.15</ele>
        <time>2020-02-16T14:11:46Z</time>
      </trkpt>
      <trkpt lat="43.74153" lon="1.90724">
        <ele>186.63</ele>
        <time>2020-02-16T14:12:02Z</time>
      </trkpt>
      <trkpt lat="43.74134" lon="1.90736">
        <ele>186.63</ele>
        <time>2020-02-16T14:12:21Z</time>
      </trkpt>
      <trkpt lat="43.74119" lon="1.90747">
        <ele>188.56</ele>
        <time>2020-02-16T14:12:39Z</time>
      </trkpt>
      <trkpt lat="43.74098" lon="1.90758">
        <ele>189.04</ele>
        <time>2020-02-16T14:12:58Z</time>
      </trkpt>
      <trkpt lat="43.74083" lon="1.90768">
        <ele>190</ele>
        <time>2020-02-16T14:13:12Z</time>
      </trkpt>
      <trkpt lat="43.74065" lon="1.90783">
        <ele>191.44</ele>
        <time>2020-02-16T14:13:33Z</time>
      </trkpt>
      <trkpt lat="43.74049" lon="1.90797">
        <ele>193.84</ele>
        <time>2020-02-16T14:13:51Z</time>
      </trkpt>
      <trkpt lat="43.74032" lon="1.90808">
        <ele>193.84</ele>
        <time>2020-02-16T14:14:08Z</time>
      </trkpt>
      <trkpt lat="43.7403" lon="1.90809">
        <ele>193.84</ele>
        <time>2020-02-16T14:14:10Z</time>
      </trkpt>
      <trkpt lat="43.74028" lon="1.9081">
        <ele>194.32</ele>
        <time>2020-02-16T14:14:13Z</time>
      </trkpt>
      <trkpt lat="43.74011" lon="1.90824">
        <ele>195.77</ele>
        <time>2020-02-16T14:14:33Z</time>
      </trkpt>
      <trkpt lat="43.73994" lon="1.90835">
        <ele>197.21</ele>
        <time>2020-02-16T14:14:52Z</time>
      </trkpt>
      <trkpt lat="43.73978" lon="1.90844">
        <ele>198.65</ele>
        <time>2020-02-16T14:15:09Z</time>
      </trkpt>
      <trkpt lat="43.73963" lon="1.90853">
        <ele>199.13</ele>
        <time>2020-02-16T14:15:25Z</time>
      </trkpt>
      <trkpt lat="43.73948" lon="1.90859">
        <ele>200.57</ele>
        <time>2020-02-16T14:15:41Z</time>
      </trkpt>
      <trkpt lat="43.73933" lon="1.90865">
        <ele>201.53</ele>
        <time>2020-02-16T14:15:56Z</time>
      </trkpt>
      <trkpt lat="43.73915" lon="1.90872">
        <ele>202.49</ele>
        <time>2020-02-16T14:16:14Z</time>
      </trkpt>
      <trkpt lat="43.73902" lon="1.90877">
        <ele>203.46</ele>
        <time>2020-02-16T14:16:28Z</time>
      </trkpt>
      <trkpt lat="43.73885" lon="1.90883">
        <ele>203.46</ele>
        <time>2020-02-16T14:16:44Z</time>
      </trkpt>
      <trkpt lat="43.73867" lon="1.90891">
        <ele>203.94</ele>
        <time>2020-02-16T14:17:01Z</time>
      </trkpt>
      <trkpt lat="43.73852" lon="1.90898">
        <ele>204.9</ele>
        <time>2020-02-16T14:17:19Z</time>
      </trkpt>
      <trkpt lat="43.73834" lon="1.90904">
        <ele>205.86</ele>
        <time>2020-02-16T14:17:36Z</time>
      </trkpt>
      <trkpt lat="43.7382" lon="1.9091">
        <ele>206.82</ele>
        <time>2020-02-16T14:17:51Z</time>
      </trkpt>
      <trkpt lat="43.73805" lon="1.90916">
        <ele>208.26</ele>
        <time>2020-02-16T14:18:06Z</time>
      </trkpt>
      <trkpt lat="43.73789" lon="1.90924">
        <ele>208.74</ele>
        <time>2020-02-16T14:18:22Z</time>
      </trkpt>
      <trkpt lat="43.73776" lon="1.90928">
        <ele>209.7</ele>
        <time>2020-02-16T14:18:36Z</time>
      </trkpt>
      <trkpt lat="43.73766" lon="1.90933">
        <ele>210.67</ele>
        <time>2020-02-16T14:18:47Z</time>
      </trkpt>
      <trkpt lat="43.73747" lon="1.9094">
        <ele>212.59</ele>
        <time>2020-02-16T14:19:07Z</time>
      </trkpt>
      <trkpt lat="43.73735" lon="1.90946">
        <ele>214.03</ele>
        <time>2020-02-16T14:19:21Z</time>
      </trkpt>
      <trkpt lat="43.7372" lon="1.90952">
        <ele>215.47</ele>
        <time>2020-02-16T14:19:37Z</time>
      </trkpt>
      <trkpt lat="43.73706" lon="1.90958">
        <ele>217.88</ele>
        <time>2020-02-16T14:19:55Z</time>
      </trkpt>
      <trkpt lat="43.73692" lon="1.90963">
        <ele>219.8</ele>
        <time>2020-02-16T14:20:13Z</time>
      </trkpt>
      <trkpt lat="43.73677" lon="1.90968">
        <ele>222.2</ele>
        <time>2020-02-16T14:20:31Z</time>
      </trkpt>
      <trkpt lat="43.73662" lon="1.90973">
        <ele>223.64</ele>
        <time>2020-02-16T14:20:49Z</time>
      </trkpt>
      <trkpt lat="43.73649" lon="1.90977">
        <ele>225.57</ele>
        <time>2020-02-16T14:21:06Z</time>
      </trkpt>
      <trkpt lat="43.73636" lon="1.90979">
        <ele>226.05</ele>
        <time>2020-02-16T14:21:22Z</time>
      </trkpt>
      <trkpt lat="43.73623" lon="1.90983">
        <ele>227.49</ele>
        <time>2020-02-16T14:21:39Z</time>
      </trkpt>
      <trkpt lat="43.73612" lon="1.90986">
        <ele>228.45</ele>
        <time>2020-02-16T14:21:55Z</time>
      </trkpt>
      <trkpt lat="43.73602" lon="1.90989">
        <ele>229.89</ele>
        <time>2020-02-16T14:22:11Z</time>
      </trkpt>
      <trkpt lat="43.73596" lon="1.90996">
        <ele>230.37</ele>
        <time>2020-02-16T14:22:33Z</time>
      </trkpt>
      <trkpt lat="43.73599" lon="1.90994">
        <ele>230.37</ele>
        <time>2020-02-16T14:22:48Z</time>
      </trkpt>
      <trkpt lat="43.73599" lon="1.90994">
        <ele>230.37</ele>
        <time>2020-02-16T14:23:10Z</time>
      </trkpt>
      <trkpt lat="43.73599" lon="1.90993">
        <ele>230.37</ele>
        <time>2020-02-16T14:23:28Z</time>
      </trkpt>
      <trkpt lat="43.736" lon="1.90994">
        <ele>230.37</ele>
        <time>2020-02-16T14:23:45Z</time>
      </trkpt>
      <trkpt lat="43.73599" lon="1.90993">
        <ele>230.37</ele>
        <time>2020-02-16T14:24:04Z</time>
      </trkpt>
      <trkpt lat="43.73599" lon="1.90994">
        <ele>230.37</ele>
        <time>2020-02-16T14:24:25Z</time>
      </trkpt>
      <trkpt lat="43.73597" lon="1.90997">
        <ele>230.37</ele>
        <time>2020-02-16T14:24:48Z</time>
      </trkpt>
      <trkpt lat="43.73596" lon="1.90998">
        <ele>230.37</ele>
        <time>2020-02-16T14:25:16Z</time>
      </trkpt>
      <trkpt lat="43.73594" lon="1.90995">
        <ele>230.85</ele>
        <time>2020-02-16T14:25:46Z</time>
      </trkpt>
      <trkpt lat="43.73586" lon="1.90996">
        <ele>231.33</ele>
        <time>2020-02-16T14:26:02Z</time>
      </trkpt>
      <trkpt lat="43.7357" lon="1.90997">
        <ele>232.3</ele>
        <time>2020-02-16T14:26:18Z</time>
      </trkpt>
      <trkpt lat="43.73552" lon="1.90999">
        <ele>232.3</ele>
        <time>2020-02-16T14:26:36Z</time>
      </trkpt>
      <trkpt lat="43.73534" lon="1.91001">
        <ele>232.78</ele>
        <time>2020-02-16T14:26:51Z</time>
      </trkpt>
      <trkpt lat="43.7352" lon="1.91004">
        <ele>232.78</ele>
        <time>2020-02-16T14:27:03Z</time>
      </trkpt>
      <trkpt lat="43.73502" lon="1.91014">
        <ele>232.78</ele>
        <time>2020-02-16T14:27:19Z</time>
      </trkpt>
      <trkpt lat="43.73484" lon="1.91022">
        <ele>233.26</ele>
        <time>2020-02-16T14:27:37Z</time>
      </trkpt>
      <trkpt lat="43.73469" lon="1.91026">
        <ele>235.18</ele>
        <time>2020-02-16T14:27:53Z</time>
      </trkpt>
      <trkpt lat="43.73451" lon="1.9103">
        <ele>237.1</ele>
        <time>2020-02-16T14:28:11Z</time>
      </trkpt>
      <trkpt lat="43.73434" lon="1.91032">
        <ele>237.58</ele>
        <time>2020-02-16T14:28:28Z</time>
      </trkpt>
      <trkpt lat="43.73416" lon="1.91039">
        <ele>239.02</ele>
        <time>2020-02-16T14:28:47Z</time>
      </trkpt>
      <trkpt lat="43.73397" lon="1.91054">
        <ele>239.99</ele>
        <time>2020-02-16T14:29:06Z</time>
      </trkpt>
      <trkpt lat="43.73381" lon="1.91073">
        <ele>239.99</ele>
        <time>2020-02-16T14:29:24Z</time>
      </trkpt>
      <trkpt lat="43.73359" lon="1.9109">
        <ele>238.06</ele>
        <time>2020-02-16T14:29:45Z</time>
      </trkpt>
      <trkpt lat="43.73335" lon="1.91103">
        <ele>237.58</ele>
        <time>2020-02-16T14:30:08Z</time>
      </trkpt>
      <trkpt lat="43.73317" lon="1.91114">
        <ele>237.58</ele>
        <time>2020-02-16T14:30:25Z</time>
      </trkpt>
      <trkpt lat="43.73296" lon="1.91125">
        <ele>237.58</ele>
        <time>2020-02-16T14:30:43Z</time>
      </trkpt>
      <trkpt lat="43.73275" lon="1.91135">
        <ele>237.58</ele>
        <time>2020-02-16T14:31:03Z</time>
      </trkpt>
      <trkpt lat="43.73262" lon="1.91141">
        <ele>238.54</ele>
        <time>2020-02-16T14:31:15Z</time>
      </trkpt>
      <trkpt lat="43.73241" lon="1.91152">
        <ele>239.51</ele>
        <time>2020-02-16T14:31:35Z</time>
      </trkpt>
      <trkpt lat="43.73223" lon="1.91164">
        <ele>240.47</ele>
        <time>2020-02-16T14:31:52Z</time>
      </trkpt>
      <trkpt lat="43.73208" lon="1.91177">
        <ele>241.43</ele>
        <time>2020-02-16T14:32:08Z</time>
      </trkpt>
      <trkpt lat="43.73193" lon="1.91199">
        <ele>242.87</ele>
        <time>2020-02-16T14:32:28Z</time>
      </trkpt>
      <trkpt lat="43.73181" lon="1.91209">
        <ele>243.83</ele>
        <time>2020-02-16T14:32:42Z</time>
      </trkpt>
      <trkpt lat="43.73165" lon="1.91231">
        <ele>243.83</ele>
        <time>2020-02-16T14:33:01Z</time>
      </trkpt>
      <trkpt lat="43.73153" lon="1.91248">
        <ele>243.83</ele>
        <time>2020-02-16T14:33:17Z</time>
      </trkpt>
      <trkpt lat="43.73135" lon="1.91266">
        <ele>243.83</ele>
        <time>2020-02-16T14:33:36Z</time>
      </trkpt>
      <trkpt lat="43.73129" lon="1.91265">
        <ele>244.31</ele>
        <time>2020-02-16T14:33:50Z</time>
      </trkpt>
      <trkpt lat="43.73126" lon="1.91262">
        <ele>244.31</ele>
        <time>2020-02-16T14:34:01Z</time>
      </trkpt>
      <trkpt lat="43.73122" lon="1.91259">
        <ele>244.31</ele>
        <time>2020-02-16T14:34:08Z</time>
      </trkpt>
      <trkpt lat="43.7312" lon="1.91254">
        <ele>244.31</ele>
        <time>2020-02-16T14:34:13Z</time>
      </trkpt>
      <trkpt lat="43.7311" lon="1.9124">
        <ele>244.31</ele>
        <time>2020-02-16T14:34:27Z</time>
      </trkpt>
      <trkpt lat="43.73103" lon="1.91226">
        <ele>242.39</ele>
        <time>2020-02-16T14:34:38Z</time>
      </trkpt>
      <trkpt lat="43.73089" lon="1.91203">
        <ele>240.95</ele>
        <time>2020-02-16T14:34:56Z</time>
      </trkpt>
      <trkpt lat="43.73082" lon="1.91189">
        <ele>240.47</ele>
        <time>2020-02-16T14:35:06Z</time>
      </trkpt>
      <trkpt lat="43.73071" lon="1.91168">
        <ele>239.02</ele>
        <time>2020-02-16T14:35:22Z</time>
      </trkpt>
      <trkpt lat="43.73058" lon="1.91149">
        <ele>236.14</ele>
        <time>2020-02-16T14:35:39Z</time>
      </trkpt>
      <trkpt lat="43.73042" lon="1.91129">
        <ele>232.78</ele>
        <time>2020-02-16T14:35:59Z</time>
      </trkpt>
      <trkpt lat="43.73039" lon="1.91122">
        <ele>232.3</ele>
        <time>2020-02-16T14:36:05Z</time>
      </trkpt>
      <trkpt lat="43.73024" lon="1.911">
        <ele>229.41</ele>
        <time>2020-02-16T14:36:25Z</time>
      </trkpt>
      <trkpt lat="43.73011" lon="1.91079">
        <ele>227.97</ele>
        <time>2020-02-16T14:36:43Z</time>
      </trkpt>
      <trkpt lat="43.73002" lon="1.91054">
        <ele>227.49</ele>
        <time>2020-02-16T14:37:01Z</time>
      </trkpt>
      <trkpt lat="43.73" lon="1.9104">
        <ele>228.93</ele>
        <time>2020-02-16T14:37:11Z</time>
      </trkpt>
      <trkpt lat="43.72996" lon="1.91017">
        <ele>230.85</ele>
        <time>2020-02-16T14:37:29Z</time>
      </trkpt>
      <trkpt lat="43.72993" lon="1.91">
        <ele>232.78</ele>
        <time>2020-02-16T14:37:46Z</time>
      </trkpt>
      <trkpt lat="43.72991" lon="1.90979">
        <ele>235.18</ele>
        <time>2020-02-16T14:38:03Z</time>
      </trkpt>
      <trkpt lat="43.72983" lon="1.90957">
        <ele>236.62</ele>
        <time>2020-02-16T14:38:23Z</time>
      </trkpt>
      <trkpt lat="43.72974" lon="1.90933">
        <ele>237.1</ele>
        <time>2020-02-16T14:38:41Z</time>
      </trkpt>
      <trkpt lat="43.72969" lon="1.90923">
        <ele>235.66</ele>
        <time>2020-02-16T14:38:48Z</time>
      </trkpt>
      <trkpt lat="43.7296" lon="1.90894">
        <ele>234.22</ele>
        <time>2020-02-16T14:39:07Z</time>
      </trkpt>
      <trkpt lat="43.72954" lon="1.90872">
        <ele>233.74</ele>
        <time>2020-02-16T14:39:22Z</time>
      </trkpt>
      <trkpt lat="43.72944" lon="1.90841">
        <ele>233.74</ele>
        <time>2020-02-16T14:39:43Z</time>
      </trkpt>
      <trkpt lat="43.72941" lon="1.90834">
        <ele>233.74</ele>
        <time>2020-02-16T14:39:48Z</time>
      </trkpt>
      <trkpt lat="43.72934" lon="1.90811">
        <ele>233.74</ele>
        <time>2020-02-16T14:40:04Z</time>
      </trkpt>
      <trkpt lat="43.72932" lon="1.90805">
        <ele>233.74</ele>
        <time>2020-02-16T14:40:09Z</time>
      </trkpt>
      <trkpt lat="43.7293" lon="1.90802">
        <ele>233.74</ele>
        <time>2020-02-16T14:40:11Z</time>
      </trkpt>
      <trkpt lat="43.72926" lon="1.90783">
        <ele>235.18</ele>
        <time>2020-02-16T14:40:24Z</time>
      </trkpt>
      <trkpt lat="43.72925" lon="1.90775">
        <ele>235.66</ele>
        <time>2020-02-16T14:40:30Z</time>
      </trkpt>
      <trkpt lat="43.72924" lon="1.90754">
        <ele>238.06</ele>
        <time>2020-02-16T14:40:47Z</time>
      </trkpt>
      <trkpt lat="43.72926" lon="1.90732">
        <ele>240.47</ele>
        <time>2020-02-16T14:41:04Z</time>
      </trkpt>
      <trkpt lat="43.72925" lon="1.90712">
        <ele>242.39</ele>
        <time>2020-02-16T14:41:21Z</time>
      </trkpt>
      <trkpt lat="43.72919" lon="1.90689">
        <ele>243.83</ele>
        <time>2020-02-16T14:41:37Z</time>
      </trkpt>
      <trkpt lat="43.72915" lon="1.90676">
        <ele>244.79</ele>
        <time>2020-02-16T14:41:47Z</time>
      </trkpt>
      <trkpt lat="43.72907" lon="1.90653">
        <ele>246.23</ele>
        <time>2020-02-16T14:42:02Z</time>
      </trkpt>
      <trkpt lat="43.72906" lon="1.90635">
        <ele>248.16</ele>
        <time>2020-02-16T14:42:17Z</time>
      </trkpt>
      <trkpt lat="43.7291" lon="1.90611">
        <ele>248.64</ele>
        <time>2020-02-16T14:42:35Z</time>
      </trkpt>
      <trkpt lat="43.72912" lon="1.90587">
        <ele>250.08</ele>
        <time>2020-02-16T14:42:53Z</time>
      </trkpt>
      <trkpt lat="43.72912" lon="1.90567">
        <ele>252</ele>
        <time>2020-02-16T14:43:08Z</time>
      </trkpt>
      <trkpt lat="43.72914" lon="1.90546">
        <ele>254.41</ele>
        <time>2020-02-16T14:43:26Z</time>
      </trkpt>
      <trkpt lat="43.72918" lon="1.90526">
        <ele>256.81</ele>
        <time>2020-02-16T14:43:44Z</time>
      </trkpt>
      <trkpt lat="43.72922" lon="1.90509">
        <ele>258.73</ele>
        <time>2020-02-16T14:44:01Z</time>
      </trkpt>
      <trkpt lat="43.72928" lon="1.9049">
        <ele>260.65</ele>
        <time>2020-02-16T14:44:17Z</time>
      </trkpt>
      <trkpt lat="43.7293" lon="1.9047">
        <ele>261.62</ele>
        <time>2020-02-16T14:44:35Z</time>
      </trkpt>
      <trkpt lat="43.72931" lon="1.90459">
        <ele>262.58</ele>
        <time>2020-02-16T14:44:49Z</time>
      </trkpt>
      <trkpt lat="43.7293" lon="1.9044">
        <ele>264.02</ele>
        <time>2020-02-16T14:45:04Z</time>
      </trkpt>
      <trkpt lat="43.72934" lon="1.90422">
        <ele>264.98</ele>
        <time>2020-02-16T14:45:19Z</time>
      </trkpt>
      <trkpt lat="43.72945" lon="1.90406">
        <ele>264.5</ele>
        <time>2020-02-16T14:45:36Z</time>
      </trkpt>
      <trkpt lat="43.72952" lon="1.90403">
        <ele>265.94</ele>
        <time>2020-02-16T14:45:44Z</time>
      </trkpt>
    </trkseg>
  </trk>
</gpx>